[[{"header":{"parameterUnit":"m.s-1","parameterCategory":1,"la1":30.6,"la2":29.2853,"lo1":-89.7004,"lo2":-87.6739,"dy":0.0162,"dx":0.0183,"nx":112,"ny":82,"refTime":"2026-03-23T12:00:00:Z","depth":0,"parameterNumber":2,"parameterNumberName":"U-component_of_WINDS"},"data":[0.0,0.0,0.0,0.0,0.0,0.0,0.0,0.0,0.0,0.0,0.0,0.0,0.0,0.0,0.0,0.0,0.0,0.0,0.0,0.0,0.0,0.0,0.0,0.0,0.0,0.0,0.0,0.0,0.0,0.0,0.0,0.0,0.0,0.0,0.0,0.0,0.0,0.0,0.0,0.0,0.0,0.0,0.0,0.0,0.0,0.0,0.0,0.0,0.0,0.0,0.0,0.0,0.0,0.0,0.0,0.0,0.0,0.0,0.0,0.0,0.0,0.0,0.0,0.0,0.0,0.0,0.0,0.0,0.0,0.0,0.0,0.0,0.0,0.0,0.0,0.0,0.0,0.0,0.0,0.0,0.0,0.0,0.0,0.0,0.0,0.0,0.0,0.0,0.0,0.0,-2.815,-3.0341,-3.3172,-3.4917,-3.4908,-3.4036,-3.2179,-2.9101,0.0,0.0,0.0,0.0,0.0,0.0,0.0,0.0,0.0,0.0,0.0,0.0,0.0,0.0,0.0,0.0,0.0,0.0,0.0,0.0,0.0,0.0,0.0,0.0,0.0,0.0,0.0,0.0,0.0,0.0,0.0,0.0,0.0,0.0,0.0,0.0,0.0,0.0,0.0,0.0,0.0,0.0,0.0,0.0,0.0,0.0,0.0,0.0,0.0,0.0,0.0,0.0,0.0,0.0,0.0,0.0,0.0,0.0,0.0,0.0,0.0,0.0,0.0,0.0,0.0,0.0,0.0,0.0,0.0,0.0,0.0,0.0,0.0,0.0,0.0,0.0,0.0,0.0,0.0,0.0,0.0,0.0,0.0,0.0,0.0,0.0,0.0,0.0,0.0,0.0,0.0,0.0,0.0,0.0,0.0,0.0,0.0,0.0,0.0,0.0,0.0,0.0,0.0,0.0,-2.8183,-3.267,-3.4253,-3.4955,-3.4889,-3.3486,-3.1791,-2.9916,0.0,0.0,0.0,0.0,0.0,0.0,0.0,0.0,0.0,0.0,0.0,0.0,0.0,0.0,0.0,0.0,0.0,0.0,0.0,0.0,0.0,0.0,0.0,0.0,0.0,0.0,0.0,0.0,0.0,0.0,0.0,0.0,0.0,0.0,0.0,0.0,0.0,0.0,0.0,0.0,0.0,0.0,0.0,0.0,0.0,0.0,0.0,0.0,0.0,0.0,0.0,0.0,0.0,0.0,0.0,0.0,0.0,0.0,0.0,0.0,0.0,0.0,0.0,0.0,0.0,0.0,0.0,0.0,0.0,0.0,0.0,0.0,0.0,0.0,0.0,0.0,0.0,0.0,0.0,0.0,0.0,0.0,0.0,0.0,0.0,0.0,0.0,0.0,0.0,0.0,0.0,0.0,0.0,0.0,0.0,0.0,0.0,0.0,0.0,0.0,0.0,0.0,0.0,-2.7189,-2.9322,-3.3866,-3.4699,-3.4765,-3.4282,-3.3107,-3.1507,-2.9423,-2.5736,0.0,0.0,0.0,0.0,0.0,0.0,0.0,0.0,0.0,0.0,0.0,0.0,0.0,0.0,0.0,0.0,0.0,0.0,0.0,0.0,0.0,0.0,0.0,0.0,0.0,0.0,0.0,0.0,0.0,0.0,0.0,0.0,0.0,0.0,0.0,0.0,0.0,0.0,0.0,0.0,0.0,0.0,0.0,0.0,0.0,0.0,0.0,0.0,0.0,0.0,0.0,0.0,0.0,0.0,0.0,0.0,0.0,0.0,0.0,0.0,0.0,0.0,0.0,0.0,0.0,0.0,0.0,0.0,0.0,0.0,0.0,0.0,0.0,0.0,0.0,0.0,0.0,0.0,0.0,0.0,0.0,0.0,0.0,0.0,0.0,0.0,0.0,0.0,0.0,0.0,0.0,0.0,0.0,0.0,0.0,0.0,0.0,0.0,0.0,0.0,0.0,0.0,-2.9353,-3.0798,-3.4414,-3.4583,-3.4224,-3.3649,-3.2231,-3.0503,-2.8442,-2.4241,0.0,0.0,0.0,0.0,0.0,0.0,0.0,0.0,0.0,0.0,0.0,0.0,0.0,0.0,0.0,0.0,0.0,0.0,0.0,0.0,0.0,0.0,0.0,0.0,0.0,0.0,0.0,0.0,0.0,0.0,0.0,0.0,0.0,0.0,0.0,0.0,0.0,0.0,0.0,0.0,0.0,0.0,0.0,0.0,0.0,0.0,0.0,0.0,0.0,0.0,0.0,0.0,0.0,0.0,0.0,0.0,0.0,0.0,0.0,0.0,0.0,0.0,0.0,0.0,0.0,0.0,0.0,0.0,0.0,0.0,0.0,0.0,0.0,0.0,0.0,0.0,0.0,0.0,0.0,0.0,0.0,0.0,0.0,0.0,0.0,0.0,0.0,0.0,0.0,0.0,0.0,0.0,0.0,0.0,0.0,0.0,0.0,0.0,0.0,0.0,0.0,0.0,-2.9682,-3.2266,-3.4311,-3.3695,-3.3187,-3.3312,-3.0288,-2.8054,-2.7255,-2.2609,0.0,0.0,0.0,0.0,0.0,0.0,0.0,0.0,0.0,0.0,0.0,0.0,0.0,0.0,0.0,0.0,0.0,0.0,0.0,0.0,0.0,0.0,0.0,0.0,0.0,0.0,0.0,0.0,0.0,0.0,0.0,0.0,0.0,0.0,0.0,0.0,0.0,0.0,0.0,0.0,0.0,0.0,0.0,0.0,0.0,0.0,0.0,0.0,0.0,0.0,0.0,0.0,0.0,0.0,0.0,0.0,0.0,0.0,0.0,0.0,0.0,0.0,0.0,0.0,0.0,0.0,0.0,0.0,0.0,0.0,0.0,0.0,0.0,0.0,0.0,0.0,0.0,0.0,0.0,0.0,0.0,0.0,0.0,0.0,0.0,0.0,0.0,0.0,0.0,0.0,0.0,0.0,0.0,0.0,0.0,0.0,0.0,0.0,0.0,0.0,0.0,0.0,-2.8486,-3.1032,-3.331,-3.3227,-3.2806,-3.234,-3.0176,-2.809,-2.6338,0.0,0.0,0.0,0.0,0.0,0.0,0.0,0.0,0.0,0.0,0.0,0.0,0.0,0.0,0.0,0.0,0.0,0.0,0.0,0.0,0.0,0.0,0.0,0.0,0.0,0.0,0.0,0.0,0.0,0.0,0.0,0.0,0.0,0.0,0.0,0.0,0.0,0.0,0.0,0.0,0.0,0.0,0.0,0.0,0.0,0.0,0.0,0.0,0.0,0.0,0.0,0.0,0.0,0.0,0.0,0.0,0.0,0.0,0.0,0.0,0.0,0.0,0.0,0.0,0.0,0.0,0.0,0.0,0.0,0.0,0.0,0.0,0.0,0.0,0.0,0.0,0.0,0.0,0.0,0.0,0.0,0.0,0.0,0.0,0.0,0.0,0.0,0.0,0.0,0.0,0.0,0.0,0.0,0.0,0.0,0.0,0.0,0.0,0.0,0.0,0.0,0.0,-2.4977,-2.7538,-2.9897,-3.2223,-3.2175,-3.1653,-3.0856,-2.8812,-2.665,-2.4524,0.0,0.0,0.0,0.0,0.0,0.0,0.0,0.0,0.0,0.0,0.0,0.0,0.0,0.0,0.0,0.0,0.0,0.0,0.0,0.0,0.0,0.0,0.0,0.0,0.0,0.0,0.0,0.0,0.0,0.0,0.0,0.0,0.0,0.0,0.0,0.0,0.0,0.0,0.0,0.0,0.0,0.0,0.0,0.0,0.0,0.0,0.0,0.0,0.0,0.0,0.0,0.0,0.0,0.0,0.0,0.0,0.0,0.0,0.0,0.0,0.0,0.0,0.0,0.0,0.0,0.0,0.0,0.0,0.0,0.0,0.0,0.0,0.0,0.0,0.0,0.0,0.0,0.0,0.0,0.0,0.0,0.0,0.0,0.0,0.0,0.0,0.0,0.0,0.0,0.0,0.0,0.0,0.0,0.0,0.0,0.0,0.0,0.0,0.0,0.0,0.0,0.0,-2.4574,-2.7097,-2.9286,-3.1095,-3.0386,-2.9522,-2.8846,-2.5735,-2.3187,0.0,0.0,0.0,0.0,0.0,0.0,0.0,0.0,0.0,0.0,0.0,0.0,0.0,0.0,0.0,0.0,0.0,0.0,0.0,0.0,0.0,0.0,0.0,0.0,0.0,0.0,0.0,0.0,0.0,0.0,0.0,0.0,0.0,0.0,0.0,0.0,0.0,0.0,0.0,0.0,0.0,0.0,0.0,0.0,0.0,0.0,0.0,0.0,0.0,0.0,0.0,0.0,0.0,0.0,0.0,0.0,0.0,0.0,0.0,0.0,0.0,0.0,0.0,0.0,0.0,0.0,0.0,0.0,0.0,0.0,0.0,0.0,0.0,0.0,0.0,0.0,0.0,0.0,0.0,0.0,0.0,0.0,0.0,0.0,0.0,0.0,0.0,0.0,0.0,0.0,0.0,0.0,0.0,0.0,0.0,0.0,0.0,0.0,0.0,0.0,0.0,0.0,0.0,-2.372,-2.6585,-2.8819,-3.0098,-2.9934,-2.9411,-2.8648,-2.6122,-2.3682,-2.1593,0.0,0.0,0.0,0.0,0.0,0.0,0.0,0.0,0.0,0.0,0.0,0.0,0.0,0.0,0.0,0.0,0.0,0.0,0.0,0.0,0.0,0.0,0.0,0.0,0.0,0.0,0.0,0.0,0.0,0.0,0.0,0.0,0.0,0.0,0.0,0.0,0.0,0.0,0.0,0.0,0.0,0.0,0.0,0.0,0.0,0.0,0.0,0.0,0.0,0.0,0.0,0.0,0.0,0.0,0.0,0.0,0.0,0.0,0.0,0.0,0.0,0.0,0.0,0.0,0.0,0.0,0.0,0.0,0.0,0.0,0.0,0.0,0.0,0.0,0.0,0.0,0.0,0.0,0.0,0.0,0.0,0.0,0.0,0.0,0.0,0.0,0.0,0.0,0.0,0.0,0.0,0.0,0.0,0.0,0.0,0.0,0.0,0.0,0.0,0.0,0.0,0.0,-2.2975,-2.5491,-2.7453,-2.8709,-2.8806,-2.8318,-2.7201,-2.5237,-2.3064,-2.0702,0.0,0.0,0.0,0.0,0.0,0.0,0.0,0.0,0.0,0.0,0.0,0.0,0.0,0.0,0.0,0.0,0.0,0.0,0.0,0.0,0.0,0.0,0.0,0.0,0.0,0.0,0.0,0.0,0.0,0.0,0.0,0.0,0.0,0.0,0.0,0.0,0.0,0.0,0.0,0.0,0.0,0.0,0.0,0.0,0.0,0.0,0.0,0.0,0.0,0.0,0.0,0.0,0.0,0.0,0.0,0.0,0.0,0.0,0.0,0.0,0.0,0.0,0.0,0.0,0.0,0.0,0.0,0.0,0.0,0.0,0.0,0.0,0.0,0.0,0.0,0.0,0.0,0.0,0.0,0.0,0.0,0.0,0.0,0.0,0.0,0.0,0.0,0.0,0.0,0.0,0.0,0.0,0.0,0.0,0.0,0.0,0.0,0.0,0.0,0.0,0.0,0.0,-2.2314,-2.4064,-2.5536,-2.7043,-2.7185,-2.6564,-2.5031,-2.354,-2.1725,-1.944,0.0,0.0,0.0,0.0,0.0,0.0,0.0,0.0,0.0,0.0,0.0,0.0,0.0,0.0,0.0,0.0,0.0,0.0,0.0,0.0,0.0,0.0,0.0,0.0,0.0,0.0,0.0,0.0,0.0,0.0,0.0,0.0,0.0,0.0,0.0,0.0,0.0,0.0,0.0,0.0,0.0,0.0,0.0,0.0,0.0,0.0,0.0,0.0,0.0,0.0,0.0,0.0,0.0,0.0,0.0,0.0,0.0,0.0,0.0,0.0,-2.1126,-2.0208,0.0,0.0,0.0,0.0,0.0,0.0,0.0,0.0,0.0,0.0,0.0,0.0,0.0,0.0,0.0,0.0,0.0,0.0,0.0,0.0,0.0,0.0,0.0,0.0,0.0,0.0,0.0,0.0,0.0,0.0,0.0,0.0,0.0,0.0,0.0,0.0,0.0,0.0,0.0,0.0,-2.1581,-2.3132,-2.4361,-2.5537,-2.5627,-2.5202,-2.4222,-2.2734,-2.1122,-1.9417,-1.6264,0.0,0.0,0.0,0.0,0.0,0.0,0.0,0.0,0.0,0.0,0.0,0.0,0.0,0.0,0.0,0.0,0.0,0.0,0.0,0.0,0.0,0.0,0.0,0.0,0.0,0.0,0.0,0.0,0.0,0.0,0.0,0.0,0.0,0.0,0.0,0.0,0.0,0.0,0.0,0.0,0.0,0.0,0.0,0.0,0.0,0.0,0.0,0.0,0.0,0.0,0.0,0.0,0.0,0.0,0.0,0.0,0.0,0.0,0.0,-2.2798,-2.1661,0.0,0.0,0.0,0.0,0.0,0.0,0.0,0.0,0.0,0.0,0.0,0.0,0.0,0.0,0.0,0.0,0.0,0.0,0.0,0.0,0.0,0.0,0.0,0.0,0.0,0.0,0.0,0.0,0.0,0.0,0.0,0.0,0.0,0.0,0.0,0.0,0.0,0.0,0.0,0.0,-2.0959,-2.2479,-2.3613,-2.4539,-2.4592,-2.4256,-2.3493,-2.2349,-2.1204,-2.0039,-1.7179,0.0,0.0,0.0,0.0,0.0,0.0,0.0,0.0,0.0,0.0,0.0,0.0,0.0,0.0,0.0,0.0,0.0,0.0,0.0,0.0,0.0,0.0,0.0,0.0,0.0,0.0,0.0,0.0,0.0,0.0,0.0,0.0,0.0,0.0,0.0,0.0,0.0,0.0,0.0,0.0,0.0,0.0,0.0,0.0,0.0,0.0,0.0,0.0,0.0,0.0,0.0,0.0,0.0,-2.5009,-2.5357,-2.5771,-2.5913,-2.6253,-2.6638,-2.4494,-2.3436,-2.3152,-2.2473,0.0,0.0,0.0,0.0,0.0,0.0,0.0,0.0,0.0,0.0,0.0,0.0,0.0,0.0,0.0,0.0,0.0,0.0,0.0,0.0,0.0,0.0,0.0,0.0,-2.0645,-2.0569,-1.7973,0.0,0.0,0.0,0.0,0.0,0.0,0.0,0.0,0.0,0.0,0.0,-2.0467,-2.1908,-2.294,-2.3553,-2.3619,-2.3371,-2.2758,-2.2029,-2.1298,-2.0553,-1.81,-1.6612,0.0,0.0,0.0,0.0,0.0,0.0,0.0,0.0,0.0,0.0,0.0,0.0,0.0,0.0,0.0,0.0,0.0,0.0,0.0,0.0,0.0,0.0,0.0,0.0,0.0,0.0,0.0,0.0,0.0,0.0,0.0,0.0,-2.1164,-2.0802,0.0,0.0,0.0,0.0,0.0,0.0,0.0,0.0,0.0,0.0,0.0,0.0,0.0,-2.3035,-2.3564,-2.4729,-2.5388,-2.5486,-2.6638,-2.6948,-2.6497,-2.706,-2.7385,-2.7455,-2.7088,0.0,-2.5181,-2.4485,0.0,0.0,0.0,0.0,0.0,0.0,0.0,0.0,0.0,0.0,0.0,0.0,0.0,0.0,0.0,0.0,0.0,0.0,0.0,0.0,0.0,0.0,-2.2089,-2.1542,-2.1523,-2.1519,0.0,-1.9609,-1.789,-1.642,-1.5164,0.0,0.0,0.0,0.0,0.0,0.0,0.0,-2.0187,-2.1299,-2.198,-2.2094,-2.2094,-2.2061,-2.1947,-2.1265,-2.0522,-1.9796,-1.8509,-1.7374,-1.6442,-1.4957,0.0,0.0,0.0,0.0,0.0,0.0,0.0,0.0,0.0,0.0,0.0,0.0,0.0,0.0,0.0,0.0,0.0,0.0,0.0,0.0,0.0,0.0,0.0,0.0,0.0,0.0,0.0,0.0,0.0,-2.0094,-2.0864,-2.0905,-2.1139,-2.1075,0.0,0.0,0.0,0.0,0.0,0.0,0.0,0.0,0.0,-2.3009,-2.4269,-2.5061,-2.5339,-2.6566,-2.7347,-2.7726,-2.8344,-2.8652,-2.8722,-2.8699,-2.8671,-2.8671,-2.8671,-2.8107,-2.7088,-2.5365,-2.3751,-2.2286,0.0,0.0,0.0,0.0,-2.0656,-2.0619,-2.1465,-2.1646,-2.1384,-2.0653,0.0,0.0,0.0,0.0,0.0,0.0,0.0,0.0,0.0,0.0,-2.2628,-2.2343,-2.2517,-2.2667,-2.2343,-2.1538,-2.0319,0.0,-1.7406,-1.6597,-1.5387,-1.5281,0.0,0.0,0.0,-1.8941,-1.9899,-2.0731,-2.1246,-2.1246,-2.1246,-2.1246,-2.1246,-2.0599,-2.0065,-1.9728,-1.8535,-1.7786,-1.77,-1.5946,-1.4798,0.0,0.0,0.0,0.0,0.0,0.0,0.0,0.0,0.0,0.0,0.0,0.0,0.0,0.0,0.0,0.0,0.0,0.0,0.0,0.0,0.0,0.0,0.0,0.0,0.0,0.0,0.0,0.0,-2.0349,-2.0948,-2.1025,-2.1571,-2.1676,0.0,0.0,0.0,0.0,0.0,0.0,-2.325,-2.3869,-2.4421,-2.4887,-2.6327,-2.7056,-2.7056,-2.8098,-2.8885,-2.9357,-2.9357,-2.9637,-3.011,-2.9495,-2.9219,-2.9205,-2.9053,-2.8691,-2.8081,-2.6216,-2.495,-2.4062,-2.2839,-2.2269,-2.2176,-2.2574,-2.2474,-2.2297,-2.3331,-2.3451,-2.3024,-2.2257,-2.1467,-2.0551,-1.91,0.0,0.0,0.0,0.0,-2.1316,-2.1463,-2.2268,-2.3003,-2.2992,-2.3223,-2.3349,-2.2999,-2.2843,-2.2137,0.0,-1.9407,-1.8628,-1.6891,-1.6787,0.0,-1.7214,-1.8179,-1.9137,-1.9815,-2.043,-2.0794,-2.0794,-2.0794,-2.0794,-2.0794,-2.0194,-1.9719,-1.9529,-1.8458,-1.8018,-1.8409,-1.6749,-1.5762,-1.5678,0.0,0.0,0.0,0.0,0.0,0.0,0.0,0.0,0.0,0.0,0.0,0.0,0.0,0.0,0.0,0.0,0.0,0.0,0.0,0.0,0.0,0.0,0.0,0.0,0.0,0.0,0.0,0.0,0.0,-2.1479,-2.3218,0.0,0.0,0.0,0.0,-2.3342,-2.3437,-2.3832,-2.4649,-2.521,-2.5591,-2.573,-2.7426,-2.8305,-2.8305,-2.8935,-2.9263,-2.9324,-2.9324,-2.9302,-2.9315,-2.8746,-2.847,-2.8431,-2.7859,-2.7577,-2.7545,-2.7484,-2.6678,-2.5382,-2.4104,-2.3259,-2.2699,-2.2276,-2.2451,-2.287,-2.3073,-2.3446,-2.3937,-2.4521,-2.3825,-2.2735,-2.2651,-2.1741,0.0,0.0,-2.2738,-2.2944,-2.3568,-2.3803,-2.3829,-2.3769,-2.3374,-2.3141,-2.3488,-2.3201,-2.263,0.0,-2.0531,-1.9725,-1.9836,0.0,-1.8315,-1.8898,-1.9357,-1.9766,-2.0138,-2.0531,-2.0794,-2.0794,-2.0794,-2.0794,-2.0794,-2.0194,-1.9498,-1.8803,-1.8453,-1.8097,-1.7672,-1.6999,-1.6574,-1.6441,-1.411,0.0,0.0,0.0,0.0,0.0,0.0,0.0,0.0,0.0,0.0,0.0,0.0,0.0,0.0,0.0,0.0,0.0,0.0,0.0,0.0,0.0,0.0,0.0,0.0,0.0,0.0,0.0,0.0,-2.3366,-2.4078,0.0,-2.3883,-2.36,-2.3751,-2.4524,-2.4751,-2.5375,-2.6668,-2.704,-2.7411,-2.7828,-2.8578,-2.8996,-2.8996,-2.9536,-2.9823,-2.9823,-2.9823,-2.9555,-2.9093,-2.8486,-2.8018,-2.7689,-2.7447,-2.7436,-2.7497,-2.7424,-2.6915,-2.6025,-2.5084,-2.459,-2.4389,-2.4331,-2.436,-2.4392,-2.4205,-2.4182,-2.4176,-2.3802,-2.3029,-2.2339,-2.2875,-2.2614,-2.2369,-2.3286,-2.3523,-2.3604,-2.3828,-2.3909,-2.3879,-2.3868,-2.3424,-2.3033,-2.3187,-2.2783,-2.2392,-2.2462,-2.2019,-2.1374,-2.0628,-2.0104,-1.973,-1.9521,-1.9613,-1.9739,-1.9859,-2.0013,-2.0083,-2.0083,-2.0083,-2.0083,-2.0083,-1.9091,-1.8342,-1.8082,-1.7212,-1.6788,-1.6999,-1.6427,-1.6292,-1.662,-1.4584,-1.312,0.0,0.0,0.0,0.0,0.0,0.0,0.0,0.0,0.0,0.0,0.0,0.0,0.0,0.0,0.0,0.0,0.0,0.0,0.0,0.0,0.0,0.0,0.0,0.0,0.0,-2.1685,-2.3295,-2.4402,-2.5115,-2.5544,-2.5537,-2.5306,-2.539,-2.5983,-2.6319,-2.6989,-2.8027,-2.8376,-2.8779,-2.9166,-2.9505,-2.9668,-2.9668,-3.0008,-3.019,-3.019,-3.0277,-2.9995,-2.9434,-2.8708,-2.8165,-2.7756,-2.7382,-2.7235,-2.7302,-2.7167,-2.6848,-2.6449,-2.5807,-2.5576,-2.5563,-2.5453,-2.5389,-2.5249,-2.4777,-2.4394,-2.4034,-2.3396,-2.2865,-2.257,-2.3102,-2.3199,-2.3227,-2.3676,-2.3851,-2.3905,-2.3905,-2.3931,-2.3916,-2.3673,-2.3334,-2.3004,-2.2752,-2.2424,-2.2263,-2.2578,-2.2513,-2.2218,-2.151,-2.1201,-2.0887,-2.0441,-2.0382,-2.0288,-2.0064,-2.0034,-1.9944,-1.9723,-1.9708,-1.9708,-1.9708,-1.8687,-1.7938,-1.7697,-1.6697,-1.6278,-1.6681,-1.6114,-1.6069,-1.6681,-1.4661,-1.3317,-1.2734,0.0,0.0,0.0,0.0,0.0,0.0,0.0,0.0,0.0,0.0,0.0,0.0,0.0,0.0,0.0,0.0,0.0,0.0,0.0,0.0,0.0,0.0,0.0,-2.1076,-2.3003,-2.4476,-2.4528,-2.6483,-2.7322,-2.6038,-2.7083,-2.7755,-2.764,-2.8252,-2.8605,-2.863,-2.9217,-2.9524,-2.9524,-3.0086,-3.0406,-3.0406,-3.0406,-3.0406,-3.0406,-3.0609,-3.0571,-3.0342,-2.9396,-2.8892,-2.86,-2.7464,-2.6977,-2.6977,-2.6794,-2.6679,-2.6663,-2.6284,-2.61,-2.6069,-2.5518,-2.5345,-2.5243,-2.4617,-2.4055,-2.3624,-2.3599,-2.3599,-2.3599,-2.3599,-2.3599,-2.3599,-2.3599,-2.373,-2.3891,-2.3865,-2.3953,-2.3872,-2.3219,-2.3109,-2.2934,-2.2242,-2.219,-2.2226,-2.2104,-2.1996,-2.2061,-2.2593,-2.2138,-2.1685,-2.1705,-2.169,0.0,-2.0808,-2.0703,-2.0468,-1.9828,-1.9753,-1.9738,-1.9738,-1.9091,-1.8416,-1.7727,-1.7039,-1.6651,-1.6636,-1.6069,-1.6039,-1.6621,-1.4368,-1.3013,-1.2587,0.0,0.0,0.0,0.0,0.0,0.0,0.0,0.0,0.0,0.0,0.0,0.0,0.0,0.0,0.0,0.0,0.0,0.0,0.0,0.0,0.0,-2.1617,-2.2667,-2.2667,-2.4265,-2.5876,-2.7151,-2.7721,-2.8102,-2.825,-2.8272,-2.8314,-2.8535,-2.8858,-2.9162,-2.9441,-2.9771,-2.9923,-2.9923,-3.0253,-3.0406,-3.0406,-3.0406,-3.0406,-3.0406,-3.0444,-3.015,-2.9528,-2.8851,-2.8316,-2.785,-2.7112,-2.6875,-2.6977,-2.6794,-2.6679,-2.6667,-2.6481,-2.6396,-2.6371,-2.632,-2.607,-2.5637,-2.493,-2.4356,-2.3856,-2.356,-2.336,-2.3288,-2.3539,-2.3539,-2.348,-2.3569,-2.3628,-2.3598,-2.3187,-2.3141,-2.3005,-2.2434,-2.1976,-2.1783,-2.2089,-2.1561,-2.1227,-2.2092,-2.1849,-2.1695,-2.2187,-2.1755,-2.1442,-2.1791,-2.1418,0.0,-2.1401,-2.1006,-2.0808,-2.1111,-2.0722,-2.0438,-2.0438,-1.9361,-1.8316,-1.7399,-1.6298,-1.5531,-1.5193,-1.5021,-1.4992,-1.5099,-1.3989,-1.3122,0.0,0.0,0.0,0.0,0.0,0.0,0.0,0.0,0.0,0.0,0.0,0.0,0.0,0.0,0.0,0.0,0.0,0.0,0.0,0.0,0.0,0.0,-2.2774,-2.4151,-2.5174,-2.6152,-2.7211,-2.8481,-2.8736,-2.8976,-2.9404,-2.9151,-2.9076,-2.9264,-2.9404,-2.9542,-2.9779,-2.9895,-2.9972,-2.9972,-3.0075,-3.0152,-3.0152,-3.0152,-3.0152,-3.0152,-3.0228,-2.9974,-2.9441,-2.8706,-2.8174,-2.7774,-2.6978,-2.6692,-2.6773,-2.6658,-2.6624,0.0,0.0,0.0,0.0,0.0,-2.627,-2.5668,-2.5041,-2.4456,-2.3904,-2.343,-2.321,-2.3138,-2.3318,-2.333,-2.33,-2.3378,-2.345,-2.3433,-2.3144,-2.3083,-2.2965,-2.2212,-2.1915,-2.1799,-2.1833,-2.1431,-2.1238,-2.1783,-2.1581,0.0,-2.1509,-2.156,-2.1668,-2.1947,-2.1655,-2.1427,-2.148,-2.1152,-2.086,-2.0706,-2.0356,-2.0021,-1.9797,-1.9049,0.0,0.0,0.0,-1.5427,-1.4578,-1.4768,0.0,0.0,0.0,0.0,0.0,0.0,0.0,0.0,-1.2746,-1.2899,0.0,0.0,0.0,0.0,0.0,0.0,0.0,0.0,0.0,0.0,0.0,0.0,0.0,0.0,0.0,0.0,-2.3737,-2.5476,-2.7594,-2.8027,-2.8362,-2.8925,-2.9478,-2.9792,-2.9792,-2.9792,-2.9792,-2.9792,-2.9792,-2.9792,-2.9792,-2.9792,0.0,0.0,0.0,-2.9792,-2.9792,-2.9792,-2.9792,-2.9792,-2.9972,-2.9972,-2.9754,-2.8797,-2.823,-2.7888,-2.6824,-2.6314,-2.6233,-2.6233,-2.6233,-2.6233,-2.6418,-2.6499,-2.6499,-2.6499,-2.6172,-2.5624,-2.5096,0.0,0.0,-2.3396,-2.3158,-2.3108,-2.3108,-2.3108,-2.3108,-2.3108,-2.3241,-2.336,-2.3284,-2.3361,-2.3186,-2.2172,-2.226,-2.2334,-2.1533,-2.1581,-2.1706,-2.1521,-2.1392,-2.1251,-2.0833,-2.1412,-2.1964,-2.2011,-2.2011,-2.1853,-2.1358,-2.1232,-2.0798,-1.9726,0.0,0.0,-1.8694,-1.8582,-1.8221,-1.7441,-1.6738,-1.5803,-1.4604,-1.5002,-1.5236,-1.5167,-1.4402,-1.4364,-1.5069,-1.3946,-1.3758,-1.4426,-1.3214,-1.356,0.0,0.0,0.0,0.0,0.0,0.0,0.0,0.0,0.0,0.0,0.0,0.0,0.0,0.0,0.0,-2.2741,-2.4897,-2.6423,-2.6621,-2.7678,-2.8719,-2.9526,-2.9729,-2.9792,-2.9792,-2.9792,-2.9792,-2.9792,-2.9792,-2.9792,-2.9792,-2.9792,-2.9792,-2.9792,-2.9792,-2.9792,-2.9792,-2.9792,-2.9792,-2.9792,0.0,0.0,-2.9754,-2.8649,-2.7779,-2.7052,-2.6008,-2.5146,-2.4552,-2.4552,-2.4552,-2.4696,-2.5978,-2.6499,-2.6499,-2.6499,-2.6424,-2.6248,-2.5636,-2.5096,-2.4537,-2.4004,-2.3484,-2.3108,-2.3108,-2.3108,0.0,-2.3108,-2.3138,-2.3067,-2.2627,-2.2531,-2.2283,-2.1228,-2.1051,-2.1205,-2.1542,-2.1339,-2.1379,-2.2336,-2.2131,-2.1604,-2.1119,-2.0975,-2.1106,-2.1482,-2.153,-2.1619,-2.1881,-2.1507,-2.1265,-2.1384,-2.0943,-2.04,-1.9697,-1.9135,-1.8248,-1.6871,-1.585,-1.5169,-1.4913,-1.4941,-1.4967,-1.4967,-1.479,-1.479,-1.4929,-1.4695,-1.4872,-1.5407,-1.4556,-1.4542,0.0,0.0,0.0,0.0,0.0,0.0,0.0,0.0,0.0,0.0,0.0,-1.85,-1.963,0.0,-2.1926,-2.356,-2.5043,-2.6147,-2.6623,-2.7313,-2.8131,-2.904,-2.917,-2.917,-2.917,-2.917,-2.917,-2.917,-2.8712,-2.8673,-2.9131,-2.917,-2.917,-2.917,-2.9585,-2.9792,-2.9792,-2.9792,-2.9792,-2.9792,-2.9792,-2.9792,-2.9754,-2.8213,-2.7274,-2.6816,-2.5336,-2.448,-2.4108,-2.4108,-2.4108,-2.4181,-2.4992,-2.5288,-2.5358,-2.5734,-2.5886,-2.5832,-2.5353,-2.4793,-2.4205,-2.3704,-2.3107,-2.2659,-2.3005,-2.3108,-2.3108,-2.3108,-2.3108,-2.3045,-2.2769,-2.2493,-2.2096,-2.1378,-2.0947,-2.0869,-2.1549,-2.1445,-2.1509,-2.2474,-2.241,-2.2041,-2.1575,-2.1171,-2.0912,-2.0938,-2.086,-2.0921,-2.1251,-2.0946,-2.0686,-2.0649,-2.0381,-1.992,-1.9265,-1.8658,-1.7708,-1.6342,-1.5997,-1.5575,-1.4967,-1.518,-1.5299,-1.5299,-1.5035,-1.5035,-1.5299,-1.5022,-1.5035,-1.5299,-1.5197,-1.5402,0.0,0.0,0.0,0.0,0.0,0.0,0.0,-1.7046,-1.7699,-1.8246,-1.9124,-2.0012,-2.0679,-2.1602,-2.2698,-2.4147,-2.4916,-2.5598,-2.6479,-2.6651,-2.7001,-2.7778,-2.8072,-2.8211,-2.8211,-2.8211,-2.8211,-2.8211,-2.7516,-2.7435,-2.8171,-2.8211,-2.8211,-2.8211,-2.9091,-2.9546,-2.9546,-2.9714,-2.9792,-2.9792,-2.955,-2.9423,-2.9347,-2.7427,-2.6459,-2.6212,-2.4436,-2.3647,-2.3647,-2.3647,-2.3647,-2.3647,-2.3647,-2.3647,-2.3756,-2.4719,-2.5087,-2.5039,-2.4743,-2.4171,-2.3502,-2.3124,-2.2511,-2.2021,-2.2689,-2.2914,-2.2944,-2.3078,-2.3108,-2.3108,-2.3108,-2.2782,-2.2338,-2.18,-2.1251,-2.097,-2.1407,-2.1489,-2.1685,-2.234,-2.2559,-2.2486,-2.2038,-2.1623,-2.118,-2.0682,-2.0386,-2.0258,-2.0423,-2.0296,-2.0028,-1.9556,-1.9504,-1.9287,-1.8654,-1.8015,-1.7228,-1.6253,-1.6486,-1.6229,-1.5248,-1.5618,-1.5856,-1.5856,-1.5437,-1.5424,-1.5856,-1.5424,-1.5211,-1.5223,-1.5643,-1.6032,-1.9229,-1.8019,-1.7059,-1.7051,-1.7078,-1.7508,0.0,-1.9419,-1.973,-2.0565,-2.114,-2.1665,-2.2159,-2.2685,-2.3253,-2.3867,-2.4962,-2.5525,-2.4903,-2.5161,-2.544,-2.5573,-2.6551,-2.7273,-2.7273,-2.7273,-2.7273,-2.7273,-2.7151,-2.7151,-2.7273,-2.7273,-2.7273,-2.7273,-2.8171,-2.8673,-2.8673,-2.9417,-2.9792,-2.9792,-2.8588,-2.8023,-2.796,-2.6085,-2.4819,-2.4055,-2.268,-2.2063,-2.2063,-2.2063,-2.2063,-2.2063,-2.2063,-2.2063,-2.2241,-2.3683,-2.4228,-2.4241,-2.4209,-2.3526,-2.2717,-2.2669,-2.1999,-2.1345,-2.2021,-2.2206,-2.2329,-2.2944,-2.3108,-2.3108,-2.3108,-2.3058,-2.2757,-2.176,-2.1471,-2.1307,-2.0907,-2.1169,-2.1644,-2.2238,-2.2711,-2.2862,-2.2351,-2.22,-2.1923,-2.1154,-2.0566,-2.0207,-2.0233,-2.0207,-2.0131,-1.9953,-1.9927,-1.9649,-1.9007,-1.8025,-1.737,-1.7244,-1.6794,-1.6459,-1.6333,-1.6375,-1.64,-1.64,-1.6337,-1.6337,-1.64,-1.6337,-1.6312,-1.6312,-1.6375,-1.6195,-2.0363,-1.9389,-1.855,-1.8354,-1.8871,-1.9599,-2.0038,-2.0772,-2.1466,-2.1838,-2.2076,-2.2428,-2.3163,-2.3236,-2.3422,-2.4146,-2.4703,-2.4903,-2.454,-2.4472,-2.4426,-2.4426,-2.4669,-2.512,-2.5924,-2.5987,-2.6099,-2.6337,-2.5883,-2.5799,-2.6318,-2.6359,-2.6359,-2.6359,-2.7232,-2.7678,-2.7678,-2.7806,-2.7861,-2.7849,-2.7029,-2.6626,-2.6603,-2.5021,-2.3677,-2.2592,-2.2032,-2.1807,-2.1807,-2.1807,-2.1807,-2.1807,-2.1807,-2.1807,-2.1911,-2.3054,-2.3449,-2.3489,-2.3608,-2.3091,-2.2382,-2.2207,-2.1574,-2.0994,-2.1394,-2.1534,-2.1585,-2.1846,-2.1939,-2.1939,-2.1939,-2.1713,-2.1349,-2.0908,-2.0366,-1.9936,-2.0032,-2.0029,-2.022,-2.1057,-2.1392,-2.1541,-2.1606,-2.1337,-2.1158,-2.1215,-2.0811,-2.0524,-2.0589,-2.0232,-1.9939,-1.9888,-1.9888,-1.9623,-1.9045,-1.8581,-1.8204,-1.789,-1.7639,-1.7501,-1.7501,-1.7156,-1.7133,-1.7478,-1.6848,-1.6642,-1.6947,-1.6642,-1.6482,-1.6433,-1.6807,-1.686,-2.0953,-2.0367,-1.9872,-1.9619,-2.0415,-2.1248,-2.1041,-2.188,-2.2687,-2.2687,-2.2687,-2.2894,-2.3567,-2.3412,-2.3443,-2.4229,-2.4321,-2.4321,-2.4321,-2.3971,-2.3639,-2.3515,-2.3091,-2.3257,-2.4333,-2.4576,-2.4816,-2.5237,-2.4672,-2.465,-2.5411,-2.5421,-2.5421,-2.5421,-2.6287,-2.673,-2.673,-2.6577,-2.6495,-2.6484,-2.5634,-2.5237,-2.5188,-2.3853,-2.27,-2.1807,-2.1807,-2.1807,-2.1807,-2.1807,-2.1807,-2.1807,-2.1807,-2.1807,-2.1883,-2.244,-2.2665,-2.2686,-2.2855,-2.2465,-2.1912,-2.1527,-2.1005,-2.0572,-2.077,-2.0805,-2.0869,-2.104,-2.1092,-2.1092,-2.1092,-2.0828,-2.0488,-2.035,-1.9755,-1.9286,-1.9503,-1.9321,-1.9304,-2.004,-2.022,-2.0381,-2.0825,-2.0576,-2.0534,-2.115,-2.0865,-2.0634,-2.0835,-2.0215,-1.9798,-1.9798,-1.9798,-1.9648,-1.9246,-1.8921,-1.8598,-1.8202,-1.7872,-1.769,-1.769,-1.7278,-1.7254,-1.769,-1.6884,-1.6669,-1.7047,-1.6669,-1.6452,-1.6405,-1.6838,-1.7047,-2.0608,-2.0335,-2.0334,-2.0593,-2.123,-2.1901,-2.2335,-2.2811,-2.3163,-2.3163,-2.3163,-2.3174,-2.3205,-2.3194,-2.335,-2.3826,-2.394,-2.394,-2.394,-2.3505,-2.3039,-2.2594,-2.2128,-2.2035,-2.253,-2.2976,-2.3442,-2.3898,-2.394,-2.4084,-2.4519,-2.454,-2.454,-2.454,-2.5379,-2.5819,-2.5819,-2.6295,-2.6495,-2.6484,-2.4692,-2.3842,-2.3831,-2.2463,-2.1856,-2.1807,-2.1807,-2.1807,-2.1807,-2.1807,-2.1807,-2.1807,-2.1807,-2.1807,-2.1807,-2.1845,-2.1845,-2.1845,-2.1825,-2.1524,-2.1068,-2.0591,-2.0145,-1.987,-2.0085,-2.0128,-2.0258,-2.0901,-2.1092,-2.1092,-2.1092,-2.108,-2.0954,-2.043,-2.0293,-2.0114,-1.9604,-1.9549,-1.9597,-1.9631,-1.9731,-1.9963,-2.0369,-2.0408,-2.0557,-2.1032,-2.0664,-2.0423,-2.0667,-2.0189,-1.9798,-1.9798,-1.9798,-1.9798,-1.9773,-1.8765,-1.8132,-1.8094,-1.7068,-1.6455,-1.6455,-1.6441,-1.6441,-1.6455,-1.6418,-1.6418,-1.643,-1.6418,-1.6394,-1.6405,-1.6405,-1.643,-2.1072,-2.1487,-2.1878,-2.1855,-2.2534,-2.3143,-2.2987,-2.3318,-2.3474,-2.2853,-2.248,-2.2273,-2.2273,-2.2273,-2.2522,-2.3298,-2.3722,-2.3919,-2.3919,-2.3743,-2.336,-2.2594,-2.2356,-2.2201,-2.2056,-2.2459,-2.2925,-2.3381,-2.3701,-2.395,-2.4095,-2.4332,-2.4497,-2.4497,-2.4775,-2.4798,-2.4535,-2.4397,-2.4161,-2.3828,-2.2924,-2.2463,-2.2463,-2.2022,-2.1807,-2.1807,-2.1807,-2.1807,-2.1807,-2.1807,-2.1807,-2.1807,-2.1807,-2.1807,-2.1807,-2.1807,-2.1807,-2.1807,-2.1807,-2.1704,-2.1497,-2.1031,-2.0783,-2.0549,-2.0057,-1.9893,-1.9898,-1.9801,-1.9781,-1.9781,-1.9781,-1.9781,-1.9738,-1.9555,-1.9265,-1.8997,-1.8805,-1.8526,-1.8353,-1.8353,-1.8384,-1.8565,-1.8985,-1.9061,-1.9272,-1.9815,-1.9859,-1.9737,-1.9479,-1.8978,-1.8673,-1.8673,-1.8673,-1.8673,-1.8673,-1.8307,-1.8107,-1.8107,-1.7732,-1.7523,-1.7523,-1.714,-1.7113,-1.7523,-1.6796,-1.6574,-1.6926,-1.6574,-1.6411,-1.6411,-1.6786,-1.6926,-2.2162,-2.2712,-2.3145,-2.3117,-2.3435,-2.368,-2.3378,-2.3244,-2.2967,-2.2366,-2.1621,-2.1073,-2.1073,-2.0938,-2.1186,-2.2273,-2.2832,-2.3256,-2.3588,-2.3774,-2.3598,-2.2832,-2.2594,-2.2377,-2.2087,-2.217,-2.2439,-2.2904,-2.337,-2.3701,-2.3867,-2.4302,-2.4497,-2.4497,-2.4497,-2.4333,-2.3888,-2.3422,-2.2873,-2.2242,-2.1952,-2.1807,-2.1807,-2.1807,-2.1807,-2.1807,-2.1807,-2.1807,-2.1807,-2.1807,-2.1807,-2.1807,-2.1807,-2.1807,-2.1807,-2.1807,-2.1807,-2.1807,-2.1807,-2.1807,-2.1725,-2.1269,-2.1114,-2.0969,-2.0224,-1.9917,-1.973,-1.944,-1.9233,-1.9108,-1.9108,-1.9108,-1.9108,-1.9108,-1.888,-1.8652,-1.8652,-1.8278,-1.7968,-1.7968,-1.7678,-1.7647,-1.8278,-1.8548,-1.8792,-1.9169,-1.9191,-1.9123,-1.905,-1.8634,-1.8341,-1.8341,-1.8208,-1.8093,-1.8093,-1.7902,-1.7781,-1.7781,-1.7611,-1.7473,-1.7473,-1.7112,-1.7095,-1.7473,-1.6786,-1.6582,-1.6916,-1.6582,-1.6392,-1.6402,-1.674,-1.6916,-2.3709,-2.4007,-2.4139,-2.439,-2.3977,-2.3517,-2.3444,-2.2574,-2.1745,-2.1683,-2.0643,-1.971,-1.9668,-1.9357,-1.9533,-2.0834,-2.1476,-2.2128,-2.306,-2.3588,-2.3712,-2.3246,-2.2822,-2.2542,-2.2501,-2.2097,-2.2014,-2.2428,-2.2915,-2.3381,-2.3826,-2.4291,-2.4487,-2.4466,-2.4466,-2.4281,-2.3805,-2.335,-2.2677,-2.1807,-2.1807,-2.1807,-2.1807,-2.1807,-2.1807,-2.1807,-2.1807,-2.1807,-2.1807,-2.1807,-2.1807,-2.1807,-2.1807,-2.1807,-2.1807,-2.1807,-2.1807,-2.1807,-2.1807,-2.1807,-2.1735,-2.129,-2.1155,-2.1062,-2.056,-2.0151,-1.9824,-1.9803,-1.9461,-1.9108,-1.9108,-1.9108,-1.9108,-1.9108,-1.9108,-1.9108,-1.9108,-1.8756,-1.8445,-1.8414,-1.7678,-1.7316,-1.8195,-1.8745,-1.9046,-1.9067,-1.8694,-1.8659,-1.9366,-1.901,-1.872,-1.872,-1.8292,-1.8011,-1.8011,-1.749,-1.7146,-1.7146,-1.6684,-1.6413,-1.6413,-1.6413,-1.6413,-1.6413,-1.6413,-1.6413,-1.6413,-1.6413,-1.6413,-1.6413,-1.6413,-1.6413,-2.3956,-2.474,-2.5266,-2.492,-2.4534,-2.397,-2.2931,-2.1931,-2.1,-1.9975,-1.9253,-1.8526,-1.7823,-1.8464,-1.9326,-2.0031,-2.1062,-2.2128,-2.306,-2.3588,-2.3712,-2.3246,-2.3391,-2.3256,-2.2563,-2.2387,-2.2232,-2.2004,-2.2729,-2.3236,-2.336,-2.4073,-2.4342,-2.4053,-2.4043,-2.366,-2.2853,-2.2387,-2.2035,-2.1807,-2.1807,-2.1807,-2.1807,-2.1807,-2.1807,-2.1807,-2.1807,-2.1807,-2.1807,-2.1807,-2.1807,-2.1807,-2.1807,-2.1807,-2.1807,-2.1807,-2.1807,-2.1807,-2.1807,-2.1807,-2.1787,-2.1662,-2.1631,-2.1538,-2.1073,-2.0617,-2.0182,-1.9886,-1.9461,-1.9108,-1.9108,-1.9108,-1.9108,-1.9108,-1.9108,-1.9108,-1.9108,-1.9015,-1.8828,-1.8476,-1.7936,-1.7595,-1.7823,-1.7967,-1.8185,-1.8538,-1.8486,-1.8468,-1.8659,-1.7968,-1.7469,-1.7469,-1.7084,-1.6835,-1.6835,-1.6694,-1.6609,-1.6609,-1.6488,-1.6413,-1.6413,-1.6413,-1.6413,-1.6413,-1.6413,-1.6413,-1.6413,-1.6413,-1.6413,-1.6413,-1.6413,-1.6413,-2.505,-2.5745,-2.6089,-2.5357,-2.4623,-2.3667,-2.2253,-2.105,-1.9882,-1.8723,-1.7957,-1.7284,-1.6552,-1.7233,-1.8134,-1.8764,-2.0182,-2.159,-2.2718,-2.3287,-2.3629,-2.3764,-2.366,-2.337,-2.2853,-2.2615,-2.2304,-2.1849,-2.248,-2.2884,-2.2884,-2.3557,-2.3836,-2.3588,-2.3577,-2.3225,-2.2501,-2.2035,-2.1807,-2.1807,-2.1807,-2.1807,-2.1807,-2.1807,-2.1807,-2.1807,0.0,-2.1807,-2.1807,-2.1807,-2.1807,-2.1807,-2.1807,-2.1807,-2.1807,-2.1807,-2.1807,-2.1807,-2.1807,-2.1807,-2.1807,-2.1807,-2.1807,-2.1756,-2.1497,-2.1093,-2.0679,-2.042,-1.9917,-1.9409,-1.9409,-1.9253,-1.9108,-1.9108,-1.9108,-1.9108,-1.9108,-1.9108,-1.8963,-1.8497,-1.835,-1.8163,-1.7771,-1.7854,-1.804,-1.8092,-1.8257,-1.8414,-1.8414,-1.7936,-1.7595,-1.7595,-1.7057,-1.6663,-1.6663,-1.6498,-1.6413,-1.6413,-1.6413,-1.6413,-1.6413,-1.6413,-1.6413,-1.6413,-1.6413,-1.6309,-1.6073,-1.6073,-1.5998,-1.5801,-1.5801,-1.5915,-2.6386,-2.672,-2.6694,-2.5683,-2.4509,-2.3167,-2.1612,-2.0058,-1.8673,-1.7709,-1.6829,-1.6102,-1.567,-1.6022,-1.6694,-1.7637,-1.9207,-2.0845,-2.2294,-2.2842,-2.3412,-2.4218,-2.367,-2.3163,-2.3101,-2.2739,-2.2304,-2.1849,-2.218,-2.2428,-2.249,-2.2936,-2.3163,-2.3101,-2.3039,-2.2811,-2.2408,-2.2004,-2.1807,-2.1807,-2.1807,-2.1807,-2.1807,-2.1807,-2.1807,-2.1807,-2.1807,-2.1807,-2.1807,-2.1807,-2.1807,-2.1807,-2.1807,-2.1807,-2.1807,-2.1807,-2.1807,-2.1807,-2.1807,-2.1807,-2.1807,-2.1807,-2.1807,-2.1807,-2.1807,-2.1476,-2.1114,-2.1114,-2.0503,-1.9865,-1.9813,-1.9502,-1.9181,-1.9119,-1.9108,-1.9108,-1.9108,-1.9108,-1.8984,-1.8579,-1.8776,-1.8733,-1.7915,-1.803,-1.8102,-1.775,-1.7999,-1.8226,-1.832,-1.8299,-1.8319,-1.8403,-1.7544,-1.7017,-1.7017,-1.6684,-1.6475,-1.6413,-1.6413,-1.6413,-1.6413,-1.6413,-1.6413,-1.6413,-1.635,-1.6122,-1.5691,-1.5628,-1.5421,-1.509,-1.509,-1.5339,-2.6478,-2.68,-2.6909,-2.589,-2.4817,-2.3493,-2.1488,-1.9565,-1.7894,-1.6827,-1.5877,-1.5214,-1.5132,-1.5804,-1.6817,-1.8061,-1.9202,-2.0529,-2.2252,-2.2563,-2.2811,-2.336,-2.3287,-2.3039,-2.2656,-2.2542,-2.2304,-2.1849,-2.188,-2.2097,-2.248,-2.2936,-2.3008,-2.2625,-2.2242,-2.2004,-2.1921,-2.1849,-2.1807,-2.1807,-2.1807,-2.1807,-2.1807,-2.1807,-2.1807,-2.1807,-2.1807,0.0,-2.1807,-2.1807,-2.1807,-2.1807,-2.1807,-2.1807,-2.1807,-2.1807,-2.1807,-2.1807,-2.1807,-2.1807,-2.1807,-2.1807,-2.1807,-2.1807,-2.1807,-2.1476,-2.1114,-2.1114,-2.0731,-2.0224,-1.9896,-1.9741,-1.9585,-1.9191,-1.9108,-1.9108,-1.9108,-1.9108,-1.9077,-1.8994,-1.8735,-1.8476,-1.8299,-1.7719,-1.7347,-1.7657,-1.744,-1.7378,-1.7771,-1.7812,-1.7988,-1.8372,-1.7544,-1.7017,-1.7017,-1.6944,-1.6738,-1.6433,-1.6413,-1.6413,-1.6413,-1.6413,-1.6413,-1.6413,-1.6029,-1.5773,-1.5691,-1.5308,-1.5277,-1.5566,-1.5566,-1.5842,-2.6501,-2.6645,-2.6645,-2.5899,-2.4281,-2.2477,-2.0963,-1.8825,-1.6884,-1.5884,-1.5121,-1.4562,-1.4324,-1.5038,-1.5949,-1.6858,-1.7947,-1.9344,-2.1155,-2.1414,-2.1859,-2.3049,-2.2977,-2.2739,-2.2511,-2.2501,-2.2304,-2.1849,-2.1807,-2.1901,-2.2128,-2.2346,-2.2366,-2.2149,-2.1921,-2.1807,-2.1807,-2.1807,-2.1807,-2.1807,-2.1807,-2.1807,-2.1807,-2.1807,-2.1807,-2.1807,-2.1807,-2.1807,-2.1807,-2.1807,-2.1807,-2.1807,-2.1807,-2.1807,-2.1807,-2.1807,-2.1807,-2.1807,-2.1807,-2.1807,-2.1807,-2.1807,-2.1807,-2.1807,-2.1807,-2.1652,-2.1476,-2.1476,-2.1145,-2.0731,-2.0524,-2.0286,-1.9996,-1.9575,-1.9285,-1.9108,-1.9108,-1.9108,-1.9108,-1.9108,-1.8922,-1.8694,-1.8455,-1.8019,-1.7657,-1.7378,-1.7358,-1.7368,-1.7347,-1.7347,-1.7513,-1.7999,-1.7626,-1.7275,-1.7027,-1.7017,-1.6831,-1.6444,-1.6413,-1.6413,-1.6413,-1.6413,-1.6413,-1.6413,-1.6184,-1.5804,-1.5328,-1.5101,-1.4863,-1.4614,-1.4863,-1.509,-2.6306,-2.6341,-2.6203,-2.5543,-2.3661,-2.1592,-2.0291,-1.819,-1.6196,-1.5085,-1.448,-1.4076,-1.3807,-1.4355,-1.5101,-1.5856,-1.6934,-1.8329,-2.0137,-2.0478,-2.1145,-2.2708,-2.2573,-2.2346,-2.2346,-2.2346,-2.2201,-2.1828,-2.1807,-2.1807,-2.1807,-2.1807,-2.1807,-2.1807,-2.1807,-2.1807,-2.1807,-2.1807,-2.1807,-2.1807,-2.1807,-2.1807,-2.1807,-2.1807,-2.1807,-2.1807,-2.1807,-2.1807,-2.1807,-2.1807,-2.1807,-2.1807,-2.1807,-2.1807,-2.1807,-2.1807,-2.1807,-2.1807,-2.1807,-2.1807,-2.1807,-2.1807,-2.1807,-2.1807,-2.1807,-2.1807,-2.1807,-2.1807,-2.1538,-2.1238,-2.1145,-2.0845,-2.0431,-1.9927,-1.9523,-1.9222,-1.9119,-1.9108,-1.9108,-1.9108,-1.9108,-1.8984,-1.8621,-1.8476,-1.8133,-1.7409,-1.7451,-1.742,-1.7058,-1.6924,-1.7006,-1.7378,-1.7502,-1.7409,-1.7048,-1.7017,-1.6831,-1.6444,-1.6413,-1.6413,-1.6413,-1.6413,-1.6413,-1.6413,-1.6309,-1.5905,-1.5152,-1.5023,-1.4651,-1.4066,-1.4377,-1.4594,-2.5647,-2.5784,-2.5543,-2.4579,-2.3546,-2.2101,-1.9519,-1.7853,-1.6386,-1.4722,-1.4003,-1.3772,-1.4179,-1.4314,-1.4935,-1.6614,-1.7347,-1.8329,-2.0137,-2.0757,-2.1269,-2.1859,-2.189,-2.1869,-2.1869,-2.1869,-2.1849,-2.1807,-2.1807,-2.1807,-2.1807,-2.1807,-2.1807,-2.1807,-2.1807,-2.1807,-2.1807,-2.1807,-2.1807,-2.1807,-2.1807,-2.1807,-2.1807,-2.1807,-2.1807,-2.1807,-2.1807,-2.1807,0.0,-2.1807,-2.1807,-2.1807,-2.1807,-2.1807,-2.1807,-2.1807,-2.1807,-2.1807,-2.1807,-2.1807,-2.1807,-2.1807,-2.1807,-2.1807,-2.1807,-2.1807,-2.1807,-2.1807,-2.1776,-2.1642,-2.1217,-2.1083,-2.0834,-2.0,-1.9761,-1.9616,-1.9191,-1.9108,-1.9108,-1.9108,-1.9108,-1.9088,-1.9046,-1.8683,-1.8383,-1.8268,-1.7575,-1.7058,-1.7017,-1.6694,-1.6456,-1.6498,-1.6841,-1.7058,-1.6987,-1.7017,-1.6831,-1.6444,-1.6413,-1.6413,-1.6413,-1.6413,-1.6413,-1.6413,-1.5998,-1.5711,-1.5628,-1.5088,-1.5057,-1.5494,-1.5352,-1.5625,-2.5096,-2.5233,-2.5024,-2.413,-2.281,-2.1173,-1.9009,-1.7294,-1.5829,-1.4557,-1.3941,-1.3648,-1.3834,-1.3865,-1.4314,-1.558,0.0,-1.6726,-1.8515,-1.9189,-1.9841,-2.0855,-2.1217,-2.1497,-2.1776,-2.1807,-2.1807,-2.1807,-2.1807,-2.1807,-2.1807,-2.1807,-2.1807,-2.1807,-2.1807,-2.1807,-2.1807,-2.1807,-2.1807,-2.1807,-2.1807,-2.1807,-2.1807,-2.1807,-2.1807,-2.1807,-2.1807,-2.1807,0.0,-2.1807,-2.1807,-2.1807,-2.1807,-2.1807,-2.1807,-2.1807,-2.1807,-2.1807,-2.1807,-2.1807,-2.1769,-2.1655,-2.1693,-2.1807,-2.1807,-2.1807,-2.1807,-2.1807,-2.1807,-2.1728,-2.1429,-2.1135,-2.0837,-2.0478,-1.9985,-1.9544,-1.9223,-1.9036,-1.8908,-1.8908,-1.9008,-1.9075,-1.8942,-1.8754,-1.8516,-1.8153,-1.7785,-1.7491,-1.7339,-1.6908,-1.665,-1.665,-1.6844,-1.6903,-1.6663,-1.6862,-1.6831,-1.6444,-1.6413,-1.6413,-1.6413,-1.6278,-1.621,-1.621,-1.5961,-1.5736,-1.5533,-1.5195,-1.509,-1.517,-1.5246,-1.5272,-2.412,-2.4361,-2.4242,-2.3268,-2.1944,-2.0314,-1.833,-1.6782,-1.5434,-1.4324,-1.3814,-1.3597,-1.3597,-1.3597,-1.3845,0.0,0.0,-1.5794,-1.7461,-1.8226,-1.9044,-2.0276,-2.0674,-2.1093,-2.1559,-2.1725,-2.1807,-2.1807,-2.1807,-2.1807,-2.1807,-2.1807,-2.1807,-2.1807,-2.1807,-2.1807,-2.1807,-2.1807,-2.1807,-2.1807,-2.1807,-2.1807,-2.1807,-2.1807,-2.1807,-2.1807,-2.1807,-2.1807,0.0,-2.1807,-2.1807,-2.1807,-2.1807,-2.1807,-2.1807,-2.1807,-2.1807,-2.1807,-2.1731,-2.1693,-2.1693,-2.1474,-2.1512,-2.1617,-2.1617,-2.1693,-2.1807,-2.1731,-2.1655,-2.1578,-2.1464,-2.1154,-2.088,-2.0748,-2.024,-1.9677,-1.9274,-1.9041,-1.887,-1.8738,-1.8841,-1.8875,-1.8741,-1.8707,-1.8572,-1.8137,-1.7986,-1.7817,-1.7653,-1.7216,-1.686,-1.6718,-1.6797,-1.6683,-1.63,-1.6547,-1.6588,-1.628,-1.6288,-1.6288,-1.6259,-1.6134,-1.6038,-1.6038,-1.5933,-1.5781,-1.5561,-1.5403,-1.528,-1.5141,-1.529,-1.5159,-2.257,-2.3075,-2.3108,-2.1745,-2.0962,-1.9859,-1.7474,-1.639,-1.5452,-1.3924,-1.3597,-1.3597,-1.3597,-1.3597,-1.3765,-1.4242,0.0,0.0,-1.7513,-1.8506,-1.944,-2.0317,-2.0395,-2.0581,-2.1073,-2.1538,-2.1807,-2.1807,-2.1807,-2.1807,-2.1807,-2.1807,-2.1807,-2.1807,-2.1807,-2.1807,-2.1807,-2.1807,-2.1807,-2.1807,-2.1807,-2.1807,-2.1807,-2.1807,-2.1807,-2.1807,-2.1807,-2.1807,0.0,-2.1807,-2.1807,-2.1807,-2.1807,-2.1807,-2.1807,-2.1807,-2.1807,-2.1769,-2.1578,-2.1502,-2.1474,-2.1282,-2.1205,-2.1215,-2.1215,-2.1464,-2.1769,-2.154,-2.1359,-2.1215,-2.1205,-2.1205,-2.1084,-2.0604,-2.0494,-2.0243,-1.9404,-1.9213,-1.9048,-1.8596,-1.8516,-1.8516,-1.8516,-1.8516,-1.8516,-1.8472,-1.8144,-1.7906,-1.7896,-1.7503,-1.703,-1.6548,-1.6497,-1.6327,-1.5954,-1.6038,-1.6038,-1.5914,-1.6038,-1.6038,-1.5914,-1.5885,-1.5885,-1.5885,-1.5885,-1.5885,-1.5885,-1.5759,-1.5759,-1.5875,-1.5759,-1.5691,-2.1454,-2.1624,-2.1237,-1.9943,-1.9538,-1.879,-1.6185,-1.5692,-1.534,-1.39,-1.3597,-1.3597,-1.3597,-1.3597,-1.3948,-1.507,0.0,0.0,-1.7513,-1.8506,-1.9326,-1.9938,-2.0793,-2.1424,-2.1569,-2.1714,-2.1807,-2.1807,-2.1807,-2.1807,-2.1807,-2.1807,-2.1807,-2.1807,-2.1807,-2.1807,-2.1807,-2.1807,-2.1807,-2.1807,-2.1807,-2.1807,-2.1807,-2.1807,-2.1807,-2.1807,-2.1807,-2.1807,-2.1807,-2.1807,-2.1807,-2.1807,-2.1807,-2.1807,-2.1807,-2.1807,-2.1693,-2.1578,-2.1512,-2.1397,-2.1244,-2.1061,-2.1089,-2.1167,-2.1022,-2.1167,-2.1397,-2.132,-2.1167,-2.1022,-2.1167,-2.1099,-2.0944,-2.0804,-2.0526,-2.018,-1.9755,-1.9304,-1.8944,-1.8805,-1.8614,-1.8482,-1.8371,-1.8371,-1.8313,-1.8178,-1.8069,-1.8004,-1.8171,-1.775,-1.7422,-1.7282,-1.6735,-1.6238,-1.5925,-1.5943,-1.5933,-1.5885,-1.5943,-1.5943,-1.5885,-1.5827,-1.5769,-1.5769,-1.5633,-1.5633,-1.5769,-1.5575,-1.5507,-1.5575,-1.5507,-1.5478,-1.9689,-2.0076,-1.9803,-1.8632,-1.8132,-1.7432,-1.544,-1.509,-1.4873,-1.3828,-1.3597,-1.3558,-1.3369,-1.3328,-1.3617,-1.4511,-1.4945,-1.5649,-1.7026,-1.8133,-1.9139,-1.9913,-2.0917,-2.1549,-2.1549,-2.1704,-2.1807,-2.1807,-2.1807,-2.1807,-2.1807,-2.1807,-2.1807,-2.1807,-2.1807,-2.1807,-2.1807,-2.1807,-2.1807,-2.1807,-2.1807,-2.1807,-2.1807,-2.1807,-2.1807,-2.1807,-2.1807,-2.1807,0.0,-2.1807,-2.1807,-2.1807,-2.1807,-2.1769,-2.1693,-2.1693,-2.154,-2.1397,-2.132,-2.1167,-2.1051,-2.0858,-2.0858,-2.0964,-2.0819,-2.0935,-2.1099,-2.1099,-2.0935,-2.0819,-2.0925,-2.0896,-2.078,-2.078,-2.0553,-2.0259,-1.9989,-1.9566,-1.9085,-1.8479,-1.8453,-1.8355,-1.7872,-1.7988,-1.8134,-1.8008,-1.7759,-1.7647,-1.7774,-1.7263,-1.6844,-1.6684,-1.6182,-1.5714,-1.5402,-1.5654,-1.5798,-1.573,-1.5788,-1.5798,-1.572,-1.5643,-1.5575,-1.5575,-1.5449,-1.5362,-1.5254,-1.4854,-1.4815,-1.5059,-1.5059,-1.5177,0.0,-1.8317,-1.86,-1.7629,-1.6753,-1.5914,-1.5086,-1.4562,0.0,-1.3662,-1.3514,-1.339,-1.3018,-1.2925,-1.2946,-1.308,-1.3845,-1.4925,-1.6309,-1.7719,-1.9065,-2.0333,-2.0891,-2.1207,-2.1166,-2.1549,-2.1807,-2.1807,-2.1807,-2.1807,-2.1807,-2.1807,-2.1807,-2.1807,-2.1807,-2.1807,-2.1807,-2.1807,-2.1807,-2.1807,-2.1807,-2.1807,-2.1807,-2.1807,-2.1807,0.0,-2.1807,-2.1807,0.0,-2.1807,-2.1807,-2.1769,-2.1769,-2.1655,-2.1464,-2.1464,-2.1359,-2.1167,-2.0945,-2.0906,-2.0867,-2.0654,-2.0605,-2.0605,-2.0605,-2.0731,-2.0867,-2.0867,-2.0731,-2.0605,-2.0605,-2.0605,-2.0605,-2.0605,-2.0566,-2.0372,-1.9935,-1.9781,-1.9267,-1.7797,-1.8016,-1.8149,-1.7121,-1.7445,-1.7866,-1.7906,-1.7295,-1.6828,-1.6828,-1.6167,-1.5547,-1.5163,-1.5112,-1.4951,-1.4586,-1.5256,-1.5596,-1.5371,-1.5595,-1.5644,-1.541,-1.541,-1.5381,-1.5323,-1.5294,-1.5001,-1.444,-1.3812,-1.3812,-1.444,-1.444,-1.4736,-1.5167,0.0,-1.6133,-1.5592,-1.5363,-1.5039,0.0,-1.3834,-1.3628,-1.3163,-1.2813,-1.2784,-1.3328,-1.3142,-1.3369,-1.4811,-1.5515,-1.6249,-1.7244,-1.9178,-2.0721,-2.1393,-2.189,-2.2035,-2.1683,-2.1745,-2.1807,-2.1807,-2.1807,-2.1807,-2.1807,-2.1807,-2.1807,-2.1807,-2.1807,-2.1807,-2.1807,-2.1807,-2.1807,-2.1807,-2.1807,-2.1807,-2.1807,-2.1807,-2.1807,-2.1807,-2.1807,-2.1807,-2.1807,-2.1807,-2.1693,-2.1578,-2.1578,-2.1464,-2.1282,-2.1282,-2.1128,-2.0945,-2.0906,-2.0819,-2.0654,-2.0605,-2.0605,-2.0605,-2.0605,-2.0644,-2.0654,-2.0654,-2.0644,-2.0605,-2.0605,-2.0605,-2.0605,-2.0605,-2.0089,-1.959,-1.9448,-1.8674,-1.7893,-1.7487,-1.7284,-1.7183,-1.7251,-1.6902,-1.6732,-1.7091,-1.6481,-1.5991,-1.5991,-1.5816,-1.5676,-1.5556,-1.5291,-1.5061,-1.4976,-1.538,-1.5436,-1.5029,-1.5637,-1.5821,-1.543,-1.541,-1.5177,-1.4706,-1.4222,-1.3893,-1.3713,-1.3571,-1.3571,-1.3752,-1.3752,-1.3803,-1.3806,-1.4464,-1.5251,-1.4968,-1.4627,-1.4231,-1.3734,-1.33,-1.2927,-1.2679,-1.2452,-1.2431,-1.2929,-1.2958,-1.3297,-1.4542,-1.5484,-1.6674,-1.8413,-2.0079,-2.128,-2.1745,-2.2025,-2.2087,-2.1828,-2.1994,-2.2035,-2.1828,-2.2004,-2.2035,-2.1818,-2.1807,-2.1807,-2.1807,-2.1807,-2.1807,-2.1807,-2.1807,-2.1807,-2.1807,-2.1807,-2.1769,-2.1655,-2.1655,-2.1617,-2.1502,-2.1502,-2.1502,-2.1502,-2.1502,-2.1474,-2.1359,-2.1359,-2.1244,-2.1061,-2.1061,-2.0935,-2.078,-2.078,-2.0693,-2.0605,-2.0605,-2.0333,-2.001,-2.001,-1.9726,-1.9481,-1.9883,-2.001,-2.001,-2.001,-2.0284,-2.0489,-2.0089,-1.9657,-1.9183,-1.8776,-1.8162,-1.7528,-1.6965,-1.6929,-1.6945,-1.6627,-1.6493,-1.6476,-1.6563,-1.5931,-1.5369,-1.5232,-1.4895,-1.4689,-1.4689,-1.4494,-1.4382,-1.4382,-1.4838,-1.5031,-1.4742,-1.5129,-1.5249,-1.4998,-1.5327,-1.5263,-1.4775,-1.393,-1.3347,-1.3039,-1.2873,-1.2896,-1.3039,-1.3213,-1.345,-1.317,-1.4004,-1.4987,-1.4733,-1.42,-1.3679,-1.3607,-1.2969,-1.239,-1.239,-1.2328,-1.237,-1.2578,-1.2875,-1.3307,-1.3917,-1.5194,-1.7035,-1.9637,-2.0752,-2.1445,-2.1766,-2.1932,-2.1994,-2.1921,-2.2201,-2.2263,-2.1932,-2.2211,-2.2221,-2.1828,-2.1807,-2.1807,-2.1807,-2.1807,-2.1807,-2.1769,-2.1769,-2.1769,-2.1769,-2.1769,-2.1655,-2.1464,-2.1464,-2.1359,-2.1205,0.0,0.0,-2.1205,-2.1205,-2.1167,-2.1167,-2.1167,-2.1022,-2.0867,-2.0867,-2.0741,-2.0605,-2.0605,-2.0605,-2.0566,-2.044,-1.9893,-1.9262,-1.9134,-1.8487,-1.7957,-1.8687,-1.9015,-1.9094,-1.9094,-1.9648,-2.001,-1.9292,-1.9015,-1.8687,-1.7957,-1.7715,-1.73,-1.6277,-1.6619,-1.6789,-1.5839,-1.6092,-1.635,-1.6124,-1.5433,-1.4846,-1.4548,-1.3914,-1.3492,-1.3492,-1.3492,-1.3492,-1.3492,-1.4086,-1.4398,-1.4355,-1.4496,-1.4569,-1.4518,-1.4991,-1.5145,-1.4867,-1.3868,-1.3079,-1.2484,-1.222,-1.2213,-1.2492,-1.2789,-1.3228,-1.3424,-1.3952,-1.4246,-1.3434,-1.37,-1.4097,-1.3679,-1.3183,-1.2801,-1.2801,-1.2545,-1.2661,-1.3776,-1.4045,-1.45,-1.5753,-1.7118,-1.8661,-2.0627,-2.1704,-2.2159,-2.1849,-2.2501,-2.2822,-2.2428,-2.2097,-2.2045,-2.2366,-2.2097,-2.188,-2.1807,-2.1807,-2.1807,-2.1807,-2.1807,-2.1731,-2.154,-2.1693,-2.1693,-2.154,-2.154,-2.1436,-2.1244,-2.1244,-2.1244,-2.1205,0.0,-2.1205,-2.1205,-2.1205,-2.1099,-2.0945,-2.0945,-2.0819,-2.0644,-2.0644,-2.0644,-2.0605,-2.0605,-2.0605,-2.0489,-1.9736,-1.942,-1.9173,-1.8399,-1.7594,-1.6944,-1.7058,-1.7634,-1.8198,-1.8198,-1.8318,-1.8359,-1.8238,-1.7634,-1.7058,-1.6935,-1.6304,-1.5733,-1.5564,-1.5632,-1.5766,-1.5976,-1.5564,-1.5298,-1.5634,-1.4812,-1.4141,-1.4096,-1.3734,-1.3492,-1.3492,-1.3492,-1.3492,-1.3492,-1.3601,-1.3665,-1.3633,-1.45,-1.4874,-1.4494,-1.4065,-1.3801,-1.3745,-1.3019,-1.2602,-1.2506,-1.2457,-1.2457,-1.2506,-1.255,-1.2647,-1.2523,-1.3207,-1.3752,-1.307,-1.3807,-1.4624,-1.4417,-1.3807,-1.3276,-1.3276,-1.3134,-1.3258,-1.4148,-1.4718,-1.5659,-1.7563,-1.8492,-1.9504,-2.0885,-2.1694,-2.2045,-2.1828,-2.218,-2.2356,-2.2149,-2.2159,-2.2159,-2.2128,-2.2159,-2.2066,-2.1818,-2.1807,-2.1769,-2.1655,-2.1655,-2.1428,-2.1014,-2.1117,-2.1192,-2.1359,-2.1359,-2.1244,-2.1022,-2.1022,-2.0974,-2.0886,0.0,-2.0886,-2.0886,-2.0886,-2.0809,-2.0731,-2.0731,-2.0693,-2.0605,-2.0605,-2.0605,-2.0605,-2.0605,-2.0294,-1.9814,-1.942,-1.8647,-1.7836,-1.7432,-1.6706,-1.5982,-1.5982,-1.6624,-1.7302,-1.7302,-1.7634,-1.7876,-1.7432,-1.6984,-1.6576,-1.6105,-1.5665,-1.5389,-1.5389,-1.5389,-1.5462,-1.5669,-1.5401,-1.5168,-1.5227,-1.4786,-1.4435,-1.4306,-1.396,-1.3762,-1.3762,-1.3601,-1.3492,-1.3492,-1.3492,-1.3492,-1.3492,-1.3948,-1.4315,-1.4555,-1.3871,-1.3604,-1.3813,-1.3292,-1.2877,-1.2485,-1.2667,-1.2694,-1.2492,-1.2701,-1.2782,-1.1975,-1.2586,-1.3269,-1.3101,-1.3972,-1.4894,-1.5111,-1.443,-1.3807,-1.4001,-1.3952,-1.4003,-1.4476,-1.5437,-1.6786,-1.8844,-1.9343,-1.9819,-2.091,-2.1321,-2.1604,-2.178,-2.1775,-2.1771,-2.1886,-2.2113,-2.2154,-2.1907,-2.2123,-2.2102,-2.1752,-2.1731,-2.1655,-2.1436,-2.1334,-2.1035,-2.0514,-2.0514,-2.0675,-2.0968,-2.0968,-2.0913,-2.0819,-2.0819,-2.0741,-2.0605,-2.0605,-2.0605,-2.0605,-2.0605,-2.0605,-2.0605,-2.0605,-2.0605,-2.0605,-2.0605,-2.0489,-2.0284,-2.0284,-1.9726,-1.8975,-1.8767,-1.7796,-1.6657,-1.646,-1.594,-1.5389,-1.5389,-1.5865,-1.6419,-1.6419,-1.687,-1.7237,-1.6542,-1.6419,-1.6221,-1.5548,-1.5389,-1.5389,-1.5389,-1.5389,-1.5389,-1.5389,-1.5389,-1.5301,-1.5053,-1.4951,-1.4812,-1.4611,-1.4296,-1.4108,-1.4027,-1.3762,-1.3579,-1.3506,-1.3492,-1.3492,-1.3492,-1.3492,-1.3739,-1.4322,-1.3811,-1.3655,-1.3933,-1.3641,-1.325,-1.2711,-1.3001,-1.2994,-1.276,-1.3001,-1.3126,-1.2698,-1.2596,-1.2576,-1.3362,-1.3938,-1.4583,-1.5442,-1.4881,-1.4395,-1.5201,-1.4955,-1.4772,-1.5311,-1.6493,-1.785,-1.9231,-1.9329,-1.9602,-2.0757,-2.079,-2.0947,-2.1696,-2.1654,-2.1709,-2.2135,-2.1827,-2.1755,-2.2143,-2.1816,-2.1543,-2.1512,-2.1512,-2.1436,-2.1244,-2.085,-2.0534,-2.024,-2.024,-2.0222,-2.0252,-2.0252,-2.0394,-2.0605,-2.0605,-2.0605,-2.0605,-2.0605,-2.0605,-2.0605,-2.0605,-2.0605,-2.0605,-2.0605,-2.0605,-2.0605,-2.0605,-2.0089,-1.9381,-1.9381,-1.8816,-1.7957,-1.7139,-1.6821,-1.6535,-1.5748,-1.5465,-1.5389,-1.5389,-1.5472,-1.5506,-1.5506,-1.5548,-1.559,-1.5506,-1.5506,-1.5465,-1.5431,-1.5389,-1.5389,-1.5389,-1.5389,-1.5389,-1.5389,-1.5389,-1.5382,-1.5352,-1.5097,-1.4893,-1.4871,-1.4633,-1.4357,-1.4011,-1.396,-1.3821,-1.3521,-1.3492,-1.3492,-1.3492,-1.3492,-1.3528,-1.3564,-1.3528,-1.3521,-1.3528,-1.3521,-1.347,-1.3426,-1.3448,-1.3448,-1.3426,-1.3448,-1.3455,-1.2058,-1.2343,-1.2662,-1.2806,-1.3511,-1.4355,-1.5057,-1.5324,-1.5566,-1.6074,-1.5867,-1.572,-1.6227,-1.6614,-1.7329,-1.8766,-1.8836,-1.9056,-2.0129,-2.0194,-2.0281,-2.0595,-2.0927,-2.1153,-2.1212,-2.1373,-2.1507,-2.1563,-2.1411,-2.132,-2.132,-2.132,-2.1205,-2.1022,-2.0574,-2.026,-2.0025,-1.976,-1.976,-2.0025,-2.03,-2.0516,-2.0605,-2.0605,-2.0605,-2.0605,-2.0605,-2.0605,-2.0605,-2.0605,-2.0605,-2.0605,-2.0605,-2.0284,-1.9775,-1.9775,-1.9253,-1.8487,-1.8487,-1.7917,-1.7147,-1.6821,-1.6345,-1.5824,-1.5506,-1.5389,-1.5389,-1.5389,-1.5389,-1.5389,-1.5389,-1.5389,-1.5389,-1.5389,-1.5389,-1.5389,-1.5389,-1.5389,-1.5389,-1.5389,-1.5389,-1.5389,-1.5389,-1.5389,-1.5389,-1.5389,-1.5279,-1.5206,-1.5206,-1.4922,-1.4714,-1.455,-1.4223,-1.3931,-1.3806,-1.3616,-1.3492,-1.3492,-1.3492,-1.3492,-1.3492,-1.3492,-1.3492,-1.3492,-1.3492,-1.3492,-1.3492,-1.3492,-1.3492,-1.3492,-1.3492,-1.3492,-1.1871,-1.2209,-1.2589,-1.2398,-1.3156,-1.4069,-1.4506,-1.5174,-1.5942,-1.6633,-1.6483,-1.6368,-1.6853,-1.6804,-1.7054,-1.8202,-1.8303,-1.859,-1.9483,-1.9441,-1.9392,-1.9698,-1.9943,-2.0031,-1.9874,-2.0265,-2.0547,-2.0683,-2.0683,-2.0809,-2.1089,-2.1099,-2.1012,-2.0819,-2.0336,-2.0025,-1.9912,-1.9629,-1.9629,-1.9922,-2.04,-2.0605,-2.0605,-2.0605,-2.0605,-2.0605,-2.0605,-2.0605,-2.0605,-2.0605,-2.0605,-2.0566,-2.0284,-1.9814,-1.9262,-1.8975,-1.8318,-1.7594,-1.7594,-1.7025,-1.6304,-1.6304,-1.5906,-1.5389,-1.5389,-1.5389,-1.5389,-1.5389,-1.5389,-1.5389,-1.5389,-1.5389,-1.5389,-1.5389,-1.5389,-1.5389,-1.5389,-1.5389,-1.5389,-1.5389,-1.5389,-1.5389,-1.5389,-1.5389,-1.5389,-1.5389,-1.5389,-1.5389,-1.5389,-1.5192,-1.5017,-1.4915,-1.4457,-1.4174,-1.4174,-1.3836,-1.3653,-1.3653,-1.355,-1.3492,-1.3492,-1.3492,-1.3492,-1.3492,-1.3492,-1.3492,-1.3492,-1.3492,-1.3492,-1.3492,-1.3492,-1.3492,-1.239,-1.2276,-1.227,-1.2204,-1.291,-1.3664,-1.3949,-1.4381,-1.5176,-1.6856,-1.6839,-1.666,-1.7117,-1.7144,-1.7225,-1.7647,-1.7878,-1.8233,-1.8882,-1.8442,-1.8304,-1.9186,-1.8687,-1.8287,-1.8301,-1.8301,-1.8669,-1.952,-1.9559,-1.9971,-2.0829,-2.0867,-2.0819,-2.0595,-2.0137,-1.9902,-1.9902,-1.9902,-1.9902,-1.9912,-2.0352,-2.0605,-2.0605,-2.0605,-2.0605,-2.0605,-2.0605,-2.0605,-2.0595,-2.0595,-2.0595,-2.0489,-1.9618,-1.9262,-1.9183,-1.8327,-1.7432,-1.6698,-1.6698,-1.6098,-1.5389,-1.5389,-1.5389,-1.5389,-1.5389,-1.5389,-1.5389,-1.5389,-1.5389,-1.5389,-1.5389,-1.5389,-1.5389,-1.5389,-1.5389,-1.5389,-1.5389,-1.5389,-1.5389,-1.5389,-1.5389,-1.5389,-1.5389,-1.5389,-1.5389,-1.5389,-1.5389,-1.5389,-1.5389,-1.5389,-1.5265,-1.4944,-1.4662,-1.4511,-1.4511,-1.421,-1.3989,-1.3989,-1.3682,-1.3506,-1.3492,-1.3492,-1.3492,-1.3492,-1.3492,-1.3492,-1.3492,-1.3492,-1.3492,-1.3492,-1.3492,-1.3492,-1.153,-1.177,-1.2163,-1.1911,-1.292,-1.3953,-1.4061,-1.4633,-1.5483,-1.6455,-1.6939,-1.7067,-1.6633,-1.6781,-1.7006,-1.7119,-1.7428,-1.7811,-1.8238,-1.7878,-1.7668,-1.7942,-1.7902,-1.7813,-1.7674,-1.806,-1.8341,-1.8479,-1.8479,-1.8847,-1.9736,-1.9784,-1.9877,-2.0117,-1.9202,-1.8946,-1.9473,-1.8955,-1.8955,-1.9482,-2.0253,-2.0605,-2.0605,-2.0605,-2.0605,-2.0605,-2.0605,-2.0391,-2.0069,-1.9449,-1.9026,-1.8758,-1.8487,-1.7997,-1.7432,-1.7188,-1.6542,-1.5782,-1.5782,-1.5624,-1.5389,-1.5389,-1.5389,-1.5389,-1.5389,-1.5389,-1.5389,-1.5389,-1.5389,-1.5389,-1.5389,-1.5389,-1.5389,-1.5389,-1.5389,-1.5389,-1.5389,-1.5389,-1.5389,-1.5389,-1.5389,-1.5389,-1.5389,-1.5389,-1.5389,-1.5389,-1.5389,-1.5389,-1.5389,-1.5389,-1.5352,-1.525,-1.4951,-1.4761,-1.4761,-1.4509,-1.4364,-1.4364,-1.4269,-1.3975,-1.3514,-1.3492,-1.3492,-1.3492,-1.3492,-1.3492,-1.3492,-1.3492,-1.3492,-1.3492,-1.3492,-1.3492,-1.2026,-1.2371,-1.2742,-1.2726,-1.342,-1.4169,-1.4468,-1.5183,-1.5869,-1.6272,-1.6742,-1.6922,-1.6422,-1.6533,-1.6701,-1.6855,-1.7227,-1.7603,-1.794,-1.7708,-1.7424,-1.7147,-1.7172,-1.7049,-1.6632,-1.6944,-1.7229,-1.7472,-1.7371,-1.7655,-1.8535,-1.8461,-1.8495,-1.8741,-1.8089,-1.7933,-1.8378,-1.7933,-1.7933,-1.8378,-1.891,-1.9237,-1.9366,-1.9856,-1.9837,-1.9347,-1.9218,-1.9097,-1.8907,-1.8371,-1.8097,-1.7957,-1.7634,-1.7147,-1.6657,-1.6304,-1.5865,-1.5389,-1.5389,-1.5389,-1.5389,-1.5389,-1.5389,-1.5389,-1.5389,-1.5389,-1.5389,-1.5389,-1.5389,-1.5389,-1.5389,-1.5389,-1.5389,-1.5389,-1.5389,-1.5389,-1.5389,-1.5389,-1.5389,-1.5389,-1.5389,-1.5389,-1.5389,-1.5389,-1.5389,-1.5389,-1.5389,-1.5389,-1.5389,-1.5389,-1.5389,-1.5389,-1.5214,-1.5097,-1.5097,-1.4845,-1.4655,-1.4655,-1.4577,-1.4328,-1.3894,-1.3762,-1.3631,-1.3499,-1.3492,-1.3492,-1.3492,-1.3492,-1.3492,-1.3492,-1.3419,-1.3382,-1.3109,-1.3375,-1.3591,-1.4043,-1.4154,-1.4338,-1.5085,-1.5753,-1.6257,-1.6291,-1.637,-1.6433,-1.639,-1.637,-1.6453,-1.6816,-1.7175,-1.7496,-1.7806,-1.7632,-1.7285,-1.6683,-1.6396,-1.6026,-1.5421,-1.5316,-1.5659,-1.6448,-1.6229,-1.6442,-1.7303,-1.7047,-1.6879,-1.692,-1.6891,-1.6865,-1.6868,-1.6865,-1.6865,-1.6868,-1.6946,-1.7097,-1.7338,-1.8521,-1.8503,-1.7433,-1.7092,-1.7097,-1.7342,-1.7342,-1.7485,-1.7624,-1.6887,-1.6576,-1.6501,-1.5707,-1.5389,-1.5389,-1.5389,-1.5389,-1.5389,-1.5389,-1.5389,-1.5389,-1.5389,-1.5389,-1.5389,-1.5389,-1.5389,-1.5389,-1.5389,-1.5389,-1.5389,-1.5389,-1.5389,-1.5389,-1.5389,-1.5389,-1.5389,-1.5389,-1.5389,-1.5389,-1.5389,-1.5389,-1.5389,-1.5389,-1.5389,-1.5389,-1.5389,-1.5389,-1.5389,-1.5389,-1.5389,-1.5389,-1.5389,-1.5119,-1.4944,-1.4944,-1.4714,-1.4545,-1.4509,-1.4201,-1.3887,-1.3587,-1.3579,-1.3579,-1.3587,-1.3579,-1.3543,-1.3543,-1.3359,-1.3242,-1.1084,-1.173,-1.2673,-1.3104,-1.3876,-1.4748,-1.5489,-1.5797,-1.6002,-1.6321,-1.6584,-1.6704,-1.6441,-1.6593,-1.6721,-1.6544,-1.6547,-1.6579,-1.6663,-1.63,-1.6004,-1.5844,-1.5488,-1.5165,-1.5002,-1.4823,-1.4788,-1.4978,-1.4919,-1.5203,-1.6023,-1.6027,-1.6158,-1.6512,-1.5959,-1.5753,-1.5985,-1.5781,-1.5781,0.0,-1.665,-1.6522,-1.5664,-1.6935,-1.7369,-1.7075,-1.6704,-1.6375,-1.61,-1.6039,-1.5827,-1.5584,-1.5644,-1.5665,-1.5665,-1.5465,-1.5389,-1.5389,-1.5389,-1.5389,-1.5389,-1.5389,-1.5389,-1.5389,-1.5389,-1.5389,-1.5389,-1.5389,-1.5389,-1.5389,-1.5389,-1.5389,-1.5389,-1.5389,-1.5389,-1.5389,-1.5389,-1.5389,-1.5389,-1.5389,-1.5389,-1.5389,-1.5389,-1.5389,-1.5389,-1.5389,-1.5389,-1.5389,-1.5389,-1.5389,-1.5389,-1.5389,-1.5389,-1.5389,-1.5389,-1.5323,-1.5279,-1.5279,-1.5221,-1.502,-1.4604,-1.4248,-1.4125,-1.426,-1.4099,-1.406,-1.4298,-1.406,-1.3976,-1.3976,-1.3775,-1.3659,-1.1398,-1.2024,-1.273,-1.3341,-1.4081,-1.4829,-1.5394,-1.5668,-1.5857,-1.6081,-1.6096,-1.6018,-1.5861,-1.5878,-1.5966,-1.6097,-1.5989,-1.6012,-1.6253,-1.5833,-1.5489,-1.5379,-1.5063,-1.4825,-1.4714,-1.4567,-1.4511,-1.4511,-1.4364,-1.4453,-1.4851,-1.4735,-1.4745,-1.5013,-1.4655,-1.4496,-1.4661,-1.4525,-1.4525,-1.4661,-1.5101,-1.4996,-1.4361,-1.5178,-1.5562,-1.5546,-1.5157,-1.4946,-1.4896,-1.5034,-1.4995,-1.4936,-1.5265,-1.5389,-1.5389,-1.5389,-1.5389,-1.5389,-1.5389,-1.5389,-1.5389,-1.5389,-1.5389,-1.5389,-1.5389,-1.5389,-1.5389,-1.5389,-1.5389,-1.5389,-1.5389,-1.5389,-1.5389,-1.5389,-1.5389,-1.5389,-1.5389,-1.5389,-1.5389,-1.5389,-1.5389,-1.5389,-1.5389,-1.5389,-1.5389,-1.5257,-1.5264,-1.5215,-1.5082,-1.5041,-1.5041,-1.5041,-1.5041,-1.5041,-1.5041,-1.5173,-1.5215,-1.5082,-1.5173,-1.5052,-1.4674,-1.4382,-1.4205,-1.4191,-1.402,-1.4059,-1.4301,-1.4059,-1.402,-1.4098,-1.3777,-1.366,-1.1931,-1.2526,-1.2985,-1.3874,-1.4354,-1.4675,-1.5043,-1.542,-1.5703,-1.5703,-1.5455,-1.524,-1.5204,-1.5034,-1.5041,-1.5516,-1.541,-1.5425,-1.5866,-1.5462,-1.5088,-1.495,-1.4749,-1.4602,-1.4423,-1.4372,-1.4342,-1.4342,-1.4048,-1.3894,-1.3894,-1.3638,-1.3492,-1.3492,-1.3492,-1.3492,-1.3492,-1.3492,-1.3492,-1.3492,-1.3492,-1.3492,-1.3506,-1.3777,-1.3968,-1.3967,-1.3638,-1.3682,-1.4042,-1.4372,-1.4626,-1.4856,-1.5236,-1.5389,-1.5389,-1.5389,-1.5389,-1.5389,-1.5389,-1.5389,-1.5389,-1.5389,-1.5389,-1.5389,-1.5389,-1.5389,-1.5396,-1.5455,-1.5433,-1.5411,-1.552,-1.5469,-1.5403,-1.5455,-1.5425,-1.5389,-1.5389,-1.5389,-1.5389,-1.5347,-1.5347,-1.5347,-1.5347,-1.5347,-1.5257,-1.5048,-1.5048,-1.4957,-1.4734,-1.4692,-1.4692,-1.4692,-1.4692,-1.4692,-1.4692,-1.4915,-1.4957,-1.4692,-1.4915,-1.4915,-1.465,-1.4482,-1.4248,-1.3872,-1.3898,-1.4017,-1.4216,-1.4017,-1.3978,-1.4136,-1.3779,-1.362,-0.9997,-1.1107,-1.2583,-1.38,-1.4135,-1.4273,-1.4667,-1.5035,-1.5292,-1.5292,-1.5383,-1.5426,-1.524,-1.5034,-1.488,-1.4776,-1.4488,-1.4323,-1.4369,-1.4268,-1.4192,-1.4161,-1.4124,-1.4086,-1.4086,-1.3792,-1.3623,-1.3623,-1.3587,-1.3558,-1.3558,-1.3521,-1.3492,-1.3492,-1.3492,-1.3492,-1.3492,-1.3492,-1.3492,-1.3492,-1.3492,-1.3492,-1.3492,-1.3543,-1.3718,-1.3967,-1.3638,-1.3682,-1.4042,-1.4372,-1.4533,-1.4589,-1.5196,-1.5389,-1.5389,-1.5389,-1.5389,-1.5389,-1.5389,-1.5389,-1.5389,-1.5389,-1.5389,-1.5389,-1.5389,-1.5389,-1.5447,-1.5767,-1.5608,-1.5513,-1.6104,-1.584,-1.5462,-1.5739,-1.5593,-1.5389,-1.5389,-1.5389,-1.5347,-1.5173,-1.5131,-1.5131,-1.5131,-1.5131,-1.5041,-1.4783,-1.4741,-1.4734,-1.4692,-1.4692,-1.4692,-1.4692,-1.4692,-1.4692,-1.4692,-1.4734,-1.4734,-1.4692,-1.4734,-1.465,-1.444,-1.4398,-1.428,-1.4052,-1.4247,-1.44,-1.4615,-1.44,-1.4317,-1.4358,-1.4129,-1.401,-1.0459,-1.143,-1.2459,-1.3555,-1.3974,-1.4087,-1.4096,-1.4378,-1.4664,-1.4729,-1.4661,-1.4649,-1.4816,-1.4541,-1.4297,-1.4317,-1.4101,-1.3964,-1.4093,-1.3866,-1.3711,-1.3711,-1.3711,-1.3711,-1.3711,-1.3579,-1.3492,-1.3492,-1.3492,-1.3492,-1.3492,-1.3492,-1.3492,-1.3492,-1.3492,-1.3492,-1.3492,-1.3492,-1.3492,-1.3492,-1.3492,-1.3492,-1.3492,-1.3492,-1.3675,-1.3975,-1.3828,-1.3953,-1.4306,-1.4445,-1.4575,-1.4765,-1.5002,-1.5228,-1.5389,-1.5389,-1.5389,-1.5389,-1.5389,-1.5389,-1.5389,-1.5389,-1.5389,-1.5389,-1.5389,-1.5513,-1.5688,-1.5877,-1.5935,-1.6016,-1.6338,-1.6162,-1.5994,-1.6133,-1.593,-1.5749,-1.5749,-1.5467,-1.5215,-1.5131,-1.4999,-1.4908,-1.509,-1.4999,-1.4783,-1.4566,-1.4524,-1.4482,-1.437,-1.437,-1.437,-1.437,-1.437,-1.437,-1.437,-1.4489,-1.4489,-1.437,-1.4489,-1.444,-1.4243,-1.4243,-1.4208,-1.4088,-1.4208,-1.4321,-1.4524,-1.4321,-1.4279,-1.4398,-1.4208,-1.4088,-1.0925,-1.1551,-1.1981,-1.3127,-1.3463,-1.3526,-1.3529,-1.365,-1.386,-1.4086,-1.3918,-1.3843,-1.4265,-1.4047,-1.3826,-1.392,-1.3819,-1.379,-1.392,-1.3674,-1.3492,-1.3492,-1.3492,-1.3492,-1.3492,-1.3492,-1.3492,-1.3492,-1.3492,-1.3492,-1.3492,-1.3492,-1.3492,-1.3492,-1.3492,-1.3492,-1.3492,-1.3492,-1.3492,-1.3492,-1.3492,-1.3492,-1.3492,-1.3492,-1.3718,-1.4137,-1.4056,-1.421,-1.4518,-1.4553,-1.4728,-1.4907,-1.4995,-1.517,-1.5389,-1.5389,-1.5389,-1.5389,-1.5389,-1.5389,-1.5389,-1.5389,-1.5389,-1.5403,-1.5484,-1.5681,-1.595,-1.6111,-1.6257,-1.6448,-1.6572,-1.6491,-1.6389,-1.6432,-1.6218,-1.5983,-1.5887,-1.5481,-1.5135,-1.5141,-1.4909,-1.4796,-1.4887,-1.4741,-1.4594,-1.4458,-1.4368,-1.4306,-1.4231,-1.4135,-1.4088,-1.4088,-1.4088,-1.4088,-1.4088,-1.4243,-1.4237,-1.413,-1.4243,-1.4243,-1.413,-1.4088,-1.4088,-1.4088,-1.4088,-1.4166,-1.4321,-1.4166,-1.4166,-1.4321,-1.4166,-1.4088,-1.044,-1.0644,-1.0731,-1.251,-1.2478,-1.2242,-1.3109,-1.2998,-1.2842,-1.3331,-1.3279,-1.324,-1.3585,-1.3744,-1.3754,-1.3572,-1.3528,-1.3528,-1.3535,-1.3492,-1.3492,-1.3492,-1.3492,-1.3492,-1.3492,-1.3492,-1.3492,-1.3492,-1.3492,-1.3492,-1.3492,-1.3492,-1.3492,-1.3492,-1.3492,-1.3492,-1.3492,-1.3492,-1.3492,-1.3492,-1.3492,-1.3492,-1.3492,-1.3492,-1.3843,-1.4467,-1.4152,-1.421,-1.4533,-1.4754,-1.4885,-1.4936,-1.5243,-1.5374,-1.5389,-1.5389,-1.5389,-1.5389,-1.5389,-1.5389,-1.5389,-1.5389,-1.5389,-1.5447,-1.5796,-1.5906,-1.6038,-1.6683,-1.6639,-1.6506,-1.7121,-1.6828,-1.6403,-1.6497,-1.6249,-1.5938,-1.5702,-1.5466,-1.528,-1.5194,-1.5023,-1.4804,-1.4488,-1.4433,-1.4409,-1.4492,-1.4262,-1.4188,-1.4462,-1.4255,-1.4088,-1.4088,-1.4088,-1.4088,-1.4088,-1.413,-1.413,-1.4088,-1.413,-1.413,-1.4088,-1.4088,-1.4088,-1.4088,-1.4088,-1.413,-1.413,-1.413,-1.413,-1.413,-1.4088,-1.4088,-0.9664,-1.0103,-1.0414,-1.1318,-1.1723,-1.1849,-1.1622,-1.1772,-1.2033,-1.2352,-1.2404,-1.2539,-1.301,-1.321,-1.3322,-1.3499,-1.3492,-1.3492,-1.3492,-1.3492,-1.3492,-1.3492,-1.3492,-1.3492,-1.3492,-1.3492,-1.3492,-1.3492,-1.3492,-1.3492,-1.3492,-1.3492,-1.3492,-1.3492,-1.3492,-1.3492,-1.3492,-1.3492,-1.3492,-1.3492,-1.3492,-1.3492,-1.3492,-1.3492,-1.3623,-1.385,-1.3945,-1.4399,-1.5065,-1.4765,-1.4757,-1.4915,-1.5031,-1.5075,-1.5104,-1.5309,-1.5389,-1.5389,-1.5389,-1.5389,-1.5389,-1.5389,-1.5389,-1.5447,-1.5818,-1.6052,-1.6345,-1.6778,-1.6961,-1.704,-1.722,-1.7157,-1.6926,-1.6625,-1.6476,-1.626,-1.5836,-1.5406,-1.5153,-1.5222,-1.5113,-1.4953,-1.497,-1.4862,-1.4808,-1.4834,-1.4556,-1.4402,-1.4502,-1.4269,-1.4088,-1.4088,-1.4088,-1.4088,-1.4088,-1.4088,-1.4088,-1.4088,-1.4088,-1.4088,-1.4088,-1.4088,-1.4088,-1.4088,-1.4088,-1.4088,-1.4088,-1.4088,-1.4088,-1.4088,-1.4088,-1.4088,-0.9034,-0.9466,-0.9891,-1.0755,-1.095,-1.0964,-1.1108,-1.1032,-1.1066,-1.1601,-1.1692,-1.1877,-1.2417,-1.2601,-1.2826,-1.3258,-1.3243,-1.3243,-1.3462,-1.3404,-1.3375,-1.3484,-1.3492,-1.3492,-1.3492,-1.3492,-1.3492,-1.3492,-1.3492,0.0,-1.3492,-1.3492,-1.3492,-1.3492,-1.3492,-1.3492,-1.3492,-1.3492,-1.3492,-1.3492,-1.3492,-1.3492,-1.3492,-1.3492,-1.3558,-1.3667,-1.377,-1.4245,-1.4918,-1.4604,-1.4589,-1.4754,-1.4856,-1.49,-1.4944,-1.5265,-1.5389,-1.5389,-1.5389,-1.5389,-1.5389,-1.5389,-1.5389,-1.5469,-1.5935,-1.6206,-1.6499,-1.6894,-1.7165,-1.7279,-1.7279,-1.7185,-1.7005,-1.6676,-1.644,-1.6204,-1.5879,-1.5524,-1.5269,-1.5312,-1.5246,-1.5167,-1.5208,-1.5098,-1.5042,-1.5142,-1.4856,-1.4703,-1.4803,-1.4476,-1.4229,-1.4229,-1.3881,-1.361,-1.361,-1.3355,-1.3307,-1.361,-1.361,-1.3779,-1.4088,-1.4088,-1.4088,-1.4088,-1.4088,-1.3955,-1.361,-1.361,-1.361,-1.361,-1.3307,-1.3179,0.0,0.0,0.0,-1.0782,-1.0108,-0.9556,-1.1589,-1.0764,-0.99,-1.1009,-1.1138,-1.1231,-1.1857,-1.1974,-1.2186,-1.2877,-1.2723,-1.2745,-1.3375,-1.3206,-1.3126,-1.344,-1.3492,-1.3492,-1.3492,-1.3492,-1.3492,-1.3492,-1.3492,-1.3492,-1.3492,-1.3492,-1.3492,-1.3492,-1.3492,-1.3492,-1.3492,-1.3492,-1.3492,-1.3492,-1.3492,-1.3492,-1.3492,-1.3492,-1.3667,-1.399,-1.3631,-1.3675,-1.3996,-1.4357,-1.4496,-1.4526,-1.4761,-1.4885,-1.4929,-1.525,-1.5382,-1.5389,-1.5389,-1.5389,-1.5389,-1.5389,-1.5389,-1.5548,-1.622,-1.6411,-1.6551,-1.715,-1.7279,-1.7279,-1.7279,-1.6958,-1.6636,-1.6588,-1.6204,-1.5832,-1.5784,-1.5784,-1.5698,-1.5464,-1.5411,-1.5317,-1.5082,-1.5035,-1.5129,-1.5364,-1.5164,-1.5122,-1.5357,-1.4845,-1.4486,-1.4472,-1.3397,-1.268,-1.2674,-1.1811,-1.1677,-1.2625,-1.2662,-1.3052,-1.3997,-1.3997,-1.3997,-1.3997,-1.3997,-1.3568,-1.2662,-1.2705,-1.2705,-1.2619,-1.1714,-1.1278,-0.8608,0.0,0.0,0.0,0.0,0.0,-0.901,-0.8939,-0.9121,-0.9655,-0.9897,-1.0287,-1.118,-1.1341,-1.1553,-1.2164,-1.2397,-1.255,-1.2767,-1.2914,-1.3038,-1.3133,-1.3353,-1.3492,-1.3492,-1.3492,-1.3492,0.0,-1.3492,-1.3492,-1.3492,-1.3492,-1.3492,-1.3492,-1.3492,-1.3492,-1.3492,-1.3492,-1.3492,-1.3492,-1.3492,-1.3492,-1.3492,-1.3492,-1.3543,-1.3623,-1.3536,-1.355,-1.3653,-1.3982,-1.4152,-1.4188,-1.4472,-1.4596,-1.464,-1.4922,-1.5185,-1.5389,-1.5389,-1.5389,-1.5389,-1.5389,-1.5389,-1.5548,-1.622,-1.6411,-1.6551,-1.715,-1.7279,-1.7279,-1.7279,-1.7106,-1.6831,-1.6636,-1.6359,-1.6028,-1.5832,-1.5784,-1.5758,-1.5678,-1.5712,-1.5685,-1.5605,-1.5591,-1.5618,-1.5698,-1.5464,-1.5304,-1.5384,-1.4417,-1.3659,-1.3517,-1.2667,-1.2076,-1.1937,-1.1663,-1.1619,-1.1877,-1.1766,-1.18,-1.2057,-1.2057,-1.2057,-1.2057,-1.2057,-1.1929,-1.1671,-1.2357,-1.2357,-1.1671,-1.1413,-1.0933,-0.8612,-0.8906,-0.9101,-0.8659,0.0,0.0,-0.8756,-0.8598,-0.8672,-0.9324,-0.9529,-0.9826,-1.0536,-1.0806,-1.1041,-1.1553,-1.1794,-1.2058,-1.2434,-1.257,-1.2616,-1.2755,-1.2972,-1.3089,-1.3089,-1.3089,-1.3089,-1.3089,-1.3089,-1.3089,-1.3089,-1.3089,-1.3148,-1.3287,-1.3294,-1.336,-1.3492,-1.3492,-1.3492,-1.3492,-1.3492,-1.3492,-1.3492,-1.3492,-1.3492,-1.3492,-1.3492,-1.3492,-1.3514,-1.3704,-1.3777,-1.3814,-1.4181,-1.4386,-1.4548,-1.4783,-1.5104,-1.5389,-1.5389,-1.5389,-1.5389,-1.5389,-1.5389,-1.5484,-1.603,-1.6272,-1.6521,-1.6989,-1.7137,-1.7153,-1.7153,-1.6925,-1.665,-1.6447,-1.6211,-1.5981,-1.5832,-1.5784,-1.5784,-1.5784,-1.5784,-1.5784,-1.5784,-1.5784,-1.5784,-1.5784,-1.5308,-1.4916,-1.4916,-1.3769,-1.29,-1.2757,-1.1823,-1.1146,-1.1009,-1.0613,-1.0519,-1.0867,-1.0794,-1.0895,-1.1278,-1.1284,-1.1284,-1.1284,-1.1284,-1.1111,-1.0722,-1.1284,-1.1068,-1.0164,-1.0164,-0.9864,-0.8739,-0.8895,-0.92,-0.9424,-0.9033,0.0,-0.955,-0.8957,-0.8466,-0.9282,-0.9386,-0.9449,-0.987,-1.0185,-1.052,-1.0887,-1.1004,-1.1348,-1.2284,-1.2164,-1.2113,-1.2397,-1.247,-1.2485,-1.2485,-1.2485,-1.2485,-1.2485,-1.2485,-1.2485,-1.2485,-1.2485,-1.2658,-1.2943,-1.2987,-1.3148,-1.344,-1.3477,-1.3492,-1.3492,-1.3492,-1.3492,-1.3492,-1.3492,-1.3492,-1.3492,-1.3492,-1.3492,-1.3492,-1.3492,-1.3514,-1.3579,-1.3828,-1.4172,-1.4553,-1.4761,-1.5075,-1.5389,-1.5389,-1.5389,-1.5389,-1.5389,-1.5389,-1.5447,-1.5818,-1.6104,-1.6433,-1.68,-1.6931,-1.6936,-1.6972,-1.6602,-1.6224,-1.6224,-1.5981,-1.5784,-1.5784,-1.5784,-1.5784,-1.5784,-1.5784,-1.5784,-1.5784,-1.573,-1.5635,-1.5635,-1.4771,-1.41,-1.41,-1.2984,-1.2162,-1.2109,-1.0932,-1.007,-1.0069,-0.9167,-0.8941,-0.9717,-0.9786,-1.012,-1.0982,-1.0982,-1.0982,-1.0982,-1.0982,-1.0593,-0.9772,-0.9772,-0.9345,-0.8612,-0.8612,-0.8612,-0.9474,-0.9515,-0.9365,-0.877,-0.9285,0.0,-0.7759,-0.7921,-0.8234,-0.7459,-0.7503,-0.7932,-0.8809,-0.9014,-0.9241,-0.9811,-1.0338,-1.096,-1.1679,-1.1911,-1.2025,-1.2091,-1.2332,-1.2485,-1.2485,-1.2485,-1.2485,-1.2485,-1.2485,-1.2485,-1.2485,-1.2485,-1.2514,-1.2614,-1.287,-1.3038,-1.3104,-1.3367,-1.3492,-1.3492,-1.3492,-1.3492,-1.3492,-1.3492,-1.3492,-1.3492,-1.3492,-1.3492,-1.3492,-1.3492,-1.3653,-1.3865,-1.3667,-1.4106,-1.4791,-1.4633,-1.4926,-1.5389,-1.5389,-1.5389,-1.5389,-1.5389,-1.5389,-1.5447,-1.5818,-1.5957,-1.6126,-1.6741,-1.6771,-1.6657,-1.6915,-1.6602,-1.6224,-1.6224,-1.5981,-1.5784,-1.5784,-1.5784,-1.5784,-1.5784,-1.5784,-1.5784,-1.5784,-1.5112,-1.4586,-1.4586,-1.3703,-1.3022,-1.3022,-1.206,-1.1269,-1.0971,-1.0088,-0.9409,-0.9112,-0.8878,-0.8812,-0.8992,-0.8903,-0.8955,-0.913,-0.913,-0.913,-0.913,-0.913,-0.9043,-0.8872,-0.8872,-0.8784,-0.8612,-0.8612,-0.8612,-0.9742,-0.9832,-0.9853,-0.9451,-0.9375,0.0,0.0,-0.7868,-0.7632,-0.7736,-0.7457,-0.7508,-0.8509,-0.8553,-0.8655,-0.9292,-0.9797,-1.0214,-1.0572,-1.115,-1.1553,-1.1553,-1.1699,-1.1794,-1.1794,-1.1948,-1.2043,-1.2043,-1.2043,-1.2043,-1.2043,-1.2043,-1.2116,-1.2244,-1.2592,-1.284,-1.3009,-1.3331,-1.3492,-1.3492,-1.3492,-1.3492,-1.3492,-1.3492,-1.3492,-1.3492,-1.3492,-1.3492,-1.3492,-1.3492,-1.3689,-1.399,-1.3623,-1.3989,-1.4684,-1.457,-1.4874,-1.5389,-1.5389,-1.5389,-1.5389,-1.5389,-1.5389,-1.5418,-1.5579,-1.5789,-1.6016,-1.6529,-1.6461,-1.6345,-1.6508,-1.6289,-1.5981,-1.5981,-1.5879,-1.5784,-1.5784,-1.5784,-1.5635,-1.5159,-1.5064,-1.5064,-1.5064,-1.419,-1.3511,-1.3511,-1.2635,-1.195,-1.195,-1.1028,-1.029,-1.0043,-0.9549,-0.9116,-0.8844,-0.8743,-0.8694,-0.8694,-0.8657,-0.8612,-0.8612,-0.8612,-0.8612,-0.8612,-0.8612,-0.8612,-0.8612,-0.8612,-0.8612,-0.8612,-0.8612,-0.8612,-1.0069,-1.0195,-1.0508,-1.0342,-0.9686,-0.9124,0.0,0.0,0.0,-0.8232,-0.7767,-0.745,-0.826,-0.8194,-0.8187,-0.8737,-0.916,-0.9394,-0.9238,-1.0038,-1.0689,-1.0806,-1.0931,-1.1012,-1.1012,-1.1195,-1.1386,-1.1584,-1.1415,-1.1393,-1.1584,-1.1591,-1.1709,-1.1901,-1.2229,-1.255,-1.2914,-1.3243,-1.3433,-1.3492,-1.3492,-1.3492,-1.3492,-1.3492,-1.3492,-1.3492,-1.3492,-1.3492,-1.3492,-1.3492,-1.3653,-1.3865,-1.3667,-1.399,-1.4518,-1.4577,-1.4889,-1.5301,-1.5367,-1.5389,-1.5389,-1.5389,-1.5389,-1.5389,-1.5389,-1.5571,-1.5899,-1.6221,-1.6154,-1.6011,-1.6091,-1.5979,-1.5784,-1.5784,-1.5635,-1.5493,-1.5493,-1.535,-1.4956,-1.4142,-1.3854,-1.3757,-1.3956,-1.3119,-1.2387,-1.2387,-1.1565,-1.0886,-1.0886,-1.0158,-0.9547,-0.9375,-0.9181,-0.9007,-0.8792,-0.8645,-0.8612,-0.8612,-0.8612,-0.8612,-0.8612,-0.8612,-0.8612,-0.8612,-0.8612,-0.8612,-0.8612,-0.8612,-0.8612,-0.8612,-0.8612,-0.8612,-1.0889,-1.1084,-1.1273,-1.0488,-1.0781,-1.0693,-0.8574,0.0,-0.8831,-0.7255,0.0,-0.7238,-0.7355,0.0,0.0,-0.7421,-0.8202,-0.859,-0.799,-0.8524,-0.9168,-0.9716,-1.0287,-1.0674,-1.0674,-1.0411,-1.0631,-1.1525,-1.0755,-1.0674,-1.1547,-1.1591,-1.1606,-1.1643,-1.1926,-1.2215,-1.2543,-1.2899,-1.3206,-1.3492,-1.3492,-1.3492,-1.3492,-1.3492,-1.3492,-1.3492,-1.3492,-1.3492,-1.3492,-1.3492,-1.3514,-1.3579,-1.3828,-1.4188,-1.454,-1.4787,-1.4893,-1.5002,-1.5287,-1.5389,-1.5389,-1.5389,-1.5389,-1.5389,-1.5389,-1.5411,-1.5522,-1.595,-1.5864,-1.5743,-1.612,-1.6001,-1.5784,-1.5784,-1.5112,-1.449,-1.449,-1.3703,-1.3022,-1.2877,-1.2145,-1.1853,-1.2732,-1.2047,-1.1365,-1.1365,-1.0449,-0.9772,-0.9772,-0.9677,-0.9498,-0.9165,-0.9108,-0.8962,-0.8669,-0.862,-0.8612,-0.8612,-0.8612,-0.8612,-0.8612,-0.8612,-0.8612,-0.8612,-0.8612,-0.8612,-0.8612,-0.8612,-0.8612,-0.8612,-0.8612,-0.8612,-1.1025,-1.1252,-1.1518,-1.1155,-1.0804,-1.0328,-0.9494,-0.8785,-0.8259,-0.7969,0.0,0.0,0.0,0.0,0.0,0.0,-0.7552,-0.7654,-0.7195,-0.7691,-0.8355,-0.8999,-0.9321,0.0,-1.025,-1.0009,-1.0148,-1.0968,-1.0265,-1.0243,-1.1254,-1.1305,-1.1401,-1.1591,-1.1867,-1.2156,-1.2485,-1.2848,-1.317,-1.3492,-1.3492,-1.3492,-1.3492,-1.3492,-1.3492,-1.3492,-1.3492,-1.3492,-1.3492,-1.3492,-1.3492,-1.355,-1.4062,-1.4269,-1.4262,-1.4553,-1.4787,-1.4951,-1.5272,-1.5389,-1.5389,-1.5389,-1.5389,-1.5389,-1.5389,-1.5305,-1.5309,-1.5626,-1.5576,-1.55,-1.5848,-1.5846,-1.5643,-1.4901,-1.451,-1.4106,-1.3417,-1.2971,-1.2538,-1.195,-1.1512,-1.1126,-1.0939,-1.0547,-1.0256,-1.0256,-0.9867,-0.9579,-0.9579,-0.9579,-0.949,-0.9137,-0.9185,-0.9104,-0.8743,-0.8812,-0.8828,-0.8723,-0.8621,-0.8657,-0.871,-0.8621,-0.8657,-0.8714,-0.8617,-0.8612,-0.8612,-0.8612,-0.8612,-0.8612,-0.8612,-0.8612,-1.1094,-1.1428,-1.1881,-1.1496,-1.0839,-1.027,-1.0132,-0.9002,-0.8103,-0.859,-0.7926,0.0,0.0,0.0,-0.7246,-0.7209,0.0,-0.7136,-0.6545,-0.6947,-0.7558,-0.8209,-0.8524,-0.8992,0.0,-0.9387,-0.9431,-1.0258,-0.9555,-0.9592,-1.0777,-1.0924,-1.1122,-1.1452,-1.1736,-1.2102,-1.2485,-1.276,-1.3082,-1.3492,-1.3492,-1.3492,-1.3492,-1.3492,-1.3492,-1.3492,-1.3492,-1.3492,-1.3492,-1.3492,-1.3492,-1.3543,-1.4056,-1.41,-1.3923,-1.4516,-1.4765,-1.4834,-1.5202,-1.5305,-1.5305,-1.5215,-1.5257,-1.5298,-1.5215,-1.5131,-1.5021,-1.5254,-1.5246,-1.5184,-1.5152,-1.5147,-1.4937,-1.3865,-1.3466,-1.3141,-1.23,-1.1983,-1.1614,-1.0886,-1.0739,-1.0498,-0.9723,-0.9579,-0.9579,-0.9579,-0.9579,-0.9579,-0.9579,-0.9579,-0.951,-0.9202,-0.9326,-0.9277,-0.8922,-0.9019,-0.9039,-0.8905,-0.8779,-0.8767,-0.8889,-0.8779,-0.8747,-0.882,-0.8698,-0.8657,-0.8612,-0.8612,-0.8612,-0.8612,-0.8612,-0.8612,0.0,0.0,0.0,-1.125,0.0,0.0,0.0,-0.9524,-0.9241,-0.8556,-0.854,-0.8538,-0.8253,-0.8436,-0.8319,-0.7362,-0.7472,0.0,0.0,-0.6135,-0.6573,-0.718,-0.8114,-0.8848,0.0,-0.8341,-0.8275,0.0,-0.8457,-0.8442,-1.0046,-1.0433,-1.0784,-1.1107,-1.1437,-1.1914,-1.2477,-1.2499,-1.2855,-1.3492,-1.3492,-1.3492,-1.3492,-1.3492,-1.3492,-1.3492,-1.3492,-1.3492,-1.3492,-1.3492,-1.3492,-1.3499,-1.3521,-1.3521,-1.3667,-1.4933,-1.5006,-1.4575,-1.4957,-1.509,-1.509,-1.4824,-1.4915,-1.5048,-1.4783,-1.4741,-1.4719,-1.4881,-1.4934,-1.4741,-1.3891,-1.3649,-1.3489,-1.2739,-1.1769,-1.1029,-1.122,-1.0444,-0.9673,-0.9673,-0.9673,-0.9628,-0.9628,-0.9579,-0.9579,-0.9579,-0.9579,-0.9579,-0.9579,-0.9579,-0.9555,-0.9416,-0.94,-0.9331,-0.9104,-0.9092,-0.9096,-0.9088,-0.9084,-0.9084,-0.9088,-0.9084,-0.8999,-0.8824,-0.8812,-0.8731,-0.8612,-0.8612,-0.8612,-0.8612,-0.8612,-0.8612,0.0,0.0,-1.2729,-1.195,0.0,0.0,0.0,0.0,0.0,0.0,0.0,0.0,-0.826,-0.829,-0.8187,-0.7618,-0.726,-0.683,0.0,-0.6231,-0.6385,-0.6588,-0.7448,-0.8004,-0.7895,-0.7764,-0.807,-0.8941,-0.8407,-0.8641,-1.0031,-1.0411,-1.0741,-1.1092,-1.1423,-1.1765,-1.2164,-1.2375,-1.2738,-1.3177,-1.3397,-1.3492,-1.3492,-1.3492,-1.3492,-1.3492,-1.3492,-1.3492,-1.3492,-1.3492,-1.3492,-1.3514,-1.3733,-1.3608,-1.341,-1.4433,-1.4695,-1.456,-1.4957,-1.4999,-1.4824,-1.4734,-1.4776,-1.4824,-1.4734,-1.4608,-1.4418,-1.4063,-1.3842,-1.356,-1.283,-1.2666,-1.2415,-1.1472,-1.1046,-1.0748,-1.0145,-0.9779,-0.9592,-0.947,-0.9445,-0.9409,-0.9295,-0.9372,-0.949,-0.9608,-0.9579,-0.9579,-0.9579,-0.9579,-0.9559,-0.942,-0.9466,-0.9462,-0.9331,-0.9314,-0.9314,-0.9314,-0.9161,-0.9149,-0.931,-0.9157,-0.912,-0.9173,-0.8942,-0.8792,-0.8735,-0.8621,-0.8612,-0.8612,-0.8612,-0.8612,-1.208,-1.2422,0.0,-1.2139,-1.1759,0.0,-1.0815,0.0,-0.9338,0.0,0.0,0.0,0.0,0.0,-0.8363,-0.7786,-0.7246,-0.6706,0.0,-0.6128,-0.6128,-0.6128,-0.6848,-0.7311,-0.7216,-0.7085,-0.739,-0.8275,-0.7931,-0.8223,0.0,-1.0119,-1.0594,-1.0924,-1.1364,-1.1714,-1.1996,-1.2324,-1.2687,-1.3009,-1.3338,-1.3492,-1.3492,-1.3492,-1.3492,-1.3492,-1.3492,-1.3492,-1.3492,-1.3492,-1.3492,-1.3514,-1.3726,-1.3571,-1.3322,-1.42,-1.4507,-1.4491,-1.4774,-1.4741,-1.4566,-1.4489,-1.4531,-1.4524,-1.4104,-1.3886,-1.3629,-1.2935,-1.2598,-1.2289,-1.1557,-1.1375,-1.1146,-1.0292,-1.0155,-1.01,-0.957,-0.9543,-0.9571,-0.9437,-0.9404,-0.9347,-0.9129,-0.919,-0.9324,-0.9502,-0.9587,-0.9579,-0.9579,-0.9579,-0.9583,-0.9466,-0.9555,-0.9579,-0.9462,-0.9449,-0.9449,-0.9449,-0.9348,-0.9336,-0.9445,-0.9344,-0.9307,-0.9404,-0.9129,-0.895,-0.882,-0.871,-0.8625,-0.8612,-0.8612,-0.8612]},{"header":{"parameterUnit":"m.s-1","parameterCategory":1,"la1":30.6,"la2":29.2853,"lo1":-89.7004,"lo2":-87.6739,"dy":0.0162,"dx":0.0183,"nx":112,"ny":82,"refTime":"2026-03-23T12:00:00:Z","depth":0,"parameterNumber":3,"parameterNumberName":"V-component_of_WINDS"},"data":[0.0,0.0,0.0,0.0,0.0,0.0,0.0,0.0,0.0,0.0,0.0,0.0,0.0,0.0,0.0,0.0,0.0,0.0,0.0,0.0,0.0,0.0,0.0,0.0,0.0,0.0,0.0,0.0,0.0,0.0,0.0,0.0,0.0,0.0,0.0,0.0,0.0,0.0,0.0,0.0,0.0,0.0,0.0,0.0,0.0,0.0,0.0,0.0,0.0,0.0,0.0,0.0,0.0,0.0,0.0,0.0,0.0,0.0,0.0,0.0,0.0,0.0,0.0,0.0,0.0,0.0,0.0,0.0,0.0,0.0,0.0,0.0,0.0,0.0,0.0,0.0,0.0,0.0,0.0,0.0,0.0,0.0,0.0,0.0,0.0,0.0,0.0,0.0,0.0,0.0,0.6823,0.7319,0.8156,0.8665,0.8703,0.8486,0.8023,0.7289,0.0,0.0,0.0,0.0,0.0,0.0,0.0,0.0,0.0,0.0,0.0,0.0,0.0,0.0,0.0,0.0,0.0,0.0,0.0,0.0,0.0,0.0,0.0,0.0,0.0,0.0,0.0,0.0,0.0,0.0,0.0,0.0,0.0,0.0,0.0,0.0,0.0,0.0,0.0,0.0,0.0,0.0,0.0,0.0,0.0,0.0,0.0,0.0,0.0,0.0,0.0,0.0,0.0,0.0,0.0,0.0,0.0,0.0,0.0,0.0,0.0,0.0,0.0,0.0,0.0,0.0,0.0,0.0,0.0,0.0,0.0,0.0,0.0,0.0,0.0,0.0,0.0,0.0,0.0,0.0,0.0,0.0,0.0,0.0,0.0,0.0,0.0,0.0,0.0,0.0,0.0,0.0,0.0,0.0,0.0,0.0,0.0,0.0,0.0,0.0,0.0,0.0,0.0,0.0,0.6766,0.807,0.8342,0.8513,0.8699,0.8349,0.7963,0.7493,0.0,0.0,0.0,0.0,0.0,0.0,0.0,0.0,0.0,0.0,0.0,0.0,0.0,0.0,0.0,0.0,0.0,0.0,0.0,0.0,0.0,0.0,0.0,0.0,0.0,0.0,0.0,0.0,0.0,0.0,0.0,0.0,0.0,0.0,0.0,0.0,0.0,0.0,0.0,0.0,0.0,0.0,0.0,0.0,0.0,0.0,0.0,0.0,0.0,0.0,0.0,0.0,0.0,0.0,0.0,0.0,0.0,0.0,0.0,0.0,0.0,0.0,0.0,0.0,0.0,0.0,0.0,0.0,0.0,0.0,0.0,0.0,0.0,0.0,0.0,0.0,0.0,0.0,0.0,0.0,0.0,0.0,0.0,0.0,0.0,0.0,0.0,0.0,0.0,0.0,0.0,0.0,0.0,0.0,0.0,0.0,0.0,0.0,0.0,0.0,0.0,0.0,0.0,0.6559,0.7209,0.8444,0.8571,0.8547,0.8548,0.8255,0.7892,0.737,0.6417,0.0,0.0,0.0,0.0,0.0,0.0,0.0,0.0,0.0,0.0,0.0,0.0,0.0,0.0,0.0,0.0,0.0,0.0,0.0,0.0,0.0,0.0,0.0,0.0,0.0,0.0,0.0,0.0,0.0,0.0,0.0,0.0,0.0,0.0,0.0,0.0,0.0,0.0,0.0,0.0,0.0,0.0,0.0,0.0,0.0,0.0,0.0,0.0,0.0,0.0,0.0,0.0,0.0,0.0,0.0,0.0,0.0,0.0,0.0,0.0,0.0,0.0,0.0,0.0,0.0,0.0,0.0,0.0,0.0,0.0,0.0,0.0,0.0,0.0,0.0,0.0,0.0,0.0,0.0,0.0,0.0,0.0,0.0,0.0,0.0,0.0,0.0,0.0,0.0,0.0,0.0,0.0,0.0,0.0,0.0,0.0,0.0,0.0,0.0,0.0,0.0,0.0,0.7797,0.8216,0.898,0.9105,0.9011,0.8741,0.8448,0.8031,0.7422,0.6269,0.0,0.0,0.0,0.0,0.0,0.0,0.0,0.0,0.0,0.0,0.0,0.0,0.0,0.0,0.0,0.0,0.0,0.0,0.0,0.0,0.0,0.0,0.0,0.0,0.0,0.0,0.0,0.0,0.0,0.0,0.0,0.0,0.0,0.0,0.0,0.0,0.0,0.0,0.0,0.0,0.0,0.0,0.0,0.0,0.0,0.0,0.0,0.0,0.0,0.0,0.0,0.0,0.0,0.0,0.0,0.0,0.0,0.0,0.0,0.0,0.0,0.0,0.0,0.0,0.0,0.0,0.0,0.0,0.0,0.0,0.0,0.0,0.0,0.0,0.0,0.0,0.0,0.0,0.0,0.0,0.0,0.0,0.0,0.0,0.0,0.0,0.0,0.0,0.0,0.0,0.0,0.0,0.0,0.0,0.0,0.0,0.0,0.0,0.0,0.0,0.0,0.0,0.9394,1.0096,1.0082,1.0302,1.0225,0.967,0.9152,0.8577,0.7976,0.6536,0.0,0.0,0.0,0.0,0.0,0.0,0.0,0.0,0.0,0.0,0.0,0.0,0.0,0.0,0.0,0.0,0.0,0.0,0.0,0.0,0.0,0.0,0.0,0.0,0.0,0.0,0.0,0.0,0.0,0.0,0.0,0.0,0.0,0.0,0.0,0.0,0.0,0.0,0.0,0.0,0.0,0.0,0.0,0.0,0.0,0.0,0.0,0.0,0.0,0.0,0.0,0.0,0.0,0.0,0.0,0.0,0.0,0.0,0.0,0.0,0.0,0.0,0.0,0.0,0.0,0.0,0.0,0.0,0.0,0.0,0.0,0.0,0.0,0.0,0.0,0.0,0.0,0.0,0.0,0.0,0.0,0.0,0.0,0.0,0.0,0.0,0.0,0.0,0.0,0.0,0.0,0.0,0.0,0.0,0.0,0.0,0.0,0.0,0.0,0.0,0.0,0.0,0.9221,1.0045,1.0423,1.0556,1.0462,1.0119,0.9514,0.8857,0.8178,0.0,0.0,0.0,0.0,0.0,0.0,0.0,0.0,0.0,0.0,0.0,0.0,0.0,0.0,0.0,0.0,0.0,0.0,0.0,0.0,0.0,0.0,0.0,0.0,0.0,0.0,0.0,0.0,0.0,0.0,0.0,0.0,0.0,0.0,0.0,0.0,0.0,0.0,0.0,0.0,0.0,0.0,0.0,0.0,0.0,0.0,0.0,0.0,0.0,0.0,0.0,0.0,0.0,0.0,0.0,0.0,0.0,0.0,0.0,0.0,0.0,0.0,0.0,0.0,0.0,0.0,0.0,0.0,0.0,0.0,0.0,0.0,0.0,0.0,0.0,0.0,0.0,0.0,0.0,0.0,0.0,0.0,0.0,0.0,0.0,0.0,0.0,0.0,0.0,0.0,0.0,0.0,0.0,0.0,0.0,0.0,0.0,0.0,0.0,0.0,0.0,0.0,0.857,0.965,1.0477,1.086,1.1,1.0899,1.0512,0.985,0.9111,0.8325,0.0,0.0,0.0,0.0,0.0,0.0,0.0,0.0,0.0,0.0,0.0,0.0,0.0,0.0,0.0,0.0,0.0,0.0,0.0,0.0,0.0,0.0,0.0,0.0,0.0,0.0,0.0,0.0,0.0,0.0,0.0,0.0,0.0,0.0,0.0,0.0,0.0,0.0,0.0,0.0,0.0,0.0,0.0,0.0,0.0,0.0,0.0,0.0,0.0,0.0,0.0,0.0,0.0,0.0,0.0,0.0,0.0,0.0,0.0,0.0,0.0,0.0,0.0,0.0,0.0,0.0,0.0,0.0,0.0,0.0,0.0,0.0,0.0,0.0,0.0,0.0,0.0,0.0,0.0,0.0,0.0,0.0,0.0,0.0,0.0,0.0,0.0,0.0,0.0,0.0,0.0,0.0,0.0,0.0,0.0,0.0,0.0,0.0,0.0,0.0,0.0,0.0,0.9929,1.0982,1.161,1.1587,1.1855,1.1704,1.0965,1.0235,0.9398,0.0,0.0,0.0,0.0,0.0,0.0,0.0,0.0,0.0,0.0,0.0,0.0,0.0,0.0,0.0,0.0,0.0,0.0,0.0,0.0,0.0,0.0,0.0,0.0,0.0,0.0,0.0,0.0,0.0,0.0,0.0,0.0,0.0,0.0,0.0,0.0,0.0,0.0,0.0,0.0,0.0,0.0,0.0,0.0,0.0,0.0,0.0,0.0,0.0,0.0,0.0,0.0,0.0,0.0,0.0,0.0,0.0,0.0,0.0,0.0,0.0,0.0,0.0,0.0,0.0,0.0,0.0,0.0,0.0,0.0,0.0,0.0,0.0,0.0,0.0,0.0,0.0,0.0,0.0,0.0,0.0,0.0,0.0,0.0,0.0,0.0,0.0,0.0,0.0,0.0,0.0,0.0,0.0,0.0,0.0,0.0,0.0,0.0,0.0,0.0,0.0,0.0,0.0,0.9644,1.1148,1.2085,1.1894,1.2094,1.2032,1.1575,1.0787,0.984,0.8807,0.0,0.0,0.0,0.0,0.0,0.0,0.0,0.0,0.0,0.0,0.0,0.0,0.0,0.0,0.0,0.0,0.0,0.0,0.0,0.0,0.0,0.0,0.0,0.0,0.0,0.0,0.0,0.0,0.0,0.0,0.0,0.0,0.0,0.0,0.0,0.0,0.0,0.0,0.0,0.0,0.0,0.0,0.0,0.0,0.0,0.0,0.0,0.0,0.0,0.0,0.0,0.0,0.0,0.0,0.0,0.0,0.0,0.0,0.0,0.0,0.0,0.0,0.0,0.0,0.0,0.0,0.0,0.0,0.0,0.0,0.0,0.0,0.0,0.0,0.0,0.0,0.0,0.0,0.0,0.0,0.0,0.0,0.0,0.0,0.0,0.0,0.0,0.0,0.0,0.0,0.0,0.0,0.0,0.0,0.0,0.0,0.0,0.0,0.0,0.0,0.0,0.0,1.0199,1.1651,1.262,1.2782,1.29,1.2794,1.2325,1.1501,1.0572,0.9489,0.0,0.0,0.0,0.0,0.0,0.0,0.0,0.0,0.0,0.0,0.0,0.0,0.0,0.0,0.0,0.0,0.0,0.0,0.0,0.0,0.0,0.0,0.0,0.0,0.0,0.0,0.0,0.0,0.0,0.0,0.0,0.0,0.0,0.0,0.0,0.0,0.0,0.0,0.0,0.0,0.0,0.0,0.0,0.0,0.0,0.0,0.0,0.0,0.0,0.0,0.0,0.0,0.0,0.0,0.0,0.0,0.0,0.0,0.0,0.0,0.0,0.0,0.0,0.0,0.0,0.0,0.0,0.0,0.0,0.0,0.0,0.0,0.0,0.0,0.0,0.0,0.0,0.0,0.0,0.0,0.0,0.0,0.0,0.0,0.0,0.0,0.0,0.0,0.0,0.0,0.0,0.0,0.0,0.0,0.0,0.0,0.0,0.0,0.0,0.0,0.0,0.0,1.1186,1.2228,1.3081,1.3779,1.3889,1.3645,1.2995,1.2221,1.1309,1.0282,0.0,0.0,0.0,0.0,0.0,0.0,0.0,0.0,0.0,0.0,0.0,0.0,0.0,0.0,0.0,0.0,0.0,0.0,0.0,0.0,0.0,0.0,0.0,0.0,0.0,0.0,0.0,0.0,0.0,0.0,0.0,0.0,0.0,0.0,0.0,0.0,0.0,0.0,0.0,0.0,0.0,0.0,0.0,0.0,0.0,0.0,0.0,0.0,0.0,0.0,0.0,0.0,0.0,0.0,0.0,0.0,0.0,0.0,0.0,0.0,1.6101,1.4817,0.0,0.0,0.0,0.0,0.0,0.0,0.0,0.0,0.0,0.0,0.0,0.0,0.0,0.0,0.0,0.0,0.0,0.0,0.0,0.0,0.0,0.0,0.0,0.0,0.0,0.0,0.0,0.0,0.0,0.0,0.0,0.0,0.0,0.0,0.0,0.0,0.0,0.0,0.0,0.0,1.0819,1.2074,1.2885,1.2907,1.2987,1.2876,1.2475,1.1866,1.1113,1.0243,0.8602,0.0,0.0,0.0,0.0,0.0,0.0,0.0,0.0,0.0,0.0,0.0,0.0,0.0,0.0,0.0,0.0,0.0,0.0,0.0,0.0,0.0,0.0,0.0,0.0,0.0,0.0,0.0,0.0,0.0,0.0,0.0,0.0,0.0,0.0,0.0,0.0,0.0,0.0,0.0,0.0,0.0,0.0,0.0,0.0,0.0,0.0,0.0,0.0,0.0,0.0,0.0,0.0,0.0,0.0,0.0,0.0,0.0,0.0,0.0,1.8338,1.7038,0.0,0.0,0.0,0.0,0.0,0.0,0.0,0.0,0.0,0.0,0.0,0.0,0.0,0.0,0.0,0.0,0.0,0.0,0.0,0.0,0.0,0.0,0.0,0.0,0.0,0.0,0.0,0.0,0.0,0.0,0.0,0.0,0.0,0.0,0.0,0.0,0.0,0.0,0.0,0.0,1.1499,1.2783,1.3633,1.3742,1.3807,1.3688,1.3292,1.2774,1.218,1.1541,0.9893,0.0,0.0,0.0,0.0,0.0,0.0,0.0,0.0,0.0,0.0,0.0,0.0,0.0,0.0,0.0,0.0,0.0,0.0,0.0,0.0,0.0,0.0,0.0,0.0,0.0,0.0,0.0,0.0,0.0,0.0,0.0,0.0,0.0,0.0,0.0,0.0,0.0,0.0,0.0,0.0,0.0,0.0,0.0,0.0,0.0,0.0,0.0,0.0,0.0,0.0,0.0,0.0,0.0,2.1692,2.1946,2.2304,2.2378,2.2671,2.3003,2.1152,2.0016,1.9384,1.8857,0.0,0.0,0.0,0.0,0.0,0.0,0.0,0.0,0.0,0.0,0.0,0.0,0.0,0.0,0.0,0.0,0.0,0.0,0.0,0.0,0.0,0.0,0.0,0.0,1.6021,1.6215,1.3698,0.0,0.0,0.0,0.0,0.0,0.0,0.0,0.0,0.0,0.0,0.0,1.2542,1.359,1.4335,1.4718,1.4759,1.4604,1.4221,1.3765,1.3276,1.2812,1.1393,1.0456,0.0,0.0,0.0,0.0,0.0,0.0,0.0,0.0,0.0,0.0,0.0,0.0,0.0,0.0,0.0,0.0,0.0,0.0,0.0,0.0,0.0,0.0,0.0,0.0,0.0,0.0,0.0,0.0,0.0,0.0,0.0,0.0,1.8075,1.8608,0.0,0.0,0.0,0.0,0.0,0.0,0.0,0.0,0.0,0.0,0.0,0.0,0.0,2.2342,2.2806,2.3933,2.4517,2.4611,2.5612,2.5853,2.542,2.5961,2.6215,2.6283,2.5988,0.0,2.1129,2.0591,0.0,0.0,0.0,0.0,0.0,0.0,0.0,0.0,0.0,0.0,0.0,0.0,0.0,0.0,0.0,0.0,0.0,0.0,0.0,0.0,0.0,0.0,1.8371,1.7837,1.7861,1.7897,0.0,1.5286,1.3058,1.1957,1.1094,0.0,0.0,0.0,0.0,0.0,0.0,0.0,1.3203,1.3569,1.3734,1.3772,1.3772,1.3752,1.3714,1.3256,1.2824,1.24,1.2164,1.1473,1.0249,1.0376,0.0,0.0,0.0,0.0,0.0,0.0,0.0,0.0,0.0,0.0,0.0,0.0,0.0,0.0,0.0,0.0,0.0,0.0,0.0,0.0,0.0,0.0,0.0,0.0,0.0,0.0,0.0,0.0,0.0,1.8372,1.9035,1.8989,1.937,1.9354,0.0,0.0,0.0,0.0,0.0,0.0,0.0,0.0,0.0,2.2759,2.3901,2.4628,2.4846,2.605,2.6815,2.7127,2.7612,2.7912,2.798,2.7835,2.7808,2.7808,2.7808,2.6731,2.4876,2.3345,2.1955,2.0691,0.0,0.0,0.0,0.0,1.9517,1.9185,2.0281,2.0318,1.9767,1.9091,0.0,0.0,0.0,0.0,0.0,0.0,0.0,0.0,0.0,0.0,1.8945,1.8707,1.8894,1.902,1.8707,1.7597,1.609,0.0,1.3569,1.2764,1.1153,1.0899,0.0,0.0,0.0,1.2957,1.3805,1.4215,1.4432,1.4432,1.4432,1.4432,1.4432,1.3993,1.3598,1.3433,1.2858,1.2396,1.2108,1.148,1.0801,0.0,0.0,0.0,0.0,0.0,0.0,0.0,0.0,0.0,0.0,0.0,0.0,0.0,0.0,0.0,0.0,0.0,0.0,0.0,0.0,0.0,0.0,0.0,0.0,0.0,0.0,0.0,0.0,1.978,2.0229,1.9865,2.0877,2.1162,0.0,0.0,0.0,0.0,0.0,0.0,2.3402,2.4026,2.4689,2.5491,2.6732,2.7412,2.7412,2.8469,2.9202,2.9614,2.9614,2.9831,3.0242,2.9559,2.9283,2.9269,2.9117,2.8816,2.8266,2.5932,2.4518,2.3749,2.2542,2.1979,2.1935,2.2476,2.2327,2.2007,2.3128,2.3146,2.2576,2.1824,2.1096,2.0328,1.9017,0.0,0.0,0.0,0.0,1.8735,1.8864,1.9486,2.004,1.9724,2.0054,2.0207,1.9384,1.9296,1.874,0.0,1.5821,1.4984,1.299,1.2708,0.0,1.2855,1.339,1.4,1.4529,1.4911,1.5108,1.5108,1.5108,1.5108,1.5108,1.4605,1.4261,1.4124,1.3472,1.3181,1.3406,1.2564,1.1959,1.1681,0.0,0.0,0.0,0.0,0.0,0.0,0.0,0.0,0.0,0.0,0.0,0.0,0.0,0.0,0.0,0.0,0.0,0.0,0.0,0.0,0.0,0.0,0.0,0.0,0.0,0.0,0.0,0.0,0.0,2.2049,2.3269,0.0,0.0,0.0,0.0,2.3393,2.3437,2.4146,2.5748,2.6508,2.7384,2.845,3.026,3.123,3.123,3.1924,3.2286,3.2283,3.2283,3.233,3.2344,3.1647,3.1344,3.13,3.0738,3.0493,3.0258,2.7785,2.6103,2.4998,2.379,2.3006,2.26,2.3017,2.2846,2.2622,2.3685,2.3703,2.3319,2.3783,2.321,2.2341,2.2259,2.1458,0.0,0.0,2.2199,2.2351,2.2858,2.3036,2.2812,2.1733,2.1844,2.1721,2.0105,2.0169,2.0021,0.0,1.719,1.6296,1.5849,0.0,1.4373,1.4864,1.462,1.4693,1.5592,1.5366,1.5108,1.5108,1.5108,1.5108,1.5108,1.4605,1.4101,1.3661,1.3937,1.3761,1.2958,1.3612,1.3392,1.2193,1.0999,0.0,0.0,0.0,0.0,0.0,0.0,0.0,0.0,0.0,0.0,0.0,0.0,0.0,0.0,0.0,0.0,0.0,0.0,0.0,0.0,0.0,0.0,0.0,0.0,0.0,0.0,0.0,0.0,2.4731,2.5991,0.0,2.5612,2.5475,2.592,2.7118,2.707,2.7875,2.9813,3.0031,3.051,3.1316,3.1878,3.2133,3.2133,3.2803,3.3122,3.3122,3.3122,3.2969,3.2596,3.1986,3.1461,3.1023,3.0819,3.0672,3.0539,2.9733,2.8926,2.8154,2.7374,2.6953,2.6792,2.6845,2.6818,2.6736,2.659,2.6505,2.6325,2.558,2.4859,2.422,2.3688,2.3315,2.3063,2.3034,2.3016,2.3045,2.3263,2.3291,2.3211,2.2799,2.2473,2.2146,2.1528,2.1246,2.0835,1.9916,1.8848,1.7856,1.7043,1.6573,1.6228,1.6021,1.5847,1.5877,1.6225,1.6098,1.601,1.601,1.601,1.601,1.601,1.5186,1.4622,1.4447,1.3876,1.3594,1.3674,1.3572,1.349,1.3429,1.1969,1.0767,0.0,0.0,0.0,0.0,0.0,0.0,0.0,0.0,0.0,0.0,0.0,0.0,0.0,0.0,0.0,0.0,0.0,0.0,0.0,0.0,0.0,0.0,0.0,0.0,0.0,2.4781,2.633,2.6806,2.845,2.9191,2.8361,2.8541,2.9144,3.0155,3.0277,3.0911,3.2312,3.25,3.2744,3.3184,3.3276,3.3313,3.3313,3.3769,3.3974,3.3974,3.3922,3.3755,3.3416,3.252,3.1905,3.1511,3.1086,3.0851,3.0791,3.091,3.0749,3.0293,2.9687,2.9422,2.9407,2.9088,2.9015,2.8982,2.8253,2.7939,2.7709,2.6736,2.6188,2.585,2.5322,2.5207,2.5182,2.4732,2.4591,2.4539,2.4539,2.4513,2.4337,2.3725,2.3539,2.3206,2.2212,2.1988,2.1735,2.1008,2.0005,1.8976,1.8089,1.779,1.7526,1.7114,1.7064,1.7024,1.6835,1.681,1.6735,1.6513,1.65,1.65,1.65,1.568,1.5085,1.4916,1.4011,1.369,1.4091,1.3521,1.3483,1.4091,1.2577,1.1474,1.0804,0.0,0.0,0.0,0.0,0.0,0.0,0.0,0.0,0.0,0.0,0.0,0.0,0.0,0.0,0.0,0.0,0.0,0.0,0.0,0.0,0.0,0.0,0.0,2.4405,2.6638,2.8281,2.834,3.06,3.1708,3.0622,3.1501,3.2211,3.2362,3.2788,3.3051,3.3081,3.3684,3.4038,3.4038,3.461,3.4902,3.4902,3.4902,3.4902,3.4902,3.475,3.4783,3.4828,3.3372,3.2801,3.2901,3.1663,3.1102,3.1102,3.1234,3.1307,3.1218,3.0437,3.0157,3.0055,2.942,2.9156,2.9039,2.8444,2.7794,2.7237,2.7207,2.7207,2.7207,2.7207,2.7207,2.7207,2.7207,2.7119,2.7003,2.6974,2.6896,2.6338,2.4575,2.4945,2.4973,2.2145,2.2335,2.2766,2.1674,2.0601,1.969,1.9169,1.8617,1.8276,1.8253,1.824,0.0,1.7498,1.741,1.7174,1.66,1.6538,1.6525,1.6525,1.6019,1.5487,1.4941,1.4393,1.4096,1.4114,1.3544,1.3518,1.4102,1.2881,1.1846,1.1063,0.0,0.0,0.0,0.0,0.0,0.0,0.0,0.0,0.0,0.0,0.0,0.0,0.0,0.0,0.0,0.0,0.0,0.0,0.0,0.0,0.0,2.5254,2.654,2.654,2.8411,3.0297,3.1649,3.2601,3.3122,3.315,3.3029,3.3224,3.3856,3.3864,3.4144,3.4778,3.4857,3.4881,3.4881,3.4879,3.4902,3.4902,3.4902,3.4902,3.4902,3.4868,3.4684,3.4345,3.3484,3.2862,3.2464,3.1605,3.119,3.1102,3.1234,3.1307,3.1292,3.1142,3.1112,3.1082,3.0817,3.0389,2.9885,2.9384,2.877,2.8118,2.7524,2.7412,2.7448,2.7258,2.7258,2.731,2.7233,2.7181,2.7027,2.6556,2.6388,2.6117,2.5136,2.4785,2.4513,2.4105,2.3529,2.3014,2.2678,2.2041,2.1366,2.0826,2.0287,1.982,1.9406,1.9032,0.0,1.8037,1.7626,1.7498,1.7714,1.7388,1.7149,1.7149,1.6245,1.5575,1.5292,1.4356,1.3954,1.4292,1.4162,1.4165,1.4392,1.3658,1.2952,0.0,0.0,0.0,0.0,0.0,0.0,0.0,0.0,0.0,0.0,0.0,0.0,0.0,0.0,0.0,0.0,0.0,0.0,0.0,0.0,0.0,0.0,2.775,2.9298,2.9869,3.096,3.2214,3.3569,3.4095,3.4455,3.4733,3.4435,3.4422,3.4876,3.481,3.4974,3.5489,3.5392,3.5326,3.5326,3.5213,3.5148,3.5148,3.5148,3.5148,3.5148,3.5082,3.494,3.4701,3.3685,3.3061,3.2735,3.1797,3.1322,3.1278,3.1351,3.138,0.0,0.0,0.0,0.0,0.0,3.0963,3.0321,2.9777,2.9146,2.8487,2.7737,2.7539,2.7575,2.7423,2.7437,2.7463,2.7372,2.7335,2.7195,2.68,2.6672,2.636,2.5384,2.5099,2.4967,2.4677,2.4277,2.39,2.3564,2.3245,0.0,2.2128,2.1419,2.0833,2.051,2.0193,1.9807,1.9256,1.892,1.866,1.8481,1.8169,1.787,1.7592,1.6964,0.0,0.0,0.0,1.4671,1.4452,1.4704,0.0,0.0,0.0,0.0,0.0,0.0,0.0,0.0,1.2443,1.2538,0.0,0.0,0.0,0.0,0.0,0.0,0.0,0.0,0.0,0.0,0.0,0.0,0.0,0.0,0.0,0.0,3.0381,3.2244,3.3623,3.3848,3.4026,3.4548,3.513,3.5504,3.5504,3.5504,3.5504,3.5504,3.5504,3.5504,3.5504,3.5504,0.0,0.0,0.0,3.5504,3.5504,3.5504,3.5504,3.5504,3.5326,3.5326,3.5459,3.3941,3.3347,3.3532,3.2181,3.164,3.1682,3.1682,3.1682,3.1682,3.1553,3.1511,3.1511,3.1511,3.1122,3.0537,2.9909,0.0,0.0,2.7944,2.766,2.76,2.76,2.76,2.76,2.76,2.7514,2.7412,2.7323,2.7232,2.679,2.5394,2.555,2.5692,2.4499,2.4717,2.497,2.4432,2.4285,2.3967,2.3188,2.2222,2.1537,2.1489,2.1489,2.1288,2.076,2.0638,2.0216,1.9216,0.0,0.0,1.8092,1.7984,1.7711,1.7139,1.6629,1.5906,1.4894,1.5434,1.5778,1.5844,1.5546,1.5607,1.6018,1.6008,1.5757,1.5202,1.3955,1.4165,0.0,0.0,0.0,0.0,0.0,0.0,0.0,0.0,0.0,0.0,0.0,0.0,0.0,0.0,0.0,3.1158,3.2816,3.428,3.5649,3.5827,3.5703,3.5344,3.5429,3.5504,3.5504,3.5504,3.5504,3.5504,3.5504,3.5504,3.5504,3.5504,3.5504,3.5504,3.5504,3.5504,3.5504,3.5504,3.5504,3.5504,0.0,0.0,3.5459,3.4067,3.3698,3.4085,3.2769,3.2477,3.2879,3.2879,3.2879,3.2772,3.1866,3.1511,3.1511,3.1511,3.1421,3.1212,3.0552,2.9909,2.9307,2.8607,2.8049,2.76,2.76,2.76,0.0,2.76,2.7575,2.743,2.6907,2.6732,2.638,2.502,2.4812,2.4938,2.5112,2.4875,2.4866,2.5639,2.5403,2.4852,2.4135,2.3244,2.2486,2.21,2.2053,2.1856,2.1315,2.086,2.0716,2.1014,2.0626,2.0091,1.9525,1.9093,1.8488,1.7701,1.745,1.7221,1.7004,1.7187,1.7294,1.7294,1.724,1.724,1.7326,1.7321,1.7529,1.792,1.6381,1.5629,0.0,0.0,0.0,0.0,0.0,0.0,0.0,0.0,0.0,0.0,0.0,2.7171,2.9518,0.0,3.1903,3.3883,3.5109,3.6071,3.6811,3.6911,3.6662,3.6022,3.5941,3.5941,3.5941,3.5941,3.5941,3.5941,3.6258,3.629,3.5973,3.5941,3.5941,3.5941,3.5651,3.5504,3.5504,3.5504,3.5504,3.5504,3.5504,3.5504,3.5459,3.4378,3.4058,3.4246,3.3243,3.2933,3.3182,3.3182,3.3182,3.313,3.2571,3.2367,3.2312,3.2064,3.1966,3.1758,3.0483,3.0009,2.9758,2.8501,2.8032,2.7919,2.766,2.76,2.76,2.76,2.76,2.7525,2.7195,2.6866,2.6333,2.5252,2.4798,2.4761,2.5286,2.522,2.5295,2.614,2.6066,2.5636,2.4929,2.4141,2.3379,2.2749,2.2715,2.2632,2.2296,2.2073,2.1942,2.1951,2.1666,2.1269,2.0705,2.0096,1.9325,1.8269,1.8443,1.8316,1.768,1.8011,1.8192,1.8192,1.7878,1.7878,1.8192,1.7863,1.7878,1.8192,1.7715,1.7562,0.0,0.0,0.0,0.0,0.0,0.0,0.0,2.728,2.8392,2.9271,2.9732,3.0669,3.2933,3.3665,3.4537,3.6224,3.7026,3.7508,3.7729,3.7536,3.7164,3.6612,3.6584,3.66,3.66,3.66,3.66,3.66,3.7101,3.7161,3.6631,3.66,3.66,3.66,3.6005,3.5683,3.5683,3.5569,3.5504,3.5504,3.5452,3.5456,3.5443,3.4635,3.4326,3.4392,3.3789,3.3537,3.3537,3.3537,3.3537,3.3537,3.3537,3.3537,3.3459,3.2803,3.2547,3.2338,3.083,3.0387,3.0217,2.8748,2.8363,2.8376,2.7894,2.7735,2.771,2.7625,2.76,2.76,2.76,2.721,2.6563,2.5637,2.5103,2.4881,2.5176,2.544,2.5785,2.6331,2.653,2.6386,2.569,2.5094,2.4418,2.3479,2.3297,2.3253,2.3135,2.3246,2.3091,2.2596,2.2536,2.2285,2.1697,2.0907,2.0038,1.9072,1.9388,1.917,1.8132,1.8612,1.8897,1.8897,1.8356,1.8341,1.8897,1.8341,1.8087,1.8102,1.8642,1.9106,2.702,2.6341,2.602,2.67,2.6937,2.7682,0.0,3.1002,3.1499,3.2911,3.375,3.4504,3.5462,3.6216,3.6943,3.7826,3.8074,3.8381,3.8996,3.8013,3.7189,3.7122,3.7223,3.728,3.728,3.728,3.728,3.728,3.737,3.737,3.728,3.728,3.728,3.728,3.6631,3.629,3.629,3.5765,3.5504,3.5504,3.5382,3.5309,3.5309,3.4537,3.4476,3.4919,3.4759,3.4715,3.4715,3.4715,3.4715,3.4715,3.4715,3.4715,3.4578,3.3511,3.3119,3.3061,3.2867,3.2012,3.0982,3.0775,2.9934,2.8912,2.8376,2.8231,2.8134,2.771,2.76,2.76,2.76,2.754,2.718,2.5875,2.5531,2.5337,2.4806,2.5173,2.5794,2.6443,2.7066,2.7245,2.6578,2.6398,2.5839,2.4389,2.3658,2.3297,2.3275,2.3297,2.3312,2.3362,2.3383,2.3159,2.2601,2.1386,2.0609,2.046,1.9971,1.9615,1.9465,1.9558,1.9588,1.9588,1.9513,1.9513,1.9588,1.9513,1.9483,1.9483,1.9558,1.9301,2.9422,2.8881,2.8428,2.8949,3.0055,3.1212,3.2067,3.3243,3.4352,3.4949,3.533,3.5893,3.7069,3.7185,3.7483,3.8642,3.8869,3.8996,3.9272,3.8414,3.7793,3.7793,3.7448,3.7242,3.7283,3.7287,3.7447,3.7876,3.8282,3.8339,3.7937,3.7908,3.7908,3.7908,3.731,3.6981,3.6981,3.632,3.5982,3.5967,3.5464,3.5254,3.5223,3.4836,3.4775,3.4956,3.4919,3.4899,3.4899,3.4899,3.4899,3.4899,3.4899,3.4899,3.4811,3.4018,3.3723,3.3624,3.2869,3.2447,3.2038,3.0918,3.0386,2.9982,2.9045,2.8772,2.8709,2.8535,2.8463,2.8463,2.8463,2.8169,2.776,2.7187,2.6421,2.5864,2.5988,2.5867,2.6114,2.7195,2.7628,2.7883,2.803,2.7744,2.7142,2.6198,2.4912,2.403,2.4,2.3688,2.3501,2.3545,2.3545,2.3334,2.2748,2.2194,2.1695,2.1321,2.1021,2.0857,2.0857,2.1091,2.111,2.0876,2.0712,2.0828,2.121,2.0828,2.0955,2.1561,2.132,2.1054,3.0486,3.0482,3.0528,3.0945,3.2591,3.4005,3.3673,3.5015,3.6307,3.6307,3.6307,3.6638,3.7715,3.7466,3.7516,3.8775,3.9017,3.9017,3.9017,3.8361,3.7831,3.7632,3.6953,3.6594,3.6851,3.7042,3.7492,3.822,3.8727,3.8879,3.8574,3.859,3.859,3.859,3.7982,3.7648,3.7648,3.6748,3.6301,3.6285,3.5526,3.5138,3.5149,3.5033,3.4955,3.4899,3.4899,3.4899,3.4899,3.4899,3.4899,3.4899,3.4899,3.4899,3.4851,3.4472,3.4325,3.4194,3.3255,3.3072,3.2949,3.1395,3.0995,3.0861,2.9662,2.9303,2.9257,2.9159,2.9097,2.9097,2.9097,2.8733,2.8329,2.8139,2.7316,2.6667,2.6968,2.6593,2.6509,2.7519,2.7703,2.7924,2.8663,2.8385,2.8005,2.7813,2.6527,2.5311,2.4611,2.3985,2.3595,2.3595,2.3595,2.3415,2.2987,2.2902,2.2662,2.2179,2.207,2.2041,2.2041,2.2315,2.2334,2.2041,2.1855,2.197,2.2468,2.197,2.2133,2.2893,2.2601,2.2468,2.9775,3.0433,3.1462,3.2247,3.3647,3.5048,3.5744,3.6506,3.7069,3.7069,3.7069,3.7085,3.7135,3.7119,3.7367,3.8129,3.8219,3.8219,3.8219,3.7615,3.687,3.6158,3.5413,3.5263,3.5968,3.6679,3.7424,3.8153,3.8219,3.8543,3.9239,3.9272,3.9272,3.9272,3.8618,3.8278,3.8278,3.695,3.6301,3.6285,3.5428,3.5017,3.5001,3.4923,3.4892,3.4899,3.4899,3.4899,3.4899,3.4899,3.4899,3.4899,3.4899,3.4899,3.4899,3.4875,3.4875,3.4875,3.4842,3.4362,3.3634,3.2872,3.2161,3.1341,3.013,2.9772,2.9683,2.9234,2.9097,2.9097,2.9097,2.9081,2.8907,2.825,2.806,2.7876,2.7232,2.7031,2.6972,2.702,2.6971,2.7164,2.7908,2.8025,2.823,2.8948,2.8442,2.7163,2.4905,2.4007,2.3595,2.3595,2.3595,2.3595,2.3565,2.3381,2.326,2.3264,2.3014,2.2857,2.2857,2.2891,2.2891,2.2857,2.2859,2.2859,2.2875,2.2859,2.2877,2.2893,2.2893,2.2875,3.0094,3.1706,3.337,3.3734,3.5457,3.7036,3.6787,3.7317,3.7566,3.6572,3.5976,3.5644,3.5644,3.5644,3.6042,3.7284,3.7871,3.8186,3.8186,3.7996,3.7384,3.6158,3.5777,3.5528,3.5297,3.5943,3.6688,3.7417,3.793,3.8328,3.856,3.9033,3.9299,3.9299,3.9077,3.8739,3.8235,3.73,3.659,3.6085,3.5299,3.4923,3.4923,3.4903,3.4899,3.4899,3.4899,3.4899,3.4899,3.4899,3.4899,3.4899,3.4899,3.4899,3.4899,3.4899,3.4899,3.4899,3.4899,3.4733,3.4402,3.3657,3.3259,3.2806,3.1408,3.1002,3.086,3.0201,3.0027,3.0027,3.0027,3.0027,2.9962,2.9755,2.9314,2.8906,2.8682,2.8257,2.7927,2.7927,2.7907,2.8115,2.882,2.8934,2.8911,2.8898,2.8034,2.6918,2.5674,2.4901,2.4446,2.4446,2.4446,2.4446,2.4446,2.4405,2.4359,2.4359,2.4295,2.423,2.423,2.4479,2.4497,2.423,2.4099,2.4229,2.4627,2.4229,2.4387,2.509,2.477,2.4627,3.1286,3.3045,3.4639,3.5009,3.6434,3.7621,3.7142,3.7018,3.6754,3.5794,3.4601,3.3723,3.3723,3.3508,3.3905,3.5644,3.6539,3.7218,3.7748,3.8046,3.7765,3.6539,3.6158,3.581,3.5346,3.5479,3.5909,3.6655,3.74,3.793,3.8195,3.8891,3.9299,3.9299,3.9299,3.8941,3.8228,3.7483,3.6605,3.5595,3.5131,3.4899,3.4899,3.4899,3.4899,3.4899,3.4899,3.4899,3.4899,3.4899,3.4899,3.4899,3.4899,3.4899,3.4899,3.4899,3.4899,3.4899,3.4899,3.4899,3.4767,3.4038,3.3789,3.3557,3.2365,3.1797,3.1499,3.1035,3.0704,3.0506,3.0506,3.0506,3.0506,3.0506,3.0141,2.9777,2.9777,2.9251,2.8754,2.8754,2.8359,2.831,2.9251,2.9612,2.9712,2.9447,2.8519,2.7501,2.6524,2.5765,2.5302,2.5302,2.5061,2.4902,2.4902,2.504,2.5102,2.5102,2.5269,2.5365,2.5365,2.561,2.5645,2.5365,2.5241,2.5352,2.574,2.5352,2.5545,2.6185,2.5901,2.574,3.3085,3.4286,3.5287,3.599,3.6571,3.6915,3.6799,3.5778,3.48,3.47,3.2955,3.1466,3.1399,3.0903,3.1184,3.3342,3.4369,3.5413,3.6903,3.7748,3.7947,3.7201,3.6522,3.6075,3.6009,3.5363,3.523,3.5893,3.6671,3.7417,3.8129,3.8874,3.9282,3.9249,3.9249,3.8858,3.8096,3.7367,3.629,3.4899,3.4899,3.4899,3.4899,3.4899,3.4899,3.4899,3.4899,3.4899,3.4899,3.4899,3.4899,3.4899,3.4899,3.4899,3.4899,3.4899,3.4899,3.4899,3.4899,3.4899,3.4783,3.4071,3.3856,3.3707,3.2984,3.2249,3.1648,3.1615,3.1068,3.0506,3.0506,3.0506,3.0506,3.0506,3.0506,3.0506,3.0506,2.9943,2.9446,2.9397,2.829,2.7779,2.9118,2.9926,3.0406,3.0439,2.9843,2.887,2.7402,2.6529,2.6064,2.6064,2.5409,2.4962,2.4962,2.5329,2.554,2.554,2.5937,2.6202,2.6202,2.6202,2.6202,2.6202,2.6202,2.6202,2.6202,2.6202,2.6202,2.6202,2.6202,2.6202,3.3124,3.4845,3.6337,3.6006,3.6718,3.7088,3.5481,3.4591,3.3607,3.1967,3.0737,2.9648,2.8591,2.9549,3.0853,3.1979,3.3707,3.5413,3.6903,3.7748,3.7947,3.7201,3.7433,3.7218,3.6108,3.5827,3.5578,3.5214,3.6373,3.7185,3.7384,3.8619,3.905,3.8493,3.8477,3.7864,3.6572,3.5827,3.5263,3.4899,3.4899,3.4899,3.4899,3.4899,3.4899,3.4899,3.4899,3.4899,3.4899,3.4899,3.4899,3.4899,3.4899,3.4899,3.4899,3.4899,3.4899,3.4899,3.4899,3.4899,3.4866,3.4667,3.4618,3.4468,3.3723,3.2994,3.2299,3.1747,3.1068,3.0506,3.0506,3.0506,3.0506,3.0506,3.0506,3.0506,3.0506,3.0357,3.0059,2.9496,2.8704,2.8227,2.8591,2.8823,2.9102,2.9595,2.9512,2.927,2.887,2.7735,2.6965,2.6965,2.6307,2.5862,2.5862,2.5954,2.6008,2.6008,2.6132,2.6202,2.6202,2.6202,2.6202,2.6202,2.6202,2.6202,2.6202,2.6202,2.6202,2.6202,2.6202,2.6202,3.4478,3.5927,3.7001,3.5963,3.6163,3.6097,3.3941,3.2883,3.1818,2.9963,2.8738,2.7661,2.6553,2.7578,2.895,3.0029,3.2299,3.4551,3.6357,3.7268,3.7814,3.803,3.7864,3.74,3.6572,3.6191,3.5694,3.4965,3.5976,3.6622,3.6622,3.7698,3.8146,3.7748,3.7731,3.7168,3.6009,3.5263,3.4899,3.4899,3.4899,3.4899,3.4899,3.4899,3.4899,3.4899,0.0,3.4899,3.4899,3.4899,3.4899,3.4899,3.4899,3.4899,3.4899,3.4899,3.4899,3.4899,3.4899,3.4899,3.4899,3.4899,3.4899,3.4816,3.4402,3.3756,3.3094,3.268,3.1797,3.0986,3.0986,3.0737,3.0506,3.0506,3.0506,3.0506,3.0506,3.0506,3.0274,2.9529,2.9367,2.9138,2.8508,2.8641,2.887,2.8953,2.9218,2.9397,2.9397,2.8704,2.8227,2.8227,2.7296,2.6667,2.6667,2.6402,2.6202,2.6202,2.6202,2.6202,2.6202,2.6202,2.6202,2.6202,2.6202,2.6036,2.5723,2.5723,2.554,2.5225,2.5225,2.5407,3.6235,3.7031,3.7337,3.5923,3.5412,3.4672,3.2422,3.1035,2.981,2.8409,2.6932,2.5705,2.5077,2.564,2.6717,2.8293,3.0812,3.3359,3.5678,3.6555,3.7466,3.8851,3.788,3.7069,3.697,3.639,3.5694,3.4965,3.5495,3.5893,3.5992,3.6704,3.7069,3.697,3.687,3.6506,3.586,3.5214,3.4899,3.4899,3.4899,3.4899,3.4899,3.4899,3.4899,3.4899,3.4899,3.4899,3.4899,3.4899,3.4899,3.4899,3.4899,3.4899,3.4899,3.4899,3.4899,3.4899,3.4899,3.4899,3.4899,3.4899,3.4899,3.4899,3.4899,3.4369,3.3789,3.3789,3.2812,3.1714,3.1631,3.1135,3.0621,3.0522,3.0506,3.0506,3.0506,3.0506,3.0307,2.9661,2.9976,2.998,2.874,2.8853,2.8969,2.8475,2.8804,2.9168,2.9248,2.9284,2.9317,2.938,2.8144,2.7298,2.7298,2.67,2.6301,2.6202,2.6202,2.6202,2.6202,2.6202,2.6202,2.6202,2.6103,2.5739,2.511,2.5011,2.4679,2.4149,2.4149,2.4547,3.6361,3.6972,3.7207,3.5799,3.5197,3.4262,3.1634,2.9771,2.8223,2.6864,2.5408,2.4348,2.4216,2.5292,2.6848,2.8903,3.0654,3.2773,3.5611,3.6108,3.6506,3.7384,3.7268,3.687,3.6257,3.6075,3.5694,3.4965,3.5015,3.5363,3.5976,3.6704,3.682,3.6208,3.5595,3.5214,3.5081,3.4965,3.4899,3.4899,3.4899,3.4899,3.4899,3.4899,3.4899,3.4899,3.4899,0.0,3.4899,3.4899,3.4899,3.4899,3.4899,3.4899,3.4899,3.4899,3.4899,3.4899,3.4899,3.4899,3.4899,3.4899,3.4899,3.4899,3.4899,3.4369,3.3789,3.3789,3.3176,3.2365,3.1763,3.1515,3.1267,3.0638,3.0506,3.0506,3.0506,3.0506,3.0456,3.0323,2.991,2.9496,2.9284,2.8357,2.7829,2.8326,2.7978,2.7879,2.8508,2.8575,2.8787,2.933,2.8144,2.7298,2.7298,2.7182,2.6851,2.6235,2.6202,2.6202,2.6202,2.6202,2.6202,2.6202,2.559,2.5243,2.511,2.4497,2.4448,2.4911,2.4911,2.5292,3.6393,3.6674,3.6674,3.5647,3.4356,3.278,3.0716,2.8645,2.6759,2.5358,2.4199,2.3305,2.2924,2.4067,2.5524,2.6914,2.8721,3.0957,3.3856,3.427,3.4982,3.6887,3.6771,3.639,3.6025,3.6009,3.5694,3.4965,3.4899,3.5048,3.5413,3.576,3.5794,3.5446,3.5081,3.4899,3.4899,3.4899,3.4899,3.4899,3.4899,3.4899,3.4899,3.4899,3.4899,3.4899,3.4899,3.4899,3.4899,3.4899,3.4899,3.4899,3.4899,3.4899,3.4899,3.4899,3.4899,3.4899,3.4899,3.4899,3.4899,3.4899,3.4899,3.4899,3.4899,3.4651,3.4369,3.4369,3.3839,3.3176,3.2845,3.2464,3.2,3.125,3.0787,3.0506,3.0506,3.0506,3.0506,3.0506,3.0208,2.9843,2.9463,2.8837,2.8257,2.7879,2.7845,2.7862,2.7829,2.7829,2.8094,2.8804,2.8276,2.7713,2.7315,2.7298,2.7,2.6252,2.6202,2.6202,2.6202,2.6202,2.6202,2.6202,2.5838,2.5292,2.453,2.4166,2.3785,2.3388,2.3785,2.4149,3.6124,3.6172,3.5982,3.5157,3.3479,3.1563,2.9661,2.7613,2.5669,2.4083,2.3172,2.2526,2.2096,2.2973,2.4166,2.5375,2.7166,2.9403,3.2304,3.2851,3.3839,3.634,3.6125,3.576,3.576,3.576,3.5528,3.4932,3.4899,3.4899,3.4899,3.4899,3.4899,3.4899,3.4899,3.4899,3.4899,3.4899,3.4899,3.4899,3.4899,3.4899,3.4899,3.4899,3.4899,3.4899,3.4899,3.4899,3.4899,3.4899,3.4899,3.4899,3.4899,3.4899,3.4899,3.4899,3.4899,3.4899,3.4899,3.4899,3.4899,3.4899,3.4899,3.4899,3.4899,3.4899,3.4899,3.4899,3.4468,3.3988,3.3839,3.3359,3.2696,3.1813,3.1168,3.0688,3.0522,3.0506,3.0506,3.0506,3.0506,3.0307,2.9728,2.9496,2.9019,2.7928,2.7995,2.7945,2.7365,2.7149,2.7282,2.7879,2.8078,2.7928,2.7348,2.7298,2.7,2.6252,2.6202,2.6202,2.6202,2.6202,2.6202,2.6202,2.6036,2.5391,2.4249,2.41,2.3503,2.251,2.3121,2.3469,3.53,3.5489,3.5157,3.383,3.301,3.171,2.8533,2.6782,2.5293,2.3389,2.241,2.2094,2.2692,2.2907,2.3901,2.6652,2.7829,2.9403,3.2304,3.3299,3.4038,3.4982,3.5032,3.4998,3.4998,3.4998,3.4965,3.4899,3.4899,3.4899,3.4899,3.4899,3.4899,3.4899,3.4899,3.4899,3.4899,3.4899,3.4899,3.4899,3.4899,3.4899,3.4899,3.4899,3.4899,3.4899,3.4899,3.4899,0.0,3.4899,3.4899,3.4899,3.4899,3.4899,3.4899,3.4899,3.4899,3.4899,3.4899,3.4899,3.4899,3.4899,3.4899,3.4899,3.4899,3.4899,3.4899,3.4899,3.4849,3.4634,3.3955,3.374,3.3342,3.1929,3.1548,3.1317,3.0638,3.0506,3.0506,3.0506,3.0506,3.0472,3.0406,2.9827,2.9347,2.9234,2.8194,2.7365,2.7298,2.6717,2.6336,2.6402,2.7017,2.7365,2.7317,2.7298,2.7,2.6252,2.6202,2.6202,2.6202,2.6202,2.6202,2.6202,2.554,2.5143,2.5011,2.4381,2.4331,2.4795,2.493,2.5312,3.4541,3.4731,3.4521,3.3673,3.2501,3.0879,2.8382,2.6566,2.4907,2.3239,2.2311,2.1895,2.2193,2.2243,2.2907,2.4995,0.0,2.6766,2.9702,3.0709,3.1752,3.3375,3.3955,3.4402,3.4849,3.4899,3.4899,3.4899,3.4899,3.4899,3.4899,3.4899,3.4899,3.4899,3.4899,3.4899,3.4899,3.4899,3.4899,3.4899,3.4899,3.4899,3.4899,3.4899,3.4899,3.4899,3.4899,3.4899,0.0,3.4899,3.4899,3.4899,3.4899,3.4899,3.4899,3.4899,3.4899,3.4899,3.4899,3.4899,3.4923,3.4994,3.497,3.4899,3.4899,3.4899,3.4899,3.4899,3.4899,3.4857,3.4629,3.4236,3.3754,3.3173,3.2375,3.166,3.1445,3.0987,3.063,3.063,3.0568,3.0526,3.0609,3.0381,3.0068,2.9696,2.9165,2.8612,2.8087,2.7389,2.6906,2.6906,2.7153,2.7116,2.6667,2.705,2.7,2.6252,2.6202,2.6202,2.6202,2.624,2.6259,2.6259,2.6045,2.5679,2.5162,2.498,2.4746,2.4514,2.5063,2.523,3.3198,3.353,3.352,3.2848,3.1558,2.9905,2.7825,2.6153,2.458,2.2924,2.216,2.1812,2.1812,2.1812,2.221,0.0,0.0,2.5276,2.8011,2.9168,3.0477,3.2448,3.3166,3.3756,3.4502,3.4767,3.4899,3.4899,3.4899,3.4899,3.4899,3.4899,3.4899,3.4899,3.4899,3.4899,3.4899,3.4899,3.4899,3.4899,3.4899,3.4899,3.4899,3.4899,3.4899,3.4899,3.4899,3.4899,0.0,3.4899,3.4899,3.4899,3.4899,3.4899,3.4899,3.4899,3.4899,3.4899,3.4947,3.497,3.497,3.5128,3.5105,3.5018,3.5018,3.497,3.4899,3.4947,3.4994,3.5041,3.5111,3.4774,3.4324,3.4107,3.3273,3.2426,3.2077,3.1533,3.102,3.0803,3.0671,3.0651,3.0733,3.0753,3.0606,3.0185,2.9934,2.958,2.8948,2.8231,2.7716,2.7482,2.7411,2.7092,2.6341,2.674,2.6806,2.6308,2.6257,2.6257,2.6274,2.6329,2.6365,2.6365,2.6451,2.62,2.558,2.5698,2.543,2.483,2.5447,2.548,3.1065,3.176,3.2026,3.0839,3.0076,2.8963,2.6401,2.536,2.4314,2.2229,2.1812,2.1812,2.1812,2.1812,2.2029,2.2791,0.0,0.0,2.8094,2.9615,3.1035,3.2514,3.2718,3.3017,3.3723,3.4468,3.4899,3.4899,3.4899,3.4899,3.4899,3.4899,3.4899,3.4899,3.4899,3.4899,3.4899,3.4899,3.4899,3.4899,3.4899,3.4899,3.4899,3.4899,3.4899,3.4899,3.4899,3.4899,0.0,3.4899,3.4899,3.4899,3.4899,3.4899,3.4899,3.4899,3.4899,3.4923,3.5041,3.5088,3.5128,3.5245,3.5291,3.5308,3.5308,3.5111,3.4923,3.5065,3.5198,3.5308,3.5291,3.5291,3.509,3.4376,3.4192,3.3773,3.2294,3.1976,3.1779,3.1026,3.0892,3.0892,3.0892,3.0892,3.0892,3.0895,3.0272,2.98,2.9783,2.913,2.8412,2.7676,2.7593,2.7308,2.6552,2.6365,2.6365,2.6485,2.6365,2.6365,2.6485,2.6502,2.6502,2.6502,2.6502,2.6502,2.6502,2.6555,2.6555,2.6486,2.6555,2.6572,2.9461,3.0038,3.005,2.8881,2.8898,2.8388,2.5283,2.481,2.4431,2.2245,2.1812,2.1812,2.1812,2.1812,2.2376,2.4116,0.0,0.0,2.8094,2.9615,3.0853,3.183,3.3276,3.4286,3.4518,3.475,3.4899,3.4899,3.4899,3.4899,3.4899,3.4899,3.4899,3.4899,3.4899,3.4899,3.4899,3.4899,3.4899,3.4899,3.4899,3.4899,3.4899,3.4899,3.4899,3.4899,3.4899,3.4899,3.4899,3.4899,3.4899,3.4899,3.4899,3.4899,3.4899,3.4899,3.497,3.5041,3.5105,3.5175,3.5268,3.54,3.536,3.5314,3.5423,3.5314,3.5175,3.5222,3.5314,3.5423,3.5314,3.5377,3.5379,3.5143,3.4673,3.4174,3.3789,3.2854,3.2001,3.1765,3.1288,3.0912,3.0955,3.0955,3.1012,3.1092,3.0906,3.0718,3.0619,2.9984,2.9429,2.9194,2.8269,2.7361,2.6569,2.6468,2.6451,2.6502,2.6468,2.6468,2.6502,2.6537,2.6571,2.6571,2.6606,2.6606,2.6571,2.664,2.6657,2.664,2.6657,2.6674,2.7604,2.8407,2.8479,2.7624,2.7394,2.6779,2.453,2.4149,2.3802,2.2129,2.1812,2.1698,2.1448,2.1381,2.1845,2.3222,2.3918,2.5044,2.7247,2.9019,3.0555,3.1868,3.3475,3.4485,3.4485,3.4733,3.4899,3.4899,3.4899,3.4899,3.4899,3.4899,3.4899,3.4899,3.4899,3.4899,3.4899,3.4899,3.4899,3.4899,3.4899,3.4899,3.4899,3.4899,3.4899,3.4899,3.4899,3.4899,0.0,3.4899,3.4899,3.4899,3.4899,3.4923,3.497,3.497,3.5065,3.5175,3.5222,3.5314,3.5383,3.5498,3.5498,3.5412,3.552,3.5452,3.5377,3.5377,3.5452,3.552,3.5435,3.5475,3.5543,3.5543,3.5155,3.4739,3.4535,3.3719,3.2891,3.2496,3.1881,3.1395,3.1269,3.1157,3.1095,3.119,3.131,3.1351,3.1257,3.0984,3.0702,3.0411,2.9573,2.8716,2.7929,2.7046,2.6554,2.6572,2.6537,2.6554,2.6555,2.6623,2.664,2.664,2.6691,2.6742,2.6825,2.7005,2.7004,2.6891,2.6891,2.6825,0.0,2.6776,2.7126,2.6697,2.5613,2.4505,2.3968,2.3305,0.0,2.1864,2.168,2.1481,2.0884,2.0735,2.0768,2.0984,2.221,2.3884,2.6036,2.8288,3.051,3.2619,3.3514,3.3938,3.3872,3.4485,3.4899,3.4899,3.4899,3.4899,3.4899,3.4899,3.4899,3.4899,3.4899,3.4899,3.4899,3.4899,3.4899,3.4899,3.4899,3.4899,3.4899,3.4899,3.4899,0.0,3.4899,3.4899,0.0,3.4899,3.4899,3.4923,3.4923,3.4994,3.5111,3.5111,3.5198,3.5314,3.5469,3.5492,3.5514,3.5594,3.56,3.56,3.56,3.5549,3.5514,3.5514,3.5549,3.56,3.56,3.56,3.56,3.56,3.5622,3.5464,3.4791,3.4609,3.4316,3.3296,3.2755,3.2324,3.1863,3.1553,3.1339,3.1249,3.1524,3.1732,3.1732,3.2074,3.2053,3.135,3.1244,3.091,3.024,2.8098,2.6809,2.6826,2.6742,2.6691,2.6691,2.6691,2.6708,2.6741,2.6758,2.6923,2.7228,2.7552,2.7552,2.7228,2.7228,2.7069,2.3523,0.0,2.4432,2.3782,2.3884,2.3836,0.0,2.2193,2.1862,2.1116,2.0505,2.0409,2.1381,2.1083,2.1448,2.3702,2.4829,2.6005,2.7663,3.0692,3.316,3.4237,3.5032,3.5263,3.47,3.48,3.4899,3.4899,3.4899,3.4899,3.4899,3.4899,3.4899,3.4899,3.4899,3.4899,3.4899,3.4899,3.4899,3.4899,3.4899,3.4899,3.4899,3.4899,3.4899,3.4899,3.4899,3.4899,3.4899,3.4899,3.497,3.5041,3.5041,3.5111,3.5245,3.5245,3.5337,3.5469,3.5492,3.552,3.5594,3.56,3.56,3.56,3.56,3.5577,3.5594,3.5594,3.5577,3.56,3.56,3.56,3.56,3.56,3.5871,3.6079,3.5912,3.5682,3.5403,3.517,3.4572,3.3814,3.2789,3.2817,3.2663,3.1724,3.1914,3.2162,3.2162,3.2248,3.223,3.2071,3.1526,3.1139,3.0963,2.9624,2.8578,2.8043,2.7709,2.7266,2.6725,2.6691,2.6825,2.7085,2.7321,2.7489,2.758,2.7672,2.7672,2.7582,2.7582,2.7535,2.1935,2.2813,2.3654,2.3326,2.3126,2.2775,2.198,2.1284,2.0688,2.029,1.9879,1.9846,2.064,2.0737,2.1332,2.3272,2.4779,2.6684,2.9466,3.2133,3.4054,3.48,3.5247,3.5346,3.4932,3.5197,3.5263,3.4932,3.5214,3.5263,3.4916,3.4899,3.4899,3.4899,3.4899,3.4899,3.4899,3.4899,3.4899,3.4899,3.4899,3.4923,3.4994,3.4994,3.5018,3.5088,3.5088,3.5088,3.5088,3.5088,3.5128,3.5198,3.5198,3.5268,3.54,3.54,3.5452,3.5543,3.5543,3.5571,3.56,3.56,3.5756,3.5915,3.5915,3.6049,3.6161,3.5963,3.5915,3.5915,3.5915,3.5761,3.5667,3.5871,3.611,3.6364,3.6553,3.6427,3.6237,3.6073,3.5593,3.4935,3.4091,3.4004,3.3687,3.2683,3.2844,3.296,3.2571,3.2684,3.2798,3.2798,3.2458,3.2208,3.2208,3.1462,3.048,2.9248,2.8985,2.8678,2.8281,2.8082,2.7894,2.7714,2.8561,2.8623,2.7883,2.8411,2.8379,2.7883,2.8255,2.8359,2.0974,2.2249,2.3638,2.3521,2.2725,2.1945,2.1829,2.0754,1.978,1.978,1.968,1.97,2.0031,2.0605,2.1348,2.2326,2.4315,2.7195,3.135,3.321,3.4319,3.4833,3.5098,3.5197,3.5081,3.5528,3.5628,3.5098,3.5545,3.5562,3.4932,3.4899,3.4899,3.4899,3.4899,3.4899,3.4923,3.4923,3.4923,3.4923,3.4923,3.4994,3.5111,3.5111,3.5198,3.5291,0.0,0.0,3.5291,3.5291,3.5314,3.5314,3.5314,3.5423,3.5514,3.5514,3.5566,3.56,3.56,3.56,3.5622,3.5672,3.598,3.6322,3.6367,3.6678,3.6919,3.6577,3.643,3.6388,3.6388,3.6092,3.5915,3.6284,3.643,3.6577,3.6919,3.7036,3.6995,3.6667,3.6362,3.6004,3.5472,3.5208,3.4765,3.39,3.3963,3.384,3.316,3.3283,3.3393,3.3393,3.3393,3.3393,3.3393,3.3083,3.2244,3.0696,3.0392,3.0205,3.0099,2.9823,2.9328,2.8636,2.991,2.9901,2.8541,2.9503,2.9485,2.8559,2.9239,2.9451,2.1483,2.2327,2.2743,2.1499,2.1978,2.2559,2.1945,2.1149,2.0536,2.0536,2.0028,2.0163,2.2046,2.2477,2.3205,2.5209,2.7328,2.9864,3.3011,3.4733,3.5462,3.4965,3.6009,3.6522,3.5893,3.5363,3.528,3.5794,3.5363,3.5015,3.4899,3.4899,3.4899,3.4899,3.4899,3.4947,3.5065,3.497,3.497,3.5065,3.5065,3.5152,3.5268,3.5268,3.5268,3.5291,0.0,3.5291,3.5291,3.5291,3.5377,3.5469,3.5469,3.552,3.5577,3.5577,3.5577,3.56,3.56,3.56,3.5667,3.6067,3.6237,3.6346,3.6701,3.7094,3.7395,3.7322,3.7075,3.6801,3.6801,3.6741,3.6721,3.6781,3.7075,3.7322,3.7377,3.7721,3.7984,3.7927,3.7856,3.7483,3.6415,3.6445,3.626,3.5114,3.4684,3.4457,3.4349,3.378,3.3393,3.3393,3.3393,3.3393,3.3393,3.3349,3.3196,3.2913,3.1726,3.0752,3.0133,3.0249,3.0285,3.016,3.0671,3.0803,3.0568,3.0736,3.0736,3.0568,3.0677,3.0721,2.0042,2.1135,2.2061,2.0967,2.2096,2.3404,2.3073,2.2096,2.1298,2.1298,2.1019,2.1218,2.2642,2.3553,2.506,2.8039,3.0175,3.1983,3.3587,3.4717,3.528,3.4932,3.5495,3.5777,3.5446,3.5462,3.5462,3.5413,3.5462,3.5313,3.4916,3.4899,3.4923,3.4994,3.4994,3.4882,3.4631,3.4545,3.4751,3.5198,3.5198,3.5268,3.5423,3.5423,3.5429,3.5458,0.0,3.5458,3.5458,3.5458,3.5503,3.5549,3.5549,3.5571,3.56,3.56,3.56,3.56,3.56,3.5778,3.6023,3.6237,3.6597,3.6978,3.717,3.7523,3.788,3.788,3.7559,3.7209,3.7209,3.7075,3.6958,3.717,3.7377,3.756,3.7827,3.8054,3.8209,3.8209,3.8209,3.8032,3.7481,3.7529,3.7308,3.6312,3.6029,3.5729,3.5297,3.4552,3.4063,3.4063,3.3665,3.3393,3.3393,3.3393,3.3393,3.3393,3.276,3.2152,3.1572,3.19,3.176,3.1115,3.1892,3.1872,3.0998,3.1451,3.1419,3.1016,3.1437,3.1636,1.9118,2.0141,2.1234,2.1017,2.2361,2.3835,2.4183,2.3318,2.2532,2.2848,2.2992,2.319,2.368,2.5129,2.7326,3.0601,3.2513,3.3729,3.4122,3.4878,3.5255,3.4939,3.5103,3.5267,3.5195,3.556,3.5627,3.5229,3.5577,3.5544,3.498,3.4947,3.4994,3.5152,3.4985,3.4664,3.4225,3.4225,3.4493,3.5069,3.5069,3.5238,3.552,3.552,3.5566,3.56,3.56,3.56,3.56,3.56,3.56,3.56,3.56,3.56,3.56,3.56,3.5667,3.5761,3.5761,3.6049,3.6451,3.6536,3.6997,3.7523,3.7632,3.7897,3.8209,3.8209,3.795,3.765,3.765,3.745,3.7282,3.7596,3.765,3.7756,3.8123,3.8209,3.8209,3.8209,3.8209,3.8209,3.8209,3.8209,3.7991,3.7375,3.7122,3.6777,3.6164,3.5385,3.4808,3.4609,3.4063,3.361,3.3429,3.3393,3.3393,3.3393,3.3393,3.3271,3.2939,3.3241,3.2967,3.2043,3.2931,3.2795,3.156,3.218,3.2162,3.1582,3.218,3.2488,2.037,2.0158,2.0078,2.1383,2.2359,2.3338,2.4713,2.4645,2.4683,2.6,2.6501,2.6649,2.6387,2.814,3.0378,3.2648,3.399,3.4912,3.5239,3.6192,3.6372,3.506,3.5773,3.631,3.6121,3.5531,3.5414,3.6046,3.5514,3.5155,3.5105,3.5105,3.5152,3.5268,3.4615,3.4259,3.4275,3.4275,3.433,3.4381,3.4381,3.4796,3.56,3.56,3.56,3.56,3.56,3.56,3.56,3.56,3.56,3.56,3.56,3.56,3.56,3.56,3.5871,3.6259,3.6259,3.6533,3.6919,3.7284,3.745,3.7578,3.802,3.8157,3.8209,3.8209,3.8175,3.814,3.814,3.8123,3.8106,3.814,3.814,3.8157,3.8192,3.8209,3.8209,3.8209,3.8209,3.8209,3.8209,3.8209,3.8191,3.8118,3.7484,3.6977,3.6922,3.6218,3.5424,3.4679,3.4552,3.4208,3.3465,3.3393,3.3393,3.3393,3.3393,3.3378,3.3364,3.3378,3.336,3.3273,3.336,3.3339,3.323,3.3284,3.3284,3.323,3.3284,3.3302,1.925,2.0291,2.1284,2.1312,2.3051,2.4864,2.5245,2.595,2.6962,2.8628,2.8699,2.8579,2.8901,3.0205,3.1751,3.3254,3.4422,3.528,3.5669,3.6059,3.6122,3.5583,3.5706,3.5822,3.5833,3.5395,3.5268,3.5623,3.5372,3.5222,3.5222,3.5222,3.5291,3.5423,3.4667,3.4308,3.4423,3.3968,3.3968,3.4423,3.4896,3.5267,3.56,3.56,3.56,3.56,3.56,3.56,3.56,3.56,3.56,3.56,3.56,3.5761,3.6045,3.6045,3.6305,3.6678,3.6678,3.6939,3.7302,3.745,3.7703,3.7967,3.814,3.8209,3.8209,3.8209,3.8209,3.8209,3.8209,3.8209,3.8209,3.8209,3.8209,3.8209,3.8209,3.8209,3.8209,3.8209,3.8209,3.8209,3.8209,3.8209,3.8209,3.8209,3.7937,3.7756,3.7756,3.7049,3.6417,3.6125,3.5204,3.448,3.4172,3.3701,3.3393,3.3393,3.3393,3.3393,3.3393,3.3393,3.3393,3.3393,3.3393,3.3393,3.3393,3.3393,3.3393,3.3393,3.3393,3.3393,1.8906,2.012,2.1372,2.11,2.3076,2.5251,2.5969,2.7095,2.8612,3.0795,3.0676,3.0383,3.112,3.1855,3.2673,3.3699,3.4973,3.5902,3.6071,3.6182,3.6186,3.5998,3.5885,3.5859,3.5946,3.5727,3.5588,3.5554,3.5554,3.5503,3.536,3.5377,3.5406,3.552,3.4784,3.4423,3.4489,3.3998,3.3998,3.4506,3.5245,3.56,3.56,3.56,3.56,3.56,3.56,3.56,3.56,3.56,3.56,3.5622,3.5761,3.6023,3.6322,3.6451,3.6741,3.7094,3.7094,3.7358,3.7721,3.7721,3.7933,3.8209,3.8209,3.8209,3.8209,3.8209,3.8209,3.8209,3.8209,3.8209,3.8209,3.8209,3.8209,3.8209,3.8209,3.8209,3.8209,3.8209,3.8209,3.8209,3.8209,3.8209,3.8209,3.8209,3.8209,3.8209,3.8209,3.772,3.7285,3.7031,3.5783,3.4971,3.4971,3.4244,3.3791,3.3791,3.3538,3.3393,3.3393,3.3393,3.3393,3.3393,3.3393,3.3393,3.3393,3.3393,3.3393,3.3393,3.3393,3.3393,1.978,1.9598,1.9877,2.0874,2.2248,2.409,2.6868,2.8074,2.9466,3.2467,3.252,3.2261,3.297,3.311,3.3354,3.4081,3.576,3.6871,3.6564,3.6788,3.6814,3.6274,3.6577,3.6779,3.6706,3.6706,3.6542,3.6139,3.6118,3.5937,3.5537,3.5514,3.552,3.5583,3.4878,3.4472,3.4472,3.4472,3.4472,3.4489,3.525,3.56,3.56,3.56,3.56,3.56,3.56,3.56,3.5583,3.5583,3.5583,3.5667,3.6131,3.6322,3.6364,3.6759,3.717,3.7505,3.7505,3.7809,3.8209,3.8209,3.8209,3.8209,3.8209,3.8209,3.8209,3.8209,3.8209,3.8209,3.8209,3.8209,3.8209,3.8209,3.8209,3.8209,3.8209,3.8209,3.8209,3.8209,3.8209,3.8209,3.8209,3.8209,3.8209,3.8209,3.8209,3.8209,3.8209,3.8209,3.7901,3.7104,3.629,3.5804,3.5804,3.5062,3.4624,3.4624,3.3864,3.3429,3.3393,3.3393,3.3393,3.3393,3.3393,3.3393,3.3393,3.3393,3.3393,3.3393,3.3393,3.3393,1.8452,1.9883,2.1663,2.1378,2.4298,2.7459,2.8279,2.8953,3.0143,3.2825,3.4068,3.4419,3.3544,3.3841,3.4296,3.4524,3.5438,3.6317,3.6781,3.7066,3.7145,3.6992,3.7011,3.7032,3.7055,3.6825,3.6686,3.6661,3.6661,3.6495,3.6067,3.6062,3.5676,3.4844,3.4375,3.4004,3.3728,3.4021,3.4021,3.3744,3.4991,3.56,3.56,3.56,3.56,3.56,3.56,3.5318,3.4849,3.5177,3.5783,3.6519,3.6678,3.69,3.717,3.7283,3.7596,3.7984,3.7984,3.8071,3.8209,3.8209,3.8209,3.8209,3.8209,3.8209,3.8209,3.8209,3.8209,3.8209,3.8209,3.8209,3.8209,3.8209,3.8209,3.8209,3.8209,3.8209,3.8209,3.8209,3.8209,3.8209,3.8209,3.8209,3.8209,3.8209,3.8209,3.8209,3.8209,3.8209,3.8118,3.7865,3.7122,3.6651,3.6651,3.591,3.5442,3.5442,3.5206,3.4588,3.3447,3.3393,3.3393,3.3393,3.3393,3.3393,3.3393,3.3393,3.3393,3.3393,3.3393,3.3393,1.9293,2.1002,2.2928,2.3137,2.5779,2.8574,2.9581,3.0535,3.1655,3.3178,3.4231,3.4599,3.367,3.3898,3.4337,3.4653,3.532,3.6092,3.6884,3.7126,3.726,3.741,3.7355,3.7411,3.7577,3.7395,3.7265,3.7151,3.6832,3.6501,3.6084,3.5749,3.5247,3.4518,3.4291,3.4086,3.3848,3.4086,3.4086,3.3848,3.4737,3.5338,3.5668,3.5822,3.5788,3.5633,3.5303,3.508,3.5005,3.529,3.6,3.6919,3.7075,3.7302,3.7523,3.7721,3.795,3.8209,3.8209,3.8209,3.8209,3.8209,3.8209,3.8209,3.8209,3.8209,3.8209,3.8209,3.8209,3.8209,3.8209,3.8209,3.8209,3.8209,3.8209,3.8209,3.8209,3.8209,3.8209,3.8209,3.8209,3.8209,3.8209,3.8209,3.8209,3.8209,3.8209,3.8209,3.8209,3.8209,3.8209,3.8209,3.7774,3.7484,3.7484,3.6743,3.6272,3.6272,3.5967,3.5351,3.4389,3.4063,3.3737,3.3411,3.3393,3.3393,3.3393,3.3393,3.3393,3.3393,3.3422,3.3437,2.1081,2.2314,2.3659,2.54,2.6761,2.8293,3.0758,3.2388,3.3424,3.3494,3.3564,3.3599,3.3511,3.3564,3.3828,3.4477,3.5214,3.5971,3.671,3.6967,3.7174,3.747,3.7596,3.7755,3.8048,3.8028,3.7803,3.7381,3.6666,3.6078,3.5674,3.4951,3.4511,3.4404,3.444,3.4388,3.4299,3.4388,3.4388,3.4299,3.4457,3.4861,3.5548,3.596,3.5925,3.5545,3.4755,3.4861,3.5655,3.5655,3.615,3.6949,3.7378,3.756,3.7614,3.8037,3.8209,3.8209,3.8209,3.8209,3.8209,3.8209,3.8209,3.8209,3.8209,3.8209,3.8209,3.8209,3.8209,3.8209,3.8209,3.8209,3.8209,3.8209,3.8209,3.8209,3.8209,3.8209,3.8209,3.8209,3.8209,3.8209,3.8209,3.8209,3.8209,3.8209,3.8209,3.8209,3.8209,3.8209,3.8209,3.8209,3.8209,3.8209,3.8209,3.7538,3.7104,3.7104,3.6417,3.6001,3.591,3.515,3.4371,3.3628,3.361,3.361,3.3628,3.361,3.3625,3.3625,3.3698,3.3724,1.8677,2.0628,2.31,2.4908,2.7454,2.9988,3.1756,3.2388,3.2809,3.3371,3.4003,3.4249,3.3617,3.4021,3.4284,3.3827,3.4498,3.5154,3.533,3.6185,3.6808,3.6877,3.7049,3.7183,3.7249,3.6689,3.626,3.6161,3.6017,3.5707,3.5261,3.5066,3.4553,3.3669,3.3934,3.3686,3.2774,3.3651,3.3651,0.0,3.3949,3.4446,3.4372,3.4723,3.4836,3.472,3.3966,3.4234,3.5226,3.5296,3.5969,3.7051,3.7767,3.8054,3.8054,3.8157,3.8209,3.8209,3.8209,3.8209,3.8209,3.8209,3.8209,3.8209,3.8209,3.8209,3.8209,3.8209,3.8209,3.8209,3.8209,3.8209,3.8209,3.8209,3.8209,3.8209,3.8209,3.8209,3.8209,3.8209,3.8209,3.8209,3.8209,3.8209,3.8209,3.8209,3.8209,3.8209,3.8209,3.8209,3.8209,3.8209,3.8209,3.8209,3.8209,3.8046,3.7937,3.7937,3.7792,3.741,3.684,3.6056,3.5517,3.5294,3.5338,3.5354,3.5279,3.5354,3.5366,3.5366,3.5423,3.5468,1.8876,2.1091,2.3691,2.6324,2.8553,3.0404,3.1563,3.2125,3.2511,3.288,3.3371,3.3582,3.316,3.3476,3.3758,3.3653,3.4093,3.4535,3.4854,3.556,3.6052,3.612,3.6253,3.6351,3.6417,3.6055,3.5804,3.5804,3.5442,3.511,3.488,3.4505,3.4012,3.3424,3.3604,3.3438,3.2832,3.3405,3.3405,3.2832,3.362,3.388,3.373,3.4291,3.4547,3.4512,3.3745,3.3967,3.4882,3.5312,3.6091,3.7085,3.7901,3.8209,3.8209,3.8209,3.8209,3.8209,3.8209,3.8209,3.8209,3.8209,3.8209,3.8209,3.8209,3.8209,3.8209,3.8209,3.8209,3.8209,3.8209,3.8209,3.8209,3.8209,3.8209,3.8209,3.8209,3.8209,3.8209,3.8209,3.8209,3.8209,3.8209,3.8209,3.8209,3.8241,3.8259,3.8257,3.8289,3.8305,3.8305,3.8305,3.8305,3.8305,3.8305,3.8274,3.8257,3.8289,3.8274,3.8091,3.7735,3.7346,3.6765,3.5911,3.5936,3.5921,3.5846,3.5921,3.5936,3.5905,3.6009,3.6054,1.9375,2.1861,2.4551,2.7827,2.9267,3.0088,3.0843,3.1616,3.2195,3.2195,3.2401,3.2589,3.2606,3.2706,3.3004,3.3559,3.3716,3.3945,3.4516,3.4934,3.5225,3.5326,3.5389,3.5471,3.5587,3.546,3.5388,3.5388,3.4769,3.4389,3.4389,3.3755,3.3393,3.3393,3.3393,3.3393,3.3393,3.3393,3.3393,3.3393,3.3393,3.3393,3.3429,3.4099,3.4464,3.457,3.3755,3.3864,3.4645,3.546,3.62,3.6886,3.7828,3.8209,3.8209,3.8209,3.8209,3.8209,3.8209,3.8209,3.8209,3.8209,3.8209,3.8209,3.8209,3.8209,3.8227,3.8372,3.8317,3.8263,3.8535,3.8408,3.8245,3.8372,3.8299,3.8209,3.8209,3.8209,3.8209,3.8225,3.8225,3.8225,3.8225,3.8225,3.8241,3.8323,3.8323,3.8338,3.8382,3.8399,3.8399,3.8399,3.8399,3.8399,3.8399,3.8354,3.8338,3.8399,3.8354,3.8354,3.8415,3.8478,3.7857,3.6495,3.6444,3.6398,3.6321,3.6398,3.6413,3.6352,3.6489,3.6549,1.7142,2.0617,2.4628,2.7011,2.8351,2.9263,3.0071,3.0826,3.1352,3.1352,3.1981,3.2523,3.2589,3.2706,3.2841,3.2995,3.3122,3.3237,3.3344,3.413,3.469,3.4723,3.4739,3.4754,3.4754,3.4135,3.3719,3.3719,3.3628,3.3556,3.3556,3.3465,3.3393,3.3393,3.3393,3.3393,3.3393,3.3393,3.3393,3.3393,3.3393,3.3393,3.3393,3.352,3.3954,3.457,3.3755,3.3864,3.4645,3.546,3.5858,3.6109,3.7612,3.8209,3.8209,3.8209,3.8209,3.8209,3.8209,3.8209,3.8209,3.8209,3.8209,3.8209,3.8209,3.8209,3.8354,3.9025,3.8752,3.8517,3.9858,3.9206,3.839,3.9078,3.8716,3.8209,3.8209,3.8209,3.8225,3.8274,3.829,3.829,3.829,3.829,3.8305,3.8385,3.8401,3.8382,3.8399,3.8399,3.8399,3.8399,3.8399,3.8399,3.8399,3.8382,3.8382,3.8399,3.8382,3.8415,3.8494,3.851,3.8449,3.8346,3.8232,3.8133,3.8072,3.8133,3.8165,3.8149,3.8297,3.8362,1.798,2.0462,2.3127,2.6039,2.7426,2.8332,2.9306,3.0145,3.0831,3.1319,3.1803,3.2238,3.2699,3.295,3.3078,3.3026,3.3119,3.3198,3.3101,3.3578,3.3936,3.3936,3.3936,3.3936,3.3936,3.361,3.3393,3.3393,3.3393,3.3393,3.3393,3.3393,3.3393,3.3393,3.3393,3.3393,3.3393,3.3393,3.3393,3.3393,3.3393,3.3393,3.3393,3.3393,3.3846,3.4588,3.4226,3.4534,3.5297,3.5641,3.6073,3.6544,3.7249,3.781,3.8209,3.8209,3.8209,3.8209,3.8209,3.8209,3.8209,3.8209,3.8209,3.8209,3.8209,3.8517,3.8952,3.9297,3.9441,3.9641,4.0311,4.0003,3.9586,3.993,3.9802,3.96,3.96,3.8893,3.8257,3.829,3.8322,3.8336,3.8307,3.8322,3.8385,3.8446,3.8462,3.8478,3.8562,3.8562,3.8562,3.8562,3.8562,3.8562,3.8562,3.8496,3.8496,3.8562,3.8496,3.8494,3.8609,3.8609,3.8643,3.8707,3.8643,3.8559,3.8462,3.8559,3.8575,3.851,3.8643,3.8707,1.8363,1.9807,2.107,2.4431,2.5932,2.6909,2.8126,2.9107,2.9978,3.082,3.126,3.1742,3.2516,3.2993,3.3277,3.3196,3.3259,3.3292,3.3196,3.3319,3.3393,3.3393,3.3393,3.3393,3.3393,3.3393,3.3393,3.3393,3.3393,3.3393,3.3393,3.3393,3.3393,3.3393,3.3393,3.3393,3.3393,3.3393,3.3393,3.3393,3.3393,3.3393,3.3393,3.3393,3.3954,3.4881,3.4682,3.5062,3.5822,3.6019,3.6453,3.7013,3.723,3.7665,3.8209,3.8209,3.8209,3.8209,3.8209,3.8209,3.8209,3.8209,3.8209,3.8245,3.8444,3.8933,3.9478,3.9876,4.0238,4.0583,4.1017,4.0818,4.0564,4.0799,4.078,4.0705,4.0722,3.981,3.8919,3.8685,3.8713,3.8672,3.8407,3.8401,3.8519,3.88,3.8687,3.8648,3.8967,3.8836,3.8707,3.8707,3.8707,3.8707,3.8707,3.8609,3.859,3.8692,3.8609,3.8609,3.8692,3.8707,3.8707,3.8707,3.8707,3.8658,3.8559,3.8658,3.8658,3.8559,3.8658,3.8707,1.683,1.7803,1.868,2.1667,2.3405,2.4756,2.6222,2.7406,2.8425,2.9168,3.0091,3.1002,3.181,3.2676,3.3307,3.3382,3.3378,3.3378,3.3396,3.3393,3.3393,3.3393,3.3393,3.3393,3.3393,3.3393,3.3393,3.3393,3.3393,3.3393,3.3393,3.3393,3.3393,3.3393,3.3393,3.3393,3.3393,3.3393,3.3393,3.3393,3.3393,3.3393,3.3393,3.3393,3.4262,3.5695,3.4917,3.5062,3.5858,3.6633,3.6959,3.7085,3.7846,3.8172,3.8209,3.8209,3.8209,3.8209,3.8209,3.8209,3.8209,3.8209,3.8209,3.8354,3.9097,3.9369,3.9695,4.1162,4.1053,4.0854,4.2375,4.1651,4.0727,4.1615,4.1251,4.0722,4.0772,4.0821,4.0598,3.9712,3.9652,3.9463,3.8622,3.8476,3.8797,3.9682,3.9184,3.8982,3.9735,3.9166,3.8707,3.8707,3.8707,3.8707,3.8707,3.8692,3.8692,3.8707,3.8692,3.8692,3.8707,3.8707,3.8707,3.8707,3.8707,3.8692,3.8692,3.8692,3.8692,3.8692,3.8707,3.8707,1.5541,1.6487,1.7417,1.9604,2.1704,2.3445,2.4297,2.6058,2.7758,2.8578,2.949,3.0365,3.112,3.1989,3.2766,3.3306,3.3393,3.3393,3.3393,3.3393,3.3393,3.3393,3.3393,3.3393,3.3393,3.3393,3.3393,3.3393,3.3393,3.3393,3.3393,3.3393,3.3393,3.3393,3.3393,3.3393,3.3393,3.3393,3.3393,3.3393,3.3393,3.3393,3.3393,3.3393,3.3719,3.428,3.4516,3.5639,3.7286,3.6544,3.6526,3.7031,3.7321,3.743,3.7502,3.8009,3.8209,3.8209,3.8209,3.8209,3.8209,3.8209,3.8209,3.8354,3.9152,3.9731,4.0329,4.1397,4.185,4.2176,4.2756,4.2466,4.2159,4.2614,4.2504,4.2357,4.2497,4.176,4.0938,4.0579,4.0557,4.0533,4.0172,4.015,4.0274,4.0618,3.9992,3.957,3.9845,3.9203,3.8707,3.8707,3.8707,3.8707,3.8707,3.8707,3.8707,3.8707,3.8707,3.8707,3.8707,3.8707,3.8707,3.8707,3.8707,3.8707,3.8707,3.8707,3.8707,3.8707,3.8707,3.8707,1.4599,1.5296,1.6181,1.835,1.9857,2.1288,2.3157,2.4635,2.6069,2.7751,2.858,2.9306,3.0351,3.0993,3.1745,3.2814,3.2777,3.2777,3.3321,3.3176,3.3103,3.3375,3.3393,3.3393,3.3393,3.3393,3.3393,3.3393,3.3393,0.0,3.3393,3.3393,3.3393,3.3393,3.3393,3.3393,3.3393,3.3393,3.3393,3.3393,3.3393,3.3393,3.3393,3.3393,3.3556,3.3828,3.4081,3.5258,3.6924,3.6146,3.6109,3.6633,3.6886,3.6995,3.7104,3.7901,3.8209,3.8209,3.8209,3.8209,3.8209,3.8209,3.8209,3.8408,3.9441,4.0111,4.0709,4.1814,4.2484,4.2901,4.2901,4.2939,4.3031,4.316,4.325,4.3339,4.348,4.2653,4.1811,4.1504,4.1466,4.139,4.1084,4.1062,4.1187,4.1462,4.0818,4.0396,4.0671,3.9772,3.9093,3.9093,3.8927,3.8837,3.8837,3.8925,3.8921,3.8837,3.8837,3.8777,3.8707,3.8707,3.8707,3.8707,3.8707,3.8735,3.8837,3.8837,3.8837,3.8837,3.8921,3.8964,0.0,0.0,0.0,1.7811,1.7776,1.8211,2.2745,2.3018,2.3253,2.6495,2.7224,2.7797,2.944,2.973,3.0255,3.1872,3.1492,3.1546,3.3103,3.2687,3.2488,3.3266,3.3393,3.3393,3.3393,3.3393,3.3393,3.3393,3.3393,3.3393,3.3393,3.3393,3.3393,3.3393,3.3393,3.3393,3.3393,3.3393,3.3393,3.3393,3.3393,3.3393,3.3393,3.3393,3.3828,3.4519,3.3737,3.3846,3.4643,3.5424,3.5768,3.584,3.6651,3.6959,3.7067,3.7865,3.8191,3.8209,3.8209,3.8209,3.8209,3.8209,3.8209,3.8482,4.0021,4.0492,4.0836,4.2448,4.2901,4.2901,4.2901,4.305,4.3196,4.3214,4.3339,4.3497,4.3515,4.3515,4.3276,4.2488,4.2341,4.2084,4.1297,4.1168,4.1425,4.2213,4.1662,4.1407,4.2194,4.0926,3.9934,3.9898,3.9468,3.9171,3.9152,3.94,3.942,3.9147,3.9115,3.9007,3.8719,3.8719,3.8719,3.8719,3.8719,3.8851,3.9115,3.9101,3.9101,3.9129,3.9389,3.9495,1.4013,0.0,0.0,0.0,0.0,0.0,1.827,1.9558,2.1293,2.3526,2.4418,2.5461,2.7671,2.8069,2.8594,3.0201,3.0781,3.1161,3.16,3.1962,3.227,3.2506,3.3049,3.3393,3.3393,3.3393,3.3393,0.0,3.3393,3.3393,3.3393,3.3393,3.3393,3.3393,3.3393,3.3393,3.3393,3.3393,3.3393,3.3393,3.3393,3.3393,3.3393,3.3393,3.352,3.3719,3.3502,3.3538,3.3791,3.4606,3.4917,3.5007,3.582,3.6127,3.6236,3.7049,3.7701,3.8209,3.8209,3.8209,3.8209,3.8209,3.8209,3.8482,4.0021,4.0492,4.0836,4.2448,4.2901,4.2901,4.2901,4.3012,4.3142,4.3196,4.3323,4.3446,4.3497,4.3515,4.3441,4.3221,4.3167,4.3094,4.2873,4.2837,4.291,4.313,4.2488,4.2047,4.2268,4.1575,4.0822,4.0252,4.0793,4.0931,4.03,4.034,4.0353,4.0257,3.972,3.9363,3.9285,3.9285,3.9285,3.9285,3.9285,3.9324,3.9401,3.9192,3.9192,3.9401,3.9477,3.9592,1.4262,1.4859,1.5335,1.4847,0.0,0.0,1.7371,1.823,1.9592,2.2034,2.3218,2.432,2.6077,2.6663,2.7327,2.8594,2.9192,2.9844,3.0871,3.1111,3.1324,3.1668,3.2107,3.2397,3.2397,3.2397,3.2397,3.2397,3.2397,3.2397,3.2397,3.2397,3.2542,3.2886,3.2904,3.3067,3.3393,3.3393,3.3393,3.3393,3.3393,3.3393,3.3393,3.3393,3.3393,3.3393,3.3393,3.3393,3.3447,3.3918,3.4099,3.419,3.4989,3.5496,3.5894,3.6705,3.7502,3.8209,3.8209,3.8209,3.8209,3.8209,3.8209,3.8444,3.9677,4.0274,4.0764,4.2049,4.2684,4.2994,4.2994,4.3105,4.3233,4.3269,4.3358,4.3464,4.3497,4.3515,4.3515,4.3515,4.3515,4.3515,4.3515,4.3515,4.3515,4.3515,4.3229,4.3014,4.3014,4.2534,4.203,4.1563,4.1574,4.1417,4.0908,4.0669,4.0492,4.038,3.9934,3.9623,3.9495,3.9514,3.9514,3.9514,3.9514,3.9563,3.967,3.9514,3.9575,3.9837,3.9837,3.9933,1.48,1.5139,1.5775,1.6323,1.5646,0.0,1.8104,1.8013,1.8206,2.1095,2.2453,2.3461,2.4429,2.5208,2.5957,2.6862,2.7152,2.8087,3.0405,3.0201,3.0074,3.0781,3.0962,3.0998,3.0998,3.0998,3.0998,3.0998,3.0998,3.0998,3.0998,3.0998,3.1329,3.2035,3.2144,3.2542,3.3266,3.3357,3.3393,3.3393,3.3393,3.3393,3.3393,3.3393,3.3393,3.3393,3.3393,3.3393,3.3393,3.3393,3.3447,3.361,3.4226,3.5077,3.6019,3.6651,3.743,3.8209,3.8209,3.8209,3.8209,3.8209,3.8209,3.8354,3.9152,3.9858,4.0546,4.1451,4.2304,4.2995,4.3086,4.3251,4.3394,4.3394,4.3464,4.3515,4.3515,4.3515,4.3515,4.3515,4.3515,4.3515,4.3515,4.3513,4.3548,4.3548,4.3828,4.4048,4.4048,4.3657,4.3305,4.3117,4.208,4.135,4.1149,4.0719,4.0329,4.0089,3.9992,3.9848,3.9599,3.9599,3.9599,3.9599,3.9599,3.9705,3.9935,3.9935,4.0077,4.0301,4.0301,4.0301,1.6044,1.6315,1.6221,1.5189,1.6042,0.0,1.5227,1.615,1.7409,1.7733,1.8455,1.9693,2.1803,2.231,2.2872,2.4284,2.5588,2.7043,2.8817,2.9481,2.9857,3.002,3.0618,3.0998,3.0998,3.0998,3.0998,3.0998,3.0998,3.0998,3.0998,3.0998,3.1071,3.122,3.1854,3.227,3.2433,3.3085,3.3393,3.3393,3.3393,3.3393,3.3393,3.3393,3.3393,3.3393,3.3393,3.3393,3.3393,3.3393,3.3791,3.4317,3.3828,3.4914,3.6723,3.6218,3.6942,3.8209,3.8209,3.8209,3.8209,3.8209,3.8209,3.8354,3.9152,3.9496,3.9912,4.1307,4.1905,4.2287,4.2941,4.3251,4.3394,4.3394,4.3464,4.3515,4.3515,4.3515,4.3515,4.3515,4.3515,4.3515,4.3515,4.3732,4.391,4.391,4.4132,4.4318,4.4318,4.4427,4.3969,4.2614,4.3053,4.2886,4.1532,4.1323,4.1237,4.1198,4.0578,4.0186,4.0147,4.0147,4.0147,4.0147,4.0147,4.0166,4.0225,4.0225,4.0244,4.0301,4.0301,4.0301,1.6747,1.6944,1.7067,1.6329,1.6486,0.0,0.0,1.6133,1.6698,1.8061,1.8115,1.8642,2.1061,2.1169,2.1423,2.2998,2.4248,2.528,2.6084,2.7598,2.8594,2.8594,2.8956,2.9192,2.9192,2.9572,2.9807,2.9807,2.9807,2.9807,2.9807,2.9807,2.9989,3.04,3.1166,3.1781,3.2198,3.2995,3.3393,3.3393,3.3393,3.3393,3.3393,3.3393,3.3393,3.3393,3.3393,3.3393,3.3393,3.3393,3.3882,3.4519,3.3719,3.4624,3.6345,3.5949,3.6816,3.8209,3.8209,3.8209,3.8209,3.8209,3.8209,3.8281,3.868,3.9079,3.9641,4.0782,4.1524,4.2031,4.245,4.2994,4.3464,4.3464,4.348,4.3515,4.3515,4.3515,4.3548,4.3716,4.3749,4.3749,4.3749,4.3999,4.4192,4.4192,4.443,4.4599,4.4599,4.4856,4.457,4.3284,4.3295,4.2889,4.1609,4.1132,4.0903,4.0903,4.0511,4.0301,4.0301,4.0301,4.0301,4.0301,4.0301,4.0301,4.0301,4.0301,4.0301,4.0301,4.0301,4.0301,1.7484,1.7659,1.8155,1.7867,1.7207,1.6804,0.0,0.0,0.0,1.8932,1.8579,1.8497,2.0445,2.0282,2.0264,2.1558,2.2672,2.3252,2.2936,2.4846,2.6373,2.6663,2.6971,2.717,2.717,2.7622,2.8093,2.8582,2.8165,2.8111,2.8582,2.86,2.8889,2.9549,3.0364,3.1161,3.1962,3.2777,3.3248,3.3393,3.3393,3.3393,3.3393,3.3393,3.3393,3.3393,3.3393,3.3393,3.3393,3.3393,3.3791,3.4317,3.3828,3.4519,3.5822,3.5967,3.6852,3.7991,3.8154,3.8209,3.8209,3.8209,3.8209,3.8209,3.8209,3.8662,3.9351,4.0274,4.1141,4.1846,4.2192,4.2881,4.3515,4.3515,4.3548,4.3599,4.3599,4.3649,4.3744,4.4014,4.4106,4.4136,4.4094,4.4289,4.4479,4.4479,4.472,4.491,4.491,4.5121,4.4914,4.3873,4.3195,4.2374,4.1361,4.0673,4.0301,4.0301,4.0301,4.0301,4.0301,4.0301,4.0301,4.0301,4.0301,4.0301,4.0301,4.0301,4.0301,4.0301,4.0301,4.0301,1.886,1.9198,1.9427,1.8121,1.8674,1.8949,1.6828,0.0,1.8725,1.7353,0.0,1.7972,1.8262,0.0,0.0,1.8425,2.03,2.126,1.9838,2.1097,2.2691,2.4049,2.5461,2.6337,2.6337,2.5769,2.6312,2.8437,2.662,2.6337,2.8491,2.86,2.8636,2.8726,2.9518,3.0328,3.1143,3.1926,3.2687,3.3393,3.3393,3.3393,3.3393,3.3393,3.3393,3.3393,3.3393,3.3393,3.3393,3.3393,3.3447,3.361,3.4226,3.5007,3.5876,3.6598,3.6977,3.7249,3.7955,3.8209,3.8209,3.8209,3.8209,3.8209,3.8209,3.8263,3.866,4.0235,4.0793,4.128,4.2829,4.3373,4.3515,4.3515,4.3732,4.3942,4.3942,4.4132,4.4318,4.436,4.4546,4.4624,4.4402,4.4572,4.4751,4.4751,4.5034,4.5246,4.5246,4.5286,4.4685,4.3119,4.2851,4.2163,4.0568,4.0339,4.0301,4.0301,4.0301,4.0301,4.0301,4.0301,4.0301,4.0301,4.0301,4.0301,4.0301,4.0301,4.0301,4.0301,4.0301,4.0301,1.9096,1.9439,1.9849,1.9224,1.8998,1.8728,1.8045,1.7815,1.7915,1.8493,0.0,0.0,0.0,0.0,0.0,0.0,1.8751,1.9005,1.7863,1.9095,2.068,2.2274,2.3071,0.0,2.5371,2.4773,2.5117,2.7061,2.5407,2.5353,2.7767,2.7894,2.8129,2.86,2.9373,3.0183,3.0998,3.1799,3.2596,3.3393,3.3393,3.3393,3.3393,3.3393,3.3393,3.3393,3.3393,3.3393,3.3393,3.3393,3.3393,3.3538,3.4806,3.5206,3.5188,3.6019,3.6598,3.7122,3.7919,3.8209,3.8209,3.8209,3.8209,3.8209,3.8209,3.8242,3.8493,3.967,4.0444,4.1183,4.2388,4.3097,4.342,4.3123,4.3524,4.3903,4.3546,4.3966,4.4457,4.4599,4.4714,4.4831,4.4917,4.5011,4.5098,4.5098,4.5205,4.5307,4.5307,4.5307,4.4647,4.2985,4.3214,4.2832,4.1132,4.1457,4.1533,4.1036,4.0559,4.0511,4.0979,4.0559,4.0511,4.0998,4.054,4.0301,4.0301,4.0301,4.0301,4.0301,4.0301,4.0301,1.9215,1.9744,2.0475,1.9862,1.9158,1.8671,1.8857,1.8056,1.7728,1.9351,1.8787,0.0,0.0,0.0,1.799,1.79,0.0,1.7718,1.6251,1.7247,1.8707,2.0318,2.1097,2.2256,0.0,2.3234,2.3343,2.5389,2.365,2.3741,2.659,2.6952,2.7441,2.8256,2.9047,2.9952,3.0998,3.1582,3.2379,3.3393,3.3393,3.3393,3.3393,3.3393,3.3393,3.3393,3.3393,3.3393,3.3393,3.3393,3.3393,3.352,3.4682,3.479,3.4461,3.5928,3.6544,3.6832,3.7863,3.8242,3.8242,3.8257,3.8241,3.8224,3.8257,3.829,3.8502,3.9354,4.011,4.0884,4.177,4.2478,4.2924,4.2831,4.3368,4.3834,4.3611,4.4144,4.4707,4.491,4.4946,4.5023,4.5256,4.5307,4.5307,4.5307,4.5307,4.5307,4.5307,4.5307,4.4743,4.3291,4.3643,4.3414,4.1972,4.2431,4.2526,4.1896,4.1304,4.1246,4.182,4.1304,4.1151,4.1495,4.0922,4.0511,4.0301,4.0301,4.0301,4.0301,4.0301,4.0301,0.0,0.0,0.0,1.9486,0.0,0.0,0.0,1.8843,1.9374,1.8938,2.0181,2.1133,2.0427,2.088,2.059,1.828,1.8552,0.0,0.0,1.509,1.6219,1.7827,2.0083,2.183,0.0,2.0644,2.0545,0.0,2.0998,2.0961,2.4864,2.5823,2.6609,2.7405,2.8219,2.9396,3.098,3.1034,3.1818,3.3393,3.3393,3.3393,3.3393,3.3393,3.3393,3.3393,3.3393,3.3393,3.3393,3.3393,3.3393,3.3411,3.3465,3.3465,3.3828,3.6961,3.7142,3.6073,3.7729,3.8307,3.8307,3.8368,3.8354,3.8323,3.8385,3.8401,3.8597,3.9538,3.9811,4.0091,4.1218,4.1546,4.1824,4.2833,4.3353,4.3829,4.4586,4.5015,4.5267,4.5267,4.5267,4.5297,4.5297,4.5307,4.5307,4.5307,4.5307,4.5307,4.5307,4.5307,4.4953,4.4064,4.3987,4.3663,4.2832,4.2775,4.2794,4.2756,4.2737,4.2737,4.2756,4.2737,4.2335,4.1514,4.1457,4.1074,4.0301,4.0301,4.0301,4.0301,4.0301,4.0301,0.0,0.0,2.1992,2.075,0.0,0.0,0.0,0.0,0.0,0.0,0.0,0.0,2.0445,2.0518,2.0264,1.8914,1.8026,1.6958,0.0,1.5325,1.5705,1.6255,1.8435,1.9811,1.954,1.9276,1.9974,2.2129,2.0807,2.1387,2.4827,2.5769,2.6584,2.7369,2.8183,2.9119,3.0201,3.0726,3.1528,3.2614,3.3158,3.3393,3.3393,3.3393,3.3393,3.3393,3.3393,3.3393,3.3393,3.3393,3.3393,3.3447,3.3991,3.3894,3.372,3.5835,3.6256,3.6037,3.7729,3.8322,3.8368,3.8382,3.8366,3.8368,3.8382,3.843,3.869,3.9712,4.0059,4.0382,4.1479,4.1754,4.1911,4.2442,4.3099,4.3718,4.4162,4.4804,4.5125,4.4551,4.4437,4.4265,4.373,4.4093,4.4647,4.5201,4.5307,4.5307,4.5307,4.5307,4.4972,4.4083,4.4532,4.4513,4.3663,4.3586,4.3586,4.3586,4.31,4.3042,4.3567,4.308,4.2908,4.3157,4.2068,4.1361,4.1094,4.0559,4.0301,4.0301,4.0301,4.0301,2.0923,2.1515,0.0,2.1025,2.0679,0.0,1.9261,0.0,1.9911,0.0,0.0,0.0,0.0,0.0,2.0699,1.9331,1.799,1.665,0.0,1.5071,1.5071,1.5071,1.695,1.8153,1.7918,1.7592,1.829,2.0481,1.963,2.0418,0.0,2.5045,2.6138,2.6952,2.8038,2.8993,2.9784,3.06,3.1401,3.2198,3.3013,3.3393,3.3393,3.3393,3.3393,3.3393,3.3393,3.3393,3.3393,3.3393,3.3393,3.3447,3.3973,3.3908,3.3713,3.5592,3.6479,3.6905,3.799,3.8401,3.8446,3.8496,3.8481,3.8462,3.8618,3.8676,3.8892,3.9663,3.9955,4.0195,4.0979,4.1192,4.1417,4.2261,4.2916,4.3531,4.431,4.4895,4.5029,4.4159,4.4006,4.3739,4.2947,4.3233,4.3864,4.4704,4.5105,4.5307,4.5307,4.5307,4.5086,4.4532,4.4953,4.5067,4.4513,4.4456,4.4456,4.4456,4.3978,4.3921,4.4437,4.3959,4.3787,4.4006,4.2947,4.2106,4.1495,4.0979,4.0578,4.0301,4.0301,4.0301]}]]